<?xml version='1.0' encoding='UTF-8'?>
<gpx version="1.1" creator="https://www.komoot.de" xmlns="http://www.topografix.com/GPX/1/1" xmlns:xsi="http://www.w3.org/2001/XMLSchema-instance" xsi:schemaLocation="http://www.topografix.com/GPX/1/1 http://www.topografix.com/GPX/1/1/gpx.xsd">
  <metadata>
    <name>70_1150Wiesenbergrunde</name>
    <author>
      <link href="https://www.komoot.de">
        <text>komoot</text>
        <type>text/html</type>
      </link>
    </author>
  </metadata>
  <trk>
    <name>70_1150Wiesenbergrunde</name>
    <trkseg>
      <trkpt lat="47.539611" lon="7.872576">
        <ele>346.494629</ele>
        <time>2021-11-20T17:32:06.728Z</time>
      </trkpt>
      <trkpt lat="47.539222" lon="7.873416">
        <ele>346.494629</ele>
        <time>2021-11-20T17:32:17.570Z</time>
      </trkpt>
      <trkpt lat="47.538278" lon="7.874319">
        <ele>347.274092</ele>
        <time>2021-11-20T17:32:36.649Z</time>
      </trkpt>
      <trkpt lat="47.537716" lon="7.874966">
        <ele>347.882383</ele>
        <time>2021-11-20T17:32:50.610Z</time>
      </trkpt>
      <trkpt lat="47.537261" lon="7.875237">
        <ele>348.773803</ele>
        <time>2021-11-20T17:33:00.127Z</time>
      </trkpt>
      <trkpt lat="47.537182" lon="7.875293">
        <ele>348.979714</ele>
        <time>2021-11-20T17:33:02.116Z</time>
      </trkpt>
      <trkpt lat="47.536921" lon="7.875537">
        <ele>349.705351</ele>
        <time>2021-11-20T17:33:08.083Z</time>
      </trkpt>
      <trkpt lat="47.536757" lon="7.875759">
        <ele>350.227693</ele>
        <time>2021-11-20T17:33:12.684Z</time>
      </trkpt>
      <trkpt lat="47.536632" lon="7.875912">
        <ele>350.608939</ele>
        <time>2021-11-20T17:33:15.852Z</time>
      </trkpt>
      <trkpt lat="47.536444" lon="7.876177">
        <ele>351.219104</ele>
        <time>2021-11-20T17:33:22.814Z</time>
      </trkpt>
      <trkpt lat="47.535851" lon="7.877319">
        <ele>354.969081</ele>
        <time>2021-11-20T17:33:54.128Z</time>
      </trkpt>
      <trkpt lat="47.535770" lon="7.877432">
        <ele>355.538041</ele>
        <time>2021-11-20T17:33:58.308Z</time>
      </trkpt>
      <trkpt lat="47.535635" lon="7.877484">
        <ele>356.251297</ele>
        <time>2021-11-20T17:34:04.175Z</time>
      </trkpt>
      <trkpt lat="47.535551" lon="7.877487">
        <ele>356.680940</ele>
        <time>2021-11-20T17:34:06.084Z</time>
      </trkpt>
      <trkpt lat="47.535322" lon="7.877590">
        <ele>357.904685</ele>
        <time>2021-11-20T17:34:16.135Z</time>
      </trkpt>
      <trkpt lat="47.535088" lon="7.877742">
        <ele>359.211204</ele>
        <time>2021-11-20T17:34:23.967Z</time>
      </trkpt>
      <trkpt lat="47.534855" lon="7.878090">
        <ele>360.903161</ele>
        <time>2021-11-20T17:34:35.950Z</time>
      </trkpt>
      <trkpt lat="47.534778" lon="7.878270">
        <ele>361.623763</ele>
        <time>2021-11-20T17:34:43.257Z</time>
      </trkpt>
      <trkpt lat="47.534825" lon="7.878414">
        <ele>362.130128</ele>
        <time>2021-11-20T17:34:45.884Z</time>
      </trkpt>
      <trkpt lat="47.534946" lon="7.878790">
        <ele>363.448806</ele>
        <time>2021-11-20T17:34:57.932Z</time>
      </trkpt>
      <trkpt lat="47.534908" lon="7.878975">
        <ele>364.060998</ele>
        <time>2021-11-20T17:35:01.990Z</time>
      </trkpt>
      <trkpt lat="47.534616" lon="7.879490">
        <ele>366.190113</ele>
        <time>2021-11-20T17:35:18.936Z</time>
      </trkpt>
      <trkpt lat="47.533892" lon="7.880353">
        <ele>370.152083</ele>
        <time>2021-11-20T17:35:46.676Z</time>
      </trkpt>
      <trkpt lat="47.533606" lon="7.880961">
        <ele>371.082739</ele>
        <time>2021-11-20T17:35:58.984Z</time>
      </trkpt>
      <trkpt lat="47.533374" lon="7.881639">
        <ele>372.037374</ele>
        <time>2021-11-20T17:36:10.030Z</time>
      </trkpt>
      <trkpt lat="47.533014" lon="7.882949">
        <ele>373.104234</ele>
        <time>2021-11-20T17:36:27.944Z</time>
      </trkpt>
      <trkpt lat="47.532859" lon="7.883508">
        <ele>372.928532</ele>
        <time>2021-11-20T17:36:33.823Z</time>
      </trkpt>
      <trkpt lat="47.532713" lon="7.884122">
        <ele>372.739262</ele>
        <time>2021-11-20T17:36:39.520Z</time>
      </trkpt>
      <trkpt lat="47.532699" lon="7.884224">
        <ele>372.708998</ele>
        <time>2021-11-20T17:36:40.474Z</time>
      </trkpt>
      <trkpt lat="47.532670" lon="7.884773">
        <ele>372.548887</ele>
        <time>2021-11-20T17:36:44.968Z</time>
      </trkpt>
      <trkpt lat="47.532658" lon="7.884989">
        <ele>372.485872</ele>
        <time>2021-11-20T17:36:46.580Z</time>
      </trkpt>
      <trkpt lat="47.532650" lon="7.885569">
        <ele>371.905387</ele>
        <time>2021-11-20T17:36:51.082Z</time>
      </trkpt>
      <trkpt lat="47.532505" lon="7.887120">
        <ele>370.164598</ele>
        <time>2021-11-20T17:37:03.033Z</time>
      </trkpt>
      <trkpt lat="47.532288" lon="7.887728">
        <ele>369.413081</ele>
        <time>2021-11-20T17:37:08.210Z</time>
      </trkpt>
      <trkpt lat="47.532011" lon="7.888896">
        <ele>368.214246</ele>
        <time>2021-11-20T17:37:17.440Z</time>
      </trkpt>
      <trkpt lat="47.531843" lon="7.889349">
        <ele>367.713738</ele>
        <time>2021-11-20T17:37:21.477Z</time>
      </trkpt>
      <trkpt lat="47.531560" lon="7.889776">
        <ele>367.134301</ele>
        <time>2021-11-20T17:37:26.417Z</time>
      </trkpt>
      <trkpt lat="47.531265" lon="7.889937">
        <ele>366.968116</ele>
        <time>2021-11-20T17:37:30.385Z</time>
      </trkpt>
      <trkpt lat="47.531076" lon="7.890029">
        <ele>367.023885</ele>
        <time>2021-11-20T17:37:33.226Z</time>
      </trkpt>
      <trkpt lat="47.530606" lon="7.890373">
        <ele>367.170845</ele>
        <time>2021-11-20T17:37:41.075Z</time>
      </trkpt>
      <trkpt lat="47.530322" lon="7.890690">
        <ele>367.270534</ele>
        <time>2021-11-20T17:37:47.068Z</time>
      </trkpt>
      <trkpt lat="47.529972" lon="7.891210">
        <ele>367.409505</ele>
        <time>2021-11-20T17:37:56.230Z</time>
      </trkpt>
      <trkpt lat="47.529714" lon="7.891609">
        <ele>367.758098</ele>
        <time>2021-11-20T17:38:03.564Z</time>
      </trkpt>
      <trkpt lat="47.529695" lon="7.891638">
        <ele>367.786881</ele>
        <time>2021-11-20T17:38:04.550Z</time>
      </trkpt>
      <trkpt lat="47.529235" lon="7.892158">
        <ele>368.397358</ele>
        <time>2021-11-20T17:38:15.484Z</time>
      </trkpt>
      <trkpt lat="47.528331" lon="7.892682">
        <ele>369.483274</ele>
        <time>2021-11-20T17:38:34.186Z</time>
      </trkpt>
      <trkpt lat="47.528003" lon="7.892732">
        <ele>370.049971</ele>
        <time>2021-11-20T17:38:39.892Z</time>
      </trkpt>
      <trkpt lat="47.527498" lon="7.892650">
        <ele>370.923091</ele>
        <time>2021-11-20T17:38:49.365Z</time>
      </trkpt>
      <trkpt lat="47.527011" lon="7.893061">
        <ele>371.886438</ele>
        <time>2021-11-20T17:39:02.558Z</time>
      </trkpt>
      <trkpt lat="47.526709" lon="7.893617">
        <ele>372.901353</ele>
        <time>2021-11-20T17:39:15.090Z</time>
      </trkpt>
      <trkpt lat="47.526504" lon="7.894030">
        <ele>373.866558</ele>
        <time>2021-11-20T17:39:25.271Z</time>
      </trkpt>
      <trkpt lat="47.526451" lon="7.893983">
        <ele>374.038830</ele>
        <time>2021-11-20T17:39:26.660Z</time>
      </trkpt>
      <trkpt lat="47.526401" lon="7.893964">
        <ele>374.182780</ele>
        <time>2021-11-20T17:39:27.477Z</time>
      </trkpt>
      <trkpt lat="47.526335" lon="7.893960">
        <ele>374.366986</ele>
        <time>2021-11-20T17:39:29.551Z</time>
      </trkpt>
      <trkpt lat="47.526257" lon="7.894278">
        <ele>375.004078</ele>
        <time>2021-11-20T17:39:35.763Z</time>
      </trkpt>
      <trkpt lat="47.525725" lon="7.895110">
        <ele>377.161748</ele>
        <time>2021-11-20T17:39:54.845Z</time>
      </trkpt>
      <trkpt lat="47.525603" lon="7.895265">
        <ele>377.505416</ele>
        <time>2021-11-20T17:40:00.461Z</time>
      </trkpt>
      <trkpt lat="47.525631" lon="7.895442">
        <ele>377.648546</ele>
        <time>2021-11-20T17:40:03.311Z</time>
      </trkpt>
      <trkpt lat="47.525631" lon="7.895583">
        <ele>377.759559</ele>
        <time>2021-11-20T17:40:04.502Z</time>
      </trkpt>
      <trkpt lat="47.525622" lon="7.895944">
        <ele>378.043978</ele>
        <time>2021-11-20T17:40:11.938Z</time>
      </trkpt>
      <trkpt lat="47.525590" lon="7.896117">
        <ele>378.185203</ele>
        <time>2021-11-20T17:40:13.491Z</time>
      </trkpt>
      <trkpt lat="47.525518" lon="7.896336">
        <ele>378.376978</ele>
        <time>2021-11-20T17:40:18.298Z</time>
      </trkpt>
      <trkpt lat="47.524834" lon="7.897636">
        <ele>379.530130</ele>
        <time>2021-11-20T17:40:35.221Z</time>
      </trkpt>
      <trkpt lat="47.524617" lon="7.898216">
        <ele>379.539791</ele>
        <time>2021-11-20T17:40:41.395Z</time>
      </trkpt>
      <trkpt lat="47.524360" lon="7.898951">
        <ele>379.551851</ele>
        <time>2021-11-20T17:40:48.935Z</time>
      </trkpt>
      <trkpt lat="47.524309" lon="7.899115">
        <ele>379.554482</ele>
        <time>2021-11-20T17:40:50.849Z</time>
      </trkpt>
      <trkpt lat="47.523896" lon="7.900001">
        <ele>379.965966</ele>
        <time>2021-11-20T17:41:02.772Z</time>
      </trkpt>
      <trkpt lat="47.523861" lon="7.900049">
        <ele>380.070091</ele>
        <time>2021-11-20T17:41:03.751Z</time>
      </trkpt>
      <trkpt lat="47.523890" lon="7.900131">
        <ele>380.206530</ele>
        <time>2021-11-20T17:41:04.706Z</time>
      </trkpt>
      <trkpt lat="47.523945" lon="7.900256">
        <ele>380.426437</ele>
        <time>2021-11-20T17:41:06.297Z</time>
      </trkpt>
      <trkpt lat="47.523989" lon="7.900340">
        <ele>380.583134</ele>
        <time>2021-11-20T17:41:07.347Z</time>
      </trkpt>
      <trkpt lat="47.523957" lon="7.900371">
        <ele>380.666600</ele>
        <time>2021-11-20T17:41:08.052Z</time>
      </trkpt>
      <trkpt lat="47.523878" lon="7.900445">
        <ele>380.870639</ele>
        <time>2021-11-20T17:41:10.169Z</time>
      </trkpt>
      <trkpt lat="47.523739" lon="7.900557">
        <ele>381.216046</ele>
        <time>2021-11-20T17:41:13.100Z</time>
      </trkpt>
      <trkpt lat="47.523648" lon="7.900606">
        <ele>381.427400</ele>
        <time>2021-11-20T17:41:15.279Z</time>
      </trkpt>
      <trkpt lat="47.523620" lon="7.900698">
        <ele>381.576143</ele>
        <time>2021-11-20T17:41:17.242Z</time>
      </trkpt>
      <trkpt lat="47.523567" lon="7.900820">
        <ele>381.789967</ele>
        <time>2021-11-20T17:41:19.340Z</time>
      </trkpt>
      <trkpt lat="47.523433" lon="7.901043">
        <ele>382.229958</ele>
        <time>2021-11-20T17:41:24.584Z</time>
      </trkpt>
      <trkpt lat="47.523340" lon="7.901197">
        <ele>382.534481</ele>
        <time>2021-11-20T17:41:28.626Z</time>
      </trkpt>
      <trkpt lat="47.523036" lon="7.901580">
        <ele>383.405694</ele>
        <time>2021-11-20T17:41:40.322Z</time>
      </trkpt>
      <trkpt lat="47.522688" lon="7.901843">
        <ele>384.941295</ele>
        <time>2021-11-20T17:41:52.640Z</time>
      </trkpt>
      <trkpt lat="47.522554" lon="7.901999">
        <ele>385.644869</ele>
        <time>2021-11-20T17:41:58.961Z</time>
      </trkpt>
      <trkpt lat="47.522260" lon="7.902356">
        <ele>387.214244</ele>
        <time>2021-11-20T17:42:11.334Z</time>
      </trkpt>
      <trkpt lat="47.522132" lon="7.902476">
        <ele>387.839572</ele>
        <time>2021-11-20T17:42:15.892Z</time>
      </trkpt>
      <trkpt lat="47.522065" lon="7.902526">
        <ele>388.149261</ele>
        <time>2021-11-20T17:42:18.086Z</time>
      </trkpt>
      <trkpt lat="47.522038" lon="7.902562">
        <ele>388.299229</ele>
        <time>2021-11-20T17:42:19.590Z</time>
      </trkpt>
      <trkpt lat="47.522013" lon="7.902637">
        <ele>388.532370</ele>
        <time>2021-11-20T17:42:21.724Z</time>
      </trkpt>
      <trkpt lat="47.521792" lon="7.903347">
        <ele>390.711586</ele>
        <time>2021-11-20T17:42:37.792Z</time>
      </trkpt>
      <trkpt lat="47.521297" lon="7.904312">
        <ele>392.919681</ele>
        <time>2021-11-20T17:43:01.794Z</time>
      </trkpt>
      <trkpt lat="47.520989" lon="7.905130">
        <ele>394.567848</ele>
        <time>2021-11-20T17:43:17.209Z</time>
      </trkpt>
      <trkpt lat="47.520678" lon="7.906050">
        <ele>395.709257</ele>
        <time>2021-11-20T17:43:30.679Z</time>
      </trkpt>
      <trkpt lat="47.520566" lon="7.906668">
        <ele>395.862863</ele>
        <time>2021-11-20T17:43:37.699Z</time>
      </trkpt>
      <trkpt lat="47.520528" lon="7.906930">
        <ele>395.927194</ele>
        <time>2021-11-20T17:43:40.959Z</time>
      </trkpt>
      <trkpt lat="47.520515" lon="7.907103">
        <ele>395.968980</ele>
        <time>2021-11-20T17:43:42.756Z</time>
      </trkpt>
      <trkpt lat="47.520506" lon="7.907236">
        <ele>396.001068</ele>
        <time>2021-11-20T17:43:43.833Z</time>
      </trkpt>
      <trkpt lat="47.520551" lon="7.907422">
        <ele>396.048499</ele>
        <time>2021-11-20T17:43:46.243Z</time>
      </trkpt>
      <trkpt lat="47.520733" lon="7.907655">
        <ele>396.134022</ele>
        <time>2021-11-20T17:43:49.430Z</time>
      </trkpt>
      <trkpt lat="47.520738" lon="7.907839">
        <ele>396.178229</ele>
        <time>2021-11-20T17:43:51.572Z</time>
      </trkpt>
      <trkpt lat="47.520493" lon="7.908683">
        <ele>396.388368</ele>
        <time>2021-11-20T17:43:59.752Z</time>
      </trkpt>
      <trkpt lat="47.519997" lon="7.910833">
        <ele>397.022544</ele>
        <time>2021-11-20T17:44:25.697Z</time>
      </trkpt>
      <trkpt lat="47.519953" lon="7.910955">
        <ele>397.120681</ele>
        <time>2021-11-20T17:44:27.653Z</time>
      </trkpt>
      <trkpt lat="47.519891" lon="7.911129">
        <ele>397.260274</ele>
        <time>2021-11-20T17:44:30.287Z</time>
      </trkpt>
      <trkpt lat="47.519891" lon="7.911129">
        <ele>397.260274</ele>
        <time>2021-11-20T17:44:30.339Z</time>
      </trkpt>
      <trkpt lat="47.519891" lon="7.911129">
        <ele>397.260274</ele>
        <time>2021-11-20T17:44:30.343Z</time>
      </trkpt>
      <trkpt lat="47.519720" lon="7.911522">
        <ele>397.591996</ele>
        <time>2021-11-20T17:44:36.450Z</time>
      </trkpt>
      <trkpt lat="47.519421" lon="7.912098">
        <ele>398.107486</ele>
        <time>2021-11-20T17:44:45.993Z</time>
      </trkpt>
      <trkpt lat="47.517688" lon="7.914418">
        <ele>400.581344</ele>
        <time>2021-11-20T17:45:30.571Z</time>
      </trkpt>
      <trkpt lat="47.517281" lon="7.915238">
        <ele>401.227994</ele>
        <time>2021-11-20T17:45:43.586Z</time>
      </trkpt>
      <trkpt lat="47.517140" lon="7.915259">
        <ele>401.359861</ele>
        <time>2021-11-20T17:45:46.085Z</time>
      </trkpt>
      <trkpt lat="47.516806" lon="7.914896">
        <ele>401.745397</ele>
        <time>2021-11-20T17:45:53.661Z</time>
      </trkpt>
      <trkpt lat="47.516748" lon="7.914873">
        <ele>401.801270</ele>
        <time>2021-11-20T17:45:54.833Z</time>
      </trkpt>
      <trkpt lat="47.516662" lon="7.914835">
        <ele>401.884783</ele>
        <time>2021-11-20T17:45:56.624Z</time>
      </trkpt>
      <trkpt lat="47.516626" lon="7.914830">
        <ele>401.918429</ele>
        <time>2021-11-20T17:45:57.319Z</time>
      </trkpt>
      <trkpt lat="47.516590" lon="7.914840">
        <ele>401.952512</ele>
        <time>2021-11-20T17:45:57.914Z</time>
      </trkpt>
      <trkpt lat="47.516569" lon="7.914864">
        <ele>401.977198</ele>
        <time>2021-11-20T17:45:58.448Z</time>
      </trkpt>
      <trkpt lat="47.516544" lon="7.914936">
        <ele>402.028076</ele>
        <time>2021-11-20T17:45:59.295Z</time>
      </trkpt>
      <trkpt lat="47.516436" lon="7.915153">
        <ele>402.197482</ele>
        <time>2021-11-20T17:46:02.684Z</time>
      </trkpt>
      <trkpt lat="47.516391" lon="7.915243">
        <ele>402.267856</ele>
        <time>2021-11-20T17:46:04.088Z</time>
      </trkpt>
      <trkpt lat="47.515014" lon="7.917030">
        <ele>403.958231</ele>
        <time>2021-11-20T17:46:37.864Z</time>
      </trkpt>
      <trkpt lat="47.514635" lon="7.917349">
        <ele>404.597565</ele>
        <time>2021-11-20T17:46:45.983Z</time>
      </trkpt>
      <trkpt lat="47.514561" lon="7.917409">
        <ele>404.723013</ele>
        <time>2021-11-20T17:46:47.875Z</time>
      </trkpt>
      <trkpt lat="47.514255" lon="7.917714">
        <ele>405.271497</ele>
        <time>2021-11-20T17:46:55.344Z</time>
      </trkpt>
      <trkpt lat="47.513378" lon="7.918393">
        <ele>406.774950</ele>
        <time>2021-11-20T17:47:17.070Z</time>
      </trkpt>
      <trkpt lat="47.513160" lon="7.918764">
        <ele>407.433242</ele>
        <time>2021-11-20T17:47:24.572Z</time>
      </trkpt>
      <trkpt lat="47.513058" lon="7.918896">
        <ele>407.701747</ele>
        <time>2021-11-20T17:47:27.727Z</time>
      </trkpt>
      <trkpt lat="47.512938" lon="7.919052">
        <ele>408.018258</ele>
        <time>2021-11-20T17:47:30.852Z</time>
      </trkpt>
      <trkpt lat="47.512664" lon="7.919306">
        <ele>408.658991</ele>
        <time>2021-11-20T17:47:38.770Z</time>
      </trkpt>
      <trkpt lat="47.512255" lon="7.919538">
        <ele>409.527085</ele>
        <time>2021-11-20T17:47:48.836Z</time>
      </trkpt>
      <trkpt lat="47.512085" lon="7.919732">
        <ele>409.952498</ele>
        <time>2021-11-20T17:47:53.935Z</time>
      </trkpt>
      <trkpt lat="47.511964" lon="7.919989">
        <ele>410.337945</ele>
        <time>2021-11-20T17:47:58.775Z</time>
      </trkpt>
      <trkpt lat="47.511883" lon="7.920133">
        <ele>410.535537</ele>
        <time>2021-11-20T17:48:01.898Z</time>
      </trkpt>
      <trkpt lat="47.511949" lon="7.920152">
        <ele>410.640498</ele>
        <time>2021-11-20T17:48:03.826Z</time>
      </trkpt>
      <trkpt lat="47.512022" lon="7.920171">
        <ele>410.756205</ele>
        <time>2021-11-20T17:48:05.832Z</time>
      </trkpt>
      <trkpt lat="47.512192" lon="7.920204">
        <ele>411.023859</ele>
        <time>2021-11-20T17:48:10.381Z</time>
      </trkpt>
      <trkpt lat="47.512269" lon="7.920234">
        <ele>411.148155</ele>
        <time>2021-11-20T17:48:12.199Z</time>
      </trkpt>
      <trkpt lat="47.512331" lon="7.920282">
        <ele>411.257376</ele>
        <time>2021-11-20T17:48:14.295Z</time>
      </trkpt>
      <trkpt lat="47.512197" lon="7.920511">
        <ele>411.576845</ele>
        <time>2021-11-20T17:48:18.318Z</time>
      </trkpt>
      <trkpt lat="47.511767" lon="7.921389">
        <ele>412.720369</ele>
        <time>2021-11-20T17:48:33.267Z</time>
      </trkpt>
      <trkpt lat="47.511415" lon="7.922417">
        <ele>413.720219</ele>
        <time>2021-11-20T17:48:48.675Z</time>
      </trkpt>
      <trkpt lat="47.511246" lon="7.922736">
        <ele>414.047139</ele>
        <time>2021-11-20T17:48:53.587Z</time>
      </trkpt>
      <trkpt lat="47.511213" lon="7.922782">
        <ele>414.101251</ele>
        <time>2021-11-20T17:48:54.519Z</time>
      </trkpt>
      <trkpt lat="47.511001" lon="7.923070">
        <ele>414.444750</ele>
        <time>2021-11-20T17:48:59.895Z</time>
      </trkpt>
      <trkpt lat="47.510052" lon="7.924017">
        <ele>416.043474</ele>
        <time>2021-11-20T17:49:23.201Z</time>
      </trkpt>
      <trkpt lat="47.509886" lon="7.924134">
        <ele>416.342202</ele>
        <time>2021-11-20T17:49:27.339Z</time>
      </trkpt>
      <trkpt lat="47.509806" lon="7.924174">
        <ele>416.479401</ele>
        <time>2021-11-20T17:49:29.045Z</time>
      </trkpt>
      <trkpt lat="47.509676" lon="7.924247">
        <ele>416.705313</ele>
        <time>2021-11-20T17:49:31.907Z</time>
      </trkpt>
      <trkpt lat="47.509605" lon="7.924290">
        <ele>416.829955</ele>
        <time>2021-11-20T17:49:33.531Z</time>
      </trkpt>
      <trkpt lat="47.509572" lon="7.924311">
        <ele>416.888318</ele>
        <time>2021-11-20T17:49:34.507Z</time>
      </trkpt>
      <trkpt lat="47.509223" lon="7.924628">
        <ele>417.553605</ele>
        <time>2021-11-20T17:49:43.362Z</time>
      </trkpt>
      <trkpt lat="47.509032" lon="7.924863">
        <ele>417.957133</ele>
        <time>2021-11-20T17:49:48.869Z</time>
      </trkpt>
      <trkpt lat="47.509016" lon="7.924882">
        <ele>417.990460</ele>
        <time>2021-11-20T17:49:49.313Z</time>
      </trkpt>
      <trkpt lat="47.508667" lon="7.925295">
        <ele>418.870774</ele>
        <time>2021-11-20T17:49:59.255Z</time>
      </trkpt>
      <trkpt lat="47.508355" lon="7.925609">
        <ele>419.634735</ele>
        <time>2021-11-20T17:50:07.373Z</time>
      </trkpt>
      <trkpt lat="47.508106" lon="7.925799">
        <ele>420.201993</ele>
        <time>2021-11-20T17:50:13.474Z</time>
      </trkpt>
      <trkpt lat="47.508002" lon="7.925879">
        <ele>420.439324</ele>
        <time>2021-11-20T17:50:15.739Z</time>
      </trkpt>
      <trkpt lat="47.507856" lon="7.925990">
        <ele>420.771679</ele>
        <time>2021-11-20T17:50:19.465Z</time>
      </trkpt>
      <trkpt lat="47.506112" lon="7.927414">
        <ele>426.452694</ele>
        <time>2021-11-20T17:51:10.590Z</time>
      </trkpt>
      <trkpt lat="47.505881" lon="7.927601">
        <ele>427.271745</ele>
        <time>2021-11-20T17:51:19.179Z</time>
      </trkpt>
      <trkpt lat="47.505868" lon="7.927611">
        <ele>427.317321</ele>
        <time>2021-11-20T17:51:20.568Z</time>
      </trkpt>
      <trkpt lat="47.505814" lon="7.927657">
        <ele>427.524524</ele>
        <time>2021-11-20T17:51:22.462Z</time>
      </trkpt>
      <trkpt lat="47.505253" lon="7.928170">
        <ele>429.725275</ele>
        <time>2021-11-20T17:51:44.336Z</time>
      </trkpt>
      <trkpt lat="47.504799" lon="7.928777">
        <ele>431.767024</ele>
        <time>2021-11-20T17:52:00.171Z</time>
      </trkpt>
      <trkpt lat="47.504724" lon="7.928871">
        <ele>432.095003</ele>
        <time>2021-11-20T17:52:03.707Z</time>
      </trkpt>
      <trkpt lat="47.504724" lon="7.928871">
        <ele>432.095003</ele>
        <time>2021-11-20T17:52:03.935Z</time>
      </trkpt>
      <trkpt lat="47.504650" lon="7.928941">
        <ele>432.388096</ele>
        <time>2021-11-20T17:52:05.907Z</time>
      </trkpt>
      <trkpt lat="47.504005" lon="7.929312">
        <ele>433.813914</ele>
        <time>2021-11-20T17:52:21.246Z</time>
      </trkpt>
      <trkpt lat="47.503815" lon="7.929426">
        <ele>434.055934</ele>
        <time>2021-11-20T17:52:24.082Z</time>
      </trkpt>
      <trkpt lat="47.503598" lon="7.929585">
        <ele>434.341766</ele>
        <time>2021-11-20T17:52:29.536Z</time>
      </trkpt>
      <trkpt lat="47.503528" lon="7.929650">
        <ele>434.439314</ele>
        <time>2021-11-20T17:52:30.594Z</time>
      </trkpt>
      <trkpt lat="47.503485" lon="7.929688">
        <ele>434.498433</ele>
        <time>2021-11-20T17:52:31.949Z</time>
      </trkpt>
      <trkpt lat="47.503014" lon="7.930220">
        <ele>435.197827</ele>
        <time>2021-11-20T17:52:42.223Z</time>
      </trkpt>
      <trkpt lat="47.502761" lon="7.930610">
        <ele>435.578905</ele>
        <time>2021-11-20T17:52:48.577Z</time>
      </trkpt>
      <trkpt lat="47.502613" lon="7.930856">
        <ele>435.766550</ele>
        <time>2021-11-20T17:52:52.375Z</time>
      </trkpt>
      <trkpt lat="47.502400" lon="7.931256">
        <ele>436.056681</ele>
        <time>2021-11-20T17:52:59.178Z</time>
      </trkpt>
      <trkpt lat="47.502023" lon="7.932158">
        <ele>436.660886</ele>
        <time>2021-11-20T17:53:12.196Z</time>
      </trkpt>
      <trkpt lat="47.501901" lon="7.932351">
        <ele>436.811451</ele>
        <time>2021-11-20T17:53:16.047Z</time>
      </trkpt>
      <trkpt lat="47.501794" lon="7.932466">
        <ele>436.922949</ele>
        <time>2021-11-20T17:53:17.868Z</time>
      </trkpt>
      <trkpt lat="47.501463" lon="7.932668">
        <ele>437.324252</ele>
        <time>2021-11-20T17:53:24.007Z</time>
      </trkpt>
      <trkpt lat="47.501075" lon="7.932885">
        <ele>437.810546</ele>
        <time>2021-11-20T17:53:31.827Z</time>
      </trkpt>
      <trkpt lat="47.500990" lon="7.932950">
        <ele>437.922717</ele>
        <time>2021-11-20T17:53:34.290Z</time>
      </trkpt>
      <trkpt lat="47.500843" lon="7.933102">
        <ele>438.132952</ele>
        <time>2021-11-20T17:53:37.161Z</time>
      </trkpt>
      <trkpt lat="47.500435" lon="7.933872">
        <ele>438.908066</ele>
        <time>2021-11-20T17:53:50.442Z</time>
      </trkpt>
      <trkpt lat="47.500386" lon="7.933937">
        <ele>438.985210</ele>
        <time>2021-11-20T17:53:51.615Z</time>
      </trkpt>
      <trkpt lat="47.500352" lon="7.933976">
        <ele>439.035641</ele>
        <time>2021-11-20T17:53:52.418Z</time>
      </trkpt>
      <trkpt lat="47.500275" lon="7.934029">
        <ele>439.212254</ele>
        <time>2021-11-20T17:53:54.740Z</time>
      </trkpt>
      <trkpt lat="47.500208" lon="7.934071">
        <ele>439.414583</ele>
        <time>2021-11-20T17:53:56.454Z</time>
      </trkpt>
      <trkpt lat="47.500193" lon="7.934023">
        <ele>439.513937</ele>
        <time>2021-11-20T17:53:57.069Z</time>
      </trkpt>
      <trkpt lat="47.500169" lon="7.933984">
        <ele>439.613043</ele>
        <time>2021-11-20T17:53:57.575Z</time>
      </trkpt>
      <trkpt lat="47.500138" lon="7.933956">
        <ele>439.714027</ele>
        <time>2021-11-20T17:53:58.348Z</time>
      </trkpt>
      <trkpt lat="47.500067" lon="7.933946">
        <ele>439.912351</ele>
        <time>2021-11-20T17:53:59.550Z</time>
      </trkpt>
      <trkpt lat="47.500034" lon="7.933965">
        <ele>440.010813</ele>
        <time>2021-11-20T17:54:00.512Z</time>
      </trkpt>
      <trkpt lat="47.500007" lon="7.933994">
        <ele>440.103577</ele>
        <time>2021-11-20T17:54:01.600Z</time>
      </trkpt>
      <trkpt lat="47.499971" lon="7.934127">
        <ele>440.372744</ele>
        <time>2021-11-20T17:54:04.126Z</time>
      </trkpt>
      <trkpt lat="47.499976" lon="7.934175">
        <ele>440.463984</ele>
        <time>2021-11-20T17:54:04.992Z</time>
      </trkpt>
      <trkpt lat="47.499991" lon="7.934221">
        <ele>440.559942</ele>
        <time>2021-11-20T17:54:05.481Z</time>
      </trkpt>
      <trkpt lat="47.500077" lon="7.934300">
        <ele>440.841395</ele>
        <time>2021-11-20T17:54:07.627Z</time>
      </trkpt>
      <trkpt lat="47.500111" lon="7.934299">
        <ele>440.935958</ele>
        <time>2021-11-20T17:54:08.261Z</time>
      </trkpt>
      <trkpt lat="47.500121" lon="7.934400">
        <ele>441.127727</ele>
        <time>2021-11-20T17:54:10.455Z</time>
      </trkpt>
      <trkpt lat="47.500647" lon="7.936766">
        <ele>446.701761</ele>
        <time>2021-11-20T17:54:58.497Z</time>
      </trkpt>
      <trkpt lat="47.500700" lon="7.936982">
        <ele>447.357214</ele>
        <time>2021-11-20T17:55:03.460Z</time>
      </trkpt>
      <trkpt lat="47.500786" lon="7.937295">
        <ele>448.320962</ele>
        <time>2021-11-20T17:55:10.529Z</time>
      </trkpt>
      <trkpt lat="47.500922" lon="7.937675">
        <ele>449.547490</ele>
        <time>2021-11-20T17:55:19.943Z</time>
      </trkpt>
      <trkpt lat="47.501302" lon="7.938421">
        <ele>452.349895</ele>
        <time>2021-11-20T17:55:41.817Z</time>
      </trkpt>
      <trkpt lat="47.503196" lon="7.941586">
        <ele>468.091810</ele>
        <time>2021-11-20T17:57:25.626Z</time>
      </trkpt>
      <trkpt lat="47.503525" lon="7.942511">
        <ele>472.262188</ele>
        <time>2021-11-20T17:57:54.510Z</time>
      </trkpt>
      <trkpt lat="47.503757" lon="7.943678">
        <ele>477.653289</ele>
        <time>2021-11-20T17:58:28.765Z</time>
      </trkpt>
      <trkpt lat="47.503877" lon="7.944221">
        <ele>480.185193</ele>
        <time>2021-11-20T17:58:44.830Z</time>
      </trkpt>
      <trkpt lat="47.504206" lon="7.945339">
        <ele>485.572292</ele>
        <time>2021-11-20T17:59:18.258Z</time>
      </trkpt>
      <trkpt lat="47.504339" lon="7.946127">
        <ele>489.142795</ele>
        <time>2021-11-20T17:59:39.859Z</time>
      </trkpt>
      <trkpt lat="47.504360" lon="7.947339">
        <ele>494.472448</ele>
        <time>2021-11-20T18:00:14.626Z</time>
      </trkpt>
      <trkpt lat="47.504516" lon="7.948210">
        <ele>498.310591</ele>
        <time>2021-11-20T18:00:39.008Z</time>
      </trkpt>
      <trkpt lat="47.504564" lon="7.948438">
        <ele>499.320987</ele>
        <time>2021-11-20T18:00:46.133Z</time>
      </trkpt>
      <trkpt lat="47.504637" lon="7.948756">
        <ele>500.741961</ele>
        <time>2021-11-20T18:00:54.764Z</time>
      </trkpt>
      <trkpt lat="47.504833" lon="7.949650">
        <ele>504.718550</ele>
        <time>2021-11-20T18:01:19.535Z</time>
      </trkpt>
      <trkpt lat="47.505078" lon="7.950674">
        <ele>508.946484</ele>
        <time>2021-11-20T18:01:49.011Z</time>
      </trkpt>
      <trkpt lat="47.505298" lon="7.951312">
        <ele>511.591291</ele>
        <time>2021-11-20T18:02:06.281Z</time>
      </trkpt>
      <trkpt lat="47.505561" lon="7.951903">
        <ele>514.204327</ele>
        <time>2021-11-20T18:02:22.661Z</time>
      </trkpt>
      <trkpt lat="47.505724" lon="7.952248">
        <ele>515.758781</ele>
        <time>2021-11-20T18:02:32.558Z</time>
      </trkpt>
      <trkpt lat="47.506242" lon="7.953373">
        <ele>520.201456</ele>
        <time>2021-11-20T18:03:07.021Z</time>
      </trkpt>
      <trkpt lat="47.506403" lon="7.953752">
        <ele>521.641408</ele>
        <time>2021-11-20T18:03:18.449Z</time>
      </trkpt>
      <trkpt lat="47.506539" lon="7.954325">
        <ele>523.594758</ele>
        <time>2021-11-20T18:03:32.321Z</time>
      </trkpt>
      <trkpt lat="47.506555" lon="7.954505">
        <ele>524.178670</ele>
        <time>2021-11-20T18:03:36.688Z</time>
      </trkpt>
      <trkpt lat="47.506559" lon="7.954699">
        <ele>524.802909</ele>
        <time>2021-11-20T18:03:40.570Z</time>
      </trkpt>
      <trkpt lat="47.506560" lon="7.954845">
        <ele>524.665187</ele>
        <time>2021-11-20T18:03:42.833Z</time>
      </trkpt>
      <trkpt lat="47.506539" lon="7.955130">
        <ele>524.357109</ele>
        <time>2021-11-20T18:03:48.572Z</time>
      </trkpt>
      <trkpt lat="47.506484" lon="7.955438">
        <ele>524.014762</ele>
        <time>2021-11-20T18:03:50.971Z</time>
      </trkpt>
      <trkpt lat="47.506190" lon="7.956344">
        <ele>522.934659</ele>
        <time>2021-11-20T18:03:58.677Z</time>
      </trkpt>
      <trkpt lat="47.506053" lon="7.957072">
        <ele>522.122553</ele>
        <time>2021-11-20T18:04:03.840Z</time>
      </trkpt>
      <trkpt lat="47.506050" lon="7.957299">
        <ele>521.601558</ele>
        <time>2021-11-20T18:04:05.284Z</time>
      </trkpt>
      <trkpt lat="47.506050" lon="7.957397">
        <ele>521.119420</ele>
        <time>2021-11-20T18:04:05.834Z</time>
      </trkpt>
      <trkpt lat="47.506128" lon="7.958087">
        <ele>517.677573</ele>
        <time>2021-11-20T18:04:10.110Z</time>
      </trkpt>
      <trkpt lat="47.506363" lon="7.959196">
        <ele>511.959415</ele>
        <time>2021-11-20T18:04:17.017Z</time>
      </trkpt>
      <trkpt lat="47.506641" lon="7.959810">
        <ele>508.344842</ele>
        <time>2021-11-20T18:04:21.403Z</time>
      </trkpt>
      <trkpt lat="47.506874" lon="7.960127">
        <ele>506.134791</ele>
        <time>2021-11-20T18:04:24.265Z</time>
      </trkpt>
      <trkpt lat="47.507319" lon="7.960495">
        <ele>502.574970</ele>
        <time>2021-11-20T18:04:28.893Z</time>
      </trkpt>
      <trkpt lat="47.509248" lon="7.961556">
        <ele>487.547940</ele>
        <time>2021-11-20T18:04:47.410Z</time>
      </trkpt>
      <trkpt lat="47.509385" lon="7.961632">
        <ele>486.443421</ele>
        <time>2021-11-20T18:04:48.690Z</time>
      </trkpt>
      <trkpt lat="47.509788" lon="7.961854">
        <ele>483.197150</ele>
        <time>2021-11-20T18:04:52.452Z</time>
      </trkpt>
      <trkpt lat="47.510127" lon="7.962072">
        <ele>480.138072</ele>
        <time>2021-11-20T18:04:55.697Z</time>
      </trkpt>
      <trkpt lat="47.510301" lon="7.962209">
        <ele>478.477062</ele>
        <time>2021-11-20T18:04:57.408Z</time>
      </trkpt>
      <trkpt lat="47.510406" lon="7.962296">
        <ele>477.462927</ele>
        <time>2021-11-20T18:04:58.479Z</time>
      </trkpt>
      <trkpt lat="47.510552" lon="7.962453">
        <ele>475.942059</ele>
        <time>2021-11-20T18:05:00.069Z</time>
      </trkpt>
      <trkpt lat="47.510679" lon="7.962576">
        <ele>474.662981</ele>
        <time>2021-11-20T18:05:01.370Z</time>
      </trkpt>
      <trkpt lat="47.510706" lon="7.962606">
        <ele>474.378459</ele>
        <time>2021-11-20T18:05:01.670Z</time>
      </trkpt>
      <trkpt lat="47.510909" lon="7.962826">
        <ele>472.258112</ele>
        <time>2021-11-20T18:05:03.845Z</time>
      </trkpt>
      <trkpt lat="47.511697" lon="7.963783">
        <ele>464.958579</ele>
        <time>2021-11-20T18:05:12.917Z</time>
      </trkpt>
      <trkpt lat="47.511807" lon="7.963896">
        <ele>464.204660</ele>
        <time>2021-11-20T18:05:14.112Z</time>
      </trkpt>
      <trkpt lat="47.511885" lon="7.963977">
        <ele>463.668163</ele>
        <time>2021-11-20T18:05:15.009Z</time>
      </trkpt>
      <trkpt lat="47.512076" lon="7.964120">
        <ele>462.462931</ele>
        <time>2021-11-20T18:05:16.942Z</time>
      </trkpt>
      <trkpt lat="47.512806" lon="7.964495">
        <ele>458.111853</ele>
        <time>2021-11-20T18:05:24.285Z</time>
      </trkpt>
      <trkpt lat="47.513069" lon="7.964710">
        <ele>457.458617</ele>
        <time>2021-11-20T18:05:27.268Z</time>
      </trkpt>
      <trkpt lat="47.513387" lon="7.965176">
        <ele>457.534177</ele>
        <time>2021-11-20T18:05:32.249Z</time>
      </trkpt>
      <trkpt lat="47.513439" lon="7.965284">
        <ele>457.549306</ele>
        <time>2021-11-20T18:05:33.215Z</time>
      </trkpt>
      <trkpt lat="47.513496" lon="7.965435">
        <ele>457.569037</ele>
        <time>2021-11-20T18:05:34.978Z</time>
      </trkpt>
      <trkpt lat="47.513552" lon="7.965694">
        <ele>457.600056</ele>
        <time>2021-11-20T18:05:38.339Z</time>
      </trkpt>
      <trkpt lat="47.513574" lon="7.965795">
        <ele>457.612160</ele>
        <time>2021-11-20T18:05:39.373Z</time>
      </trkpt>
      <trkpt lat="47.513607" lon="7.966067">
        <ele>457.643682</ele>
        <time>2021-11-20T18:05:43.924Z</time>
      </trkpt>
      <trkpt lat="47.513677" lon="7.966493">
        <ele>457.693690</ele>
        <time>2021-11-20T18:05:50.321Z</time>
      </trkpt>
      <trkpt lat="47.513719" lon="7.966609">
        <ele>457.708702</ele>
        <time>2021-11-20T18:05:53.223Z</time>
      </trkpt>
      <trkpt lat="47.513963" lon="7.966968">
        <ele>458.979580</ele>
        <time>2021-11-20T18:06:03.496Z</time>
      </trkpt>
      <trkpt lat="47.514175" lon="7.967361">
        <ele>461.044077</ele>
        <time>2021-11-20T18:06:14.396Z</time>
      </trkpt>
      <trkpt lat="47.514265" lon="7.967596">
        <ele>462.152952</ele>
        <time>2021-11-20T18:06:22.646Z</time>
      </trkpt>
      <trkpt lat="47.514175" lon="7.967704">
        <ele>462.856997</ele>
        <time>2021-11-20T18:06:27.476Z</time>
      </trkpt>
      <trkpt lat="47.514050" lon="7.967928">
        <ele>464.049670</ele>
        <time>2021-11-20T18:06:37.213Z</time>
      </trkpt>
      <trkpt lat="47.513954" lon="7.968241">
        <ele>465.460696</ele>
        <time>2021-11-20T18:06:46.568Z</time>
      </trkpt>
      <trkpt lat="47.513956" lon="7.968306">
        <ele>465.727777</ele>
        <time>2021-11-20T18:06:49.264Z</time>
      </trkpt>
      <trkpt lat="47.514063" lon="7.968503">
        <ele>466.765428</ele>
        <time>2021-11-20T18:06:57.880Z</time>
      </trkpt>
      <trkpt lat="47.514192" lon="7.968881">
        <ele>468.503806</ele>
        <time>2021-11-20T18:07:12.693Z</time>
      </trkpt>
      <trkpt lat="47.514252" lon="7.969247">
        <ele>471.307335</ele>
        <time>2021-11-20T18:07:24.732Z</time>
      </trkpt>
      <trkpt lat="47.514251" lon="7.969369">
        <ele>472.262323</ele>
        <time>2021-11-20T18:07:30.218Z</time>
      </trkpt>
      <trkpt lat="47.514175" lon="7.969716">
        <ele>475.117598</ele>
        <time>2021-11-20T18:07:44.694Z</time>
      </trkpt>
      <trkpt lat="47.514100" lon="7.970085">
        <ele>478.133786</ele>
        <time>2021-11-20T18:08:01.495Z</time>
      </trkpt>
      <trkpt lat="47.514096" lon="7.970598">
        <ele>482.149418</ele>
        <time>2021-11-20T18:08:26.295Z</time>
      </trkpt>
      <trkpt lat="47.514085" lon="7.970901">
        <ele>484.524490</ele>
        <time>2021-11-20T18:08:41.613Z</time>
      </trkpt>
      <trkpt lat="47.514065" lon="7.971024">
        <ele>485.514745</ele>
        <time>2021-11-20T18:08:48.169Z</time>
      </trkpt>
      <trkpt lat="47.513918" lon="7.971521">
        <ele>489.826649</ele>
        <time>2021-11-20T18:09:16.363Z</time>
      </trkpt>
      <trkpt lat="47.513879" lon="7.971681">
        <ele>491.498977</ele>
        <time>2021-11-20T18:09:25.179Z</time>
      </trkpt>
      <trkpt lat="47.513840" lon="7.971891">
        <ele>493.640198</ele>
        <time>2021-11-20T18:09:36.815Z</time>
      </trkpt>
      <trkpt lat="47.513818" lon="7.972354">
        <ele>498.203394</ele>
        <time>2021-11-20T18:10:01.461Z</time>
      </trkpt>
      <trkpt lat="47.513785" lon="7.972598">
        <ele>500.649882</ele>
        <time>2021-11-20T18:10:14.805Z</time>
      </trkpt>
      <trkpt lat="47.513724" lon="7.972836">
        <ele>503.152571</ele>
        <time>2021-11-20T18:10:29.164Z</time>
      </trkpt>
      <trkpt lat="47.513109" lon="7.975074">
        <ele>524.660792</ele>
        <time>2021-11-20T18:12:37.119Z</time>
      </trkpt>
      <trkpt lat="47.512725" lon="7.975715">
        <ele>531.397956</ele>
        <time>2021-11-20T18:13:13.212Z</time>
      </trkpt>
      <trkpt lat="47.512616" lon="7.975859">
        <ele>533.098648</ele>
        <time>2021-11-20T18:13:22.133Z</time>
      </trkpt>
      <trkpt lat="47.512412" lon="7.976165">
        <ele>536.479447</ele>
        <time>2021-11-20T18:13:38.226Z</time>
      </trkpt>
      <trkpt lat="47.512200" lon="7.976779">
        <ele>539.098591</ele>
        <time>2021-11-20T18:14:01.607Z</time>
      </trkpt>
      <trkpt lat="47.512118" lon="7.977012">
        <ele>540.066402</ele>
        <time>2021-11-20T18:14:10.168Z</time>
      </trkpt>
      <trkpt lat="47.511857" lon="7.977310">
        <ele>541.863947</ele>
        <time>2021-11-20T18:14:24.950Z</time>
      </trkpt>
      <trkpt lat="47.511169" lon="7.978482">
        <ele>546.452006</ele>
        <time>2021-11-20T18:15:01.174Z</time>
      </trkpt>
      <trkpt lat="47.511094" lon="7.978570">
        <ele>546.458639</ele>
        <time>2021-11-20T18:15:04.446Z</time>
      </trkpt>
      <trkpt lat="47.511058" lon="7.978612">
        <ele>546.461816</ele>
        <time>2021-11-20T18:15:05.636Z</time>
      </trkpt>
      <trkpt lat="47.510754" lon="7.979067">
        <ele>546.491779</ele>
        <time>2021-11-20T18:15:14.668Z</time>
      </trkpt>
      <trkpt lat="47.510721" lon="7.979135">
        <ele>546.495699</ele>
        <time>2021-11-20T18:15:15.449Z</time>
      </trkpt>
      <trkpt lat="47.510628" lon="7.979350">
        <ele>546.507652</ele>
        <time>2021-11-20T18:15:19.358Z</time>
      </trkpt>
      <trkpt lat="47.510553" lon="7.979575">
        <ele>546.519399</ele>
        <time>2021-11-20T18:15:22.327Z</time>
      </trkpt>
      <trkpt lat="47.510427" lon="7.979928">
        <ele>546.538092</ele>
        <time>2021-11-20T18:15:27.688Z</time>
      </trkpt>
      <trkpt lat="47.510411" lon="7.979962">
        <ele>546.540032</ele>
        <time>2021-11-20T18:15:28.198Z</time>
      </trkpt>
      <trkpt lat="47.510389" lon="7.979980">
        <ele>546.541774</ele>
        <time>2021-11-20T18:15:28.663Z</time>
      </trkpt>
      <trkpt lat="47.510337" lon="7.979978">
        <ele>546.545380</ele>
        <time>2021-11-20T18:15:29.352Z</time>
      </trkpt>
      <trkpt lat="47.509027" lon="7.978788">
        <ele>542.011979</ele>
        <time>2021-11-20T18:15:52.756Z</time>
      </trkpt>
      <trkpt lat="47.508948" lon="7.978799">
        <ele>541.733315</ele>
        <time>2021-11-20T18:15:53.805Z</time>
      </trkpt>
      <trkpt lat="47.508881" lon="7.978903">
        <ele>541.392391</ele>
        <time>2021-11-20T18:15:55.125Z</time>
      </trkpt>
      <trkpt lat="47.508750" lon="7.979260">
        <ele>540.428623</ele>
        <time>2021-11-20T18:15:58.726Z</time>
      </trkpt>
      <trkpt lat="47.508546" lon="7.979750">
        <ele>537.500606</ele>
        <time>2021-11-20T18:16:03.758Z</time>
      </trkpt>
      <trkpt lat="47.508298" lon="7.980362">
        <ele>533.570005</ele>
        <time>2021-11-20T18:16:09.904Z</time>
      </trkpt>
      <trkpt lat="47.508160" lon="7.980614">
        <ele>531.783310</ele>
        <time>2021-11-20T18:16:12.606Z</time>
      </trkpt>
      <trkpt lat="47.507123" lon="7.982752">
        <ele>516.341046</ele>
        <time>2021-11-20T18:16:34.419Z</time>
      </trkpt>
      <trkpt lat="47.507055" lon="7.982858">
        <ele>515.444090</ele>
        <time>2021-11-20T18:16:35.652Z</time>
      </trkpt>
      <trkpt lat="47.507011" lon="7.982902">
        <ele>514.961782</ele>
        <time>2021-11-20T18:16:36.291Z</time>
      </trkpt>
      <trkpt lat="47.506875" lon="7.982899">
        <ele>513.726306</ele>
        <time>2021-11-20T18:16:38.005Z</time>
      </trkpt>
      <trkpt lat="47.506692" lon="7.982561">
        <ele>511.068447</ele>
        <time>2021-11-20T18:16:41.651Z</time>
      </trkpt>
      <trkpt lat="47.506233" lon="7.982148">
        <ele>506.320699</ele>
        <time>2021-11-20T18:16:48.398Z</time>
      </trkpt>
      <trkpt lat="47.505601" lon="7.981812">
        <ele>500.483223</ele>
        <time>2021-11-20T18:16:56.790Z</time>
      </trkpt>
      <trkpt lat="47.505399" lon="7.981833">
        <ele>498.722930</ele>
        <time>2021-11-20T18:16:59.335Z</time>
      </trkpt>
      <trkpt lat="47.505275" lon="7.981948">
        <ele>497.450941</ele>
        <time>2021-11-20T18:17:01.161Z</time>
      </trkpt>
      <trkpt lat="47.505164" lon="7.982187">
        <ele>495.747770</ele>
        <time>2021-11-20T18:17:03.584Z</time>
      </trkpt>
      <trkpt lat="47.505153" lon="7.982527">
        <ele>493.748910</ele>
        <time>2021-11-20T18:17:06.417Z</time>
      </trkpt>
      <trkpt lat="47.505235" lon="7.983158">
        <ele>489.120715</ele>
        <time>2021-11-20T18:17:11.699Z</time>
      </trkpt>
      <trkpt lat="47.505169" lon="7.983598">
        <ele>485.850959</ele>
        <time>2021-11-20T18:17:15.364Z</time>
      </trkpt>
      <trkpt lat="47.505014" lon="7.983996">
        <ele>482.518176</ele>
        <time>2021-11-20T18:17:19.096Z</time>
      </trkpt>
      <trkpt lat="47.504558" lon="7.985032">
        <ele>473.549995</ele>
        <time>2021-11-20T18:17:29.178Z</time>
      </trkpt>
      <trkpt lat="47.504408" lon="7.985264">
        <ele>471.227269</ele>
        <time>2021-11-20T18:17:31.772Z</time>
      </trkpt>
      <trkpt lat="47.503784" lon="7.986110">
        <ele>462.167517</ele>
        <time>2021-11-20T18:17:41.984Z</time>
      </trkpt>
      <trkpt lat="47.502975" lon="7.987226">
        <ele>450.803120</ele>
        <time>2021-11-20T18:17:55.448Z</time>
      </trkpt>
      <trkpt lat="47.502461" lon="7.987886">
        <ele>444.254044</ele>
        <time>2021-11-20T18:18:03.780Z</time>
      </trkpt>
      <trkpt lat="47.501201" lon="7.989503">
        <ele>429.171594</ele>
        <time>2021-11-20T18:18:24.381Z</time>
      </trkpt>
      <trkpt lat="47.498444" lon="7.993225">
        <ele>399.214217</ele>
        <time>2021-11-20T18:19:11.232Z</time>
      </trkpt>
      <trkpt lat="47.498171" lon="7.993563">
        <ele>396.537873</ele>
        <time>2021-11-20T18:19:15.774Z</time>
      </trkpt>
      <trkpt lat="47.497169" lon="7.994210">
        <ele>390.365336</ele>
        <time>2021-11-20T18:19:30.056Z</time>
      </trkpt>
      <trkpt lat="47.495891" lon="7.995038">
        <ele>384.239344</ele>
        <time>2021-11-20T18:19:49.759Z</time>
      </trkpt>
      <trkpt lat="47.495297" lon="7.995227">
        <ele>382.381347</ele>
        <time>2021-11-20T18:19:58.727Z</time>
      </trkpt>
      <trkpt lat="47.494770" lon="7.995288">
        <ele>380.764821</ele>
        <time>2021-11-20T18:20:06.466Z</time>
      </trkpt>
      <trkpt lat="47.494663" lon="7.995312">
        <ele>380.433870</ele>
        <time>2021-11-20T18:20:08.117Z</time>
      </trkpt>
      <trkpt lat="47.494655" lon="7.995343">
        <ele>380.365305</ele>
        <time>2021-11-20T18:20:08.368Z</time>
      </trkpt>
      <trkpt lat="47.494627" lon="7.995447">
        <ele>380.133987</ele>
        <time>2021-11-20T18:20:09.152Z</time>
      </trkpt>
      <trkpt lat="47.494368" lon="7.995845">
        <ele>379.405089</ele>
        <time>2021-11-20T18:20:13.203Z</time>
      </trkpt>
      <trkpt lat="47.494293" lon="7.995952">
        <ele>379.236270</ele>
        <time>2021-11-20T18:20:14.351Z</time>
      </trkpt>
      <trkpt lat="47.494203" lon="7.996025">
        <ele>379.069950</ele>
        <time>2021-11-20T18:20:15.443Z</time>
      </trkpt>
      <trkpt lat="47.493967" lon="7.996177">
        <ele>378.652847</ele>
        <time>2021-11-20T18:20:18.360Z</time>
      </trkpt>
      <trkpt lat="47.493868" lon="7.996295">
        <ele>378.446849</ele>
        <time>2021-11-20T18:20:19.762Z</time>
      </trkpt>
      <trkpt lat="47.493757" lon="7.996428">
        <ele>378.215403</ele>
        <time>2021-11-20T18:20:21.422Z</time>
      </trkpt>
      <trkpt lat="47.493684" lon="7.996562">
        <ele>378.026923</ele>
        <time>2021-11-20T18:20:22.714Z</time>
      </trkpt>
      <trkpt lat="47.493652" lon="7.996488">
        <ele>377.930720</ele>
        <time>2021-11-20T18:20:23.382Z</time>
      </trkpt>
      <trkpt lat="47.493567" lon="7.996156">
        <ele>377.541962</ele>
        <time>2021-11-20T18:20:26.173Z</time>
      </trkpt>
      <trkpt lat="47.493524" lon="7.995985">
        <ele>377.342172</ele>
        <time>2021-11-20T18:20:27.556Z</time>
      </trkpt>
      <trkpt lat="47.493430" lon="7.995894">
        <ele>377.160142</ele>
        <time>2021-11-20T18:20:29.005Z</time>
      </trkpt>
      <trkpt lat="47.492867" lon="7.995700">
        <ele>377.108135</ele>
        <time>2021-11-20T18:20:36.601Z</time>
      </trkpt>
      <trkpt lat="47.492390" lon="7.995213">
        <ele>377.303646</ele>
        <time>2021-11-20T18:20:46.539Z</time>
      </trkpt>
      <trkpt lat="47.492344" lon="7.995171">
        <ele>377.321882</ele>
        <time>2021-11-20T18:20:47.550Z</time>
      </trkpt>
      <trkpt lat="47.492271" lon="7.995104">
        <ele>377.350863</ele>
        <time>2021-11-20T18:20:49.165Z</time>
      </trkpt>
      <trkpt lat="47.492156" lon="7.994971">
        <ele>377.400104</ele>
        <time>2021-11-20T18:20:51.694Z</time>
      </trkpt>
      <trkpt lat="47.491996" lon="7.994807">
        <ele>377.465768</ele>
        <time>2021-11-20T18:20:56.374Z</time>
      </trkpt>
      <trkpt lat="47.491759" lon="7.994592">
        <ele>377.559555</ele>
        <time>2021-11-20T18:21:02.869Z</time>
      </trkpt>
      <trkpt lat="47.491577" lon="7.994479">
        <ele>377.788534</ele>
        <time>2021-11-20T18:21:07.626Z</time>
      </trkpt>
      <trkpt lat="47.491370" lon="7.994298">
        <ele>378.076660</ele>
        <time>2021-11-20T18:21:13.556Z</time>
      </trkpt>
      <trkpt lat="47.490495" lon="7.993473">
        <ele>379.319964</ele>
        <time>2021-11-20T18:21:39.786Z</time>
      </trkpt>
      <trkpt lat="47.489739" lon="7.992457">
        <ele>380.621913</ele>
        <time>2021-11-20T18:22:05.735Z</time>
      </trkpt>
      <trkpt lat="47.489640" lon="7.992334">
        <ele>380.791481</ele>
        <time>2021-11-20T18:22:09.003Z</time>
      </trkpt>
      <trkpt lat="47.489544" lon="7.992214">
        <ele>380.956325</ele>
        <time>2021-11-20T18:22:12.317Z</time>
      </trkpt>
      <trkpt lat="47.489090" lon="7.991643">
        <ele>381.737910</ele>
        <time>2021-11-20T18:22:27.342Z</time>
      </trkpt>
      <trkpt lat="47.488771" lon="7.991233">
        <ele>382.338021</ele>
        <time>2021-11-20T18:22:38.104Z</time>
      </trkpt>
      <trkpt lat="47.488698" lon="7.991149">
        <ele>382.485228</ele>
        <time>2021-11-20T18:22:40.587Z</time>
      </trkpt>
      <trkpt lat="47.487359" lon="7.989771">
        <ele>385.082223</ele>
        <time>2021-11-20T18:23:24.199Z</time>
      </trkpt>
      <trkpt lat="47.487298" lon="7.989709">
        <ele>385.200554</ele>
        <time>2021-11-20T18:23:26.510Z</time>
      </trkpt>
      <trkpt lat="47.487127" lon="7.989547">
        <ele>385.525220</ele>
        <time>2021-11-20T18:23:31.670Z</time>
      </trkpt>
      <trkpt lat="47.486511" lon="7.989012">
        <ele>386.667334</ele>
        <time>2021-11-20T18:23:50.878Z</time>
      </trkpt>
      <trkpt lat="47.486162" lon="7.988596">
        <ele>387.383921</ele>
        <time>2021-11-20T18:24:02.806Z</time>
      </trkpt>
      <trkpt lat="47.485848" lon="7.988106">
        <ele>388.113457</ele>
        <time>2021-11-20T18:24:14.959Z</time>
      </trkpt>
      <trkpt lat="47.485496" lon="7.987549">
        <ele>388.937087</ele>
        <time>2021-11-20T18:24:27.887Z</time>
      </trkpt>
      <trkpt lat="47.484679" lon="7.986270">
        <ele>390.881186</ele>
        <time>2021-11-20T18:25:00.022Z</time>
      </trkpt>
      <trkpt lat="47.484546" lon="7.985963">
        <ele>391.391438</ele>
        <time>2021-11-20T18:25:06.601Z</time>
      </trkpt>
      <trkpt lat="47.484451" lon="7.985647">
        <ele>391.875372</ele>
        <time>2021-11-20T18:25:13.636Z</time>
      </trkpt>
      <trkpt lat="47.484583" lon="7.985536">
        <ele>392.189727</ele>
        <time>2021-11-20T18:25:17.647Z</time>
      </trkpt>
      <trkpt lat="47.484655" lon="7.985405">
        <ele>392.425994</ele>
        <time>2021-11-20T18:25:21.054Z</time>
      </trkpt>
      <trkpt lat="47.484722" lon="7.985147">
        <ele>392.812731</ele>
        <time>2021-11-20T18:25:26.432Z</time>
      </trkpt>
      <trkpt lat="47.484873" lon="7.984557">
        <ele>393.695490</ele>
        <time>2021-11-20T18:25:38.661Z</time>
      </trkpt>
      <trkpt lat="47.484873" lon="7.984557">
        <ele>393.695490</ele>
        <time>2021-11-20T18:25:38.820Z</time>
      </trkpt>
      <trkpt lat="47.484805" lon="7.984493">
        <ele>393.862350</ele>
        <time>2021-11-20T18:25:40.661Z</time>
      </trkpt>
      <trkpt lat="47.484576" lon="7.984269">
        <ele>394.431624</ele>
        <time>2021-11-20T18:25:48.560Z</time>
      </trkpt>
      <trkpt lat="47.484503" lon="7.984189">
        <ele>394.630819</ele>
        <time>2021-11-20T18:25:51.293Z</time>
      </trkpt>
      <trkpt lat="47.484416" lon="7.984084">
        <ele>394.877000</ele>
        <time>2021-11-20T18:25:54.851Z</time>
      </trkpt>
      <trkpt lat="47.484093" lon="7.983526">
        <ele>395.965765</ele>
        <time>2021-11-20T18:26:08.961Z</time>
      </trkpt>
      <trkpt lat="47.483684" lon="7.982650">
        <ele>397.543590</ele>
        <time>2021-11-20T18:26:30.271Z</time>
      </trkpt>
      <trkpt lat="47.483271" lon="7.981947">
        <ele>398.759323</ele>
        <time>2021-11-20T18:26:48.122Z</time>
      </trkpt>
      <trkpt lat="47.483215" lon="7.981778">
        <ele>398.956875</ele>
        <time>2021-11-20T18:26:51.611Z</time>
      </trkpt>
      <trkpt lat="47.483163" lon="7.981476">
        <ele>399.283972</ele>
        <time>2021-11-20T18:26:57.269Z</time>
      </trkpt>
      <trkpt lat="47.483098" lon="7.981098">
        <ele>399.693352</ele>
        <time>2021-11-20T18:27:04.146Z</time>
      </trkpt>
      <trkpt lat="47.483044" lon="7.980941">
        <ele>399.878249</ele>
        <time>2021-11-20T18:27:07.311Z</time>
      </trkpt>
      <trkpt lat="47.482783" lon="7.980278">
        <ele>400.683570</ele>
        <time>2021-11-20T18:27:20.593Z</time>
      </trkpt>
      <trkpt lat="47.482652" lon="7.979991">
        <ele>401.047069</ele>
        <time>2021-11-20T18:27:26.709Z</time>
      </trkpt>
      <trkpt lat="47.482390" lon="7.979412">
        <ele>401.576152</ele>
        <time>2021-11-20T18:27:38.518Z</time>
      </trkpt>
      <trkpt lat="47.482365" lon="7.979348">
        <ele>401.628646</ele>
        <time>2021-11-20T18:27:39.691Z</time>
      </trkpt>
      <trkpt lat="47.482313" lon="7.979212">
        <ele>401.739610</ele>
        <time>2021-11-20T18:27:42.368Z</time>
      </trkpt>
      <trkpt lat="47.482213" lon="7.978952">
        <ele>401.952050</ele>
        <time>2021-11-20T18:27:47.130Z</time>
      </trkpt>
      <trkpt lat="47.481951" lon="7.978276">
        <ele>402.505440</ele>
        <time>2021-11-20T18:27:59.499Z</time>
      </trkpt>
      <trkpt lat="47.481746" lon="7.977834">
        <ele>402.886126</ele>
        <time>2021-11-20T18:28:08.047Z</time>
      </trkpt>
      <trkpt lat="47.481581" lon="7.977481">
        <ele>403.303695</ele>
        <time>2021-11-20T18:28:15.146Z</time>
      </trkpt>
      <trkpt lat="47.481502" lon="7.977310">
        <ele>403.562914</ele>
        <time>2021-11-20T18:28:18.785Z</time>
      </trkpt>
      <trkpt lat="47.481386" lon="7.977048">
        <ele>403.954889</ele>
        <time>2021-11-20T18:28:24.005Z</time>
      </trkpt>
      <trkpt lat="47.481273" lon="7.976833">
        <ele>404.295739</ele>
        <time>2021-11-20T18:28:29.327Z</time>
      </trkpt>
      <trkpt lat="47.481229" lon="7.976752">
        <ele>404.425792</ele>
        <time>2021-11-20T18:28:31.031Z</time>
      </trkpt>
      <trkpt lat="47.481197" lon="7.976691">
        <ele>404.522429</ele>
        <time>2021-11-20T18:28:32.457Z</time>
      </trkpt>
      <trkpt lat="47.480897" lon="7.976328">
        <ele>405.240044</ele>
        <time>2021-11-20T18:28:43.500Z</time>
      </trkpt>
      <trkpt lat="47.480855" lon="7.976234">
        <ele>405.381066</ele>
        <time>2021-11-20T18:28:46.038Z</time>
      </trkpt>
      <trkpt lat="47.480771" lon="7.976044">
        <ele>405.665201</ele>
        <time>2021-11-20T18:28:50.234Z</time>
      </trkpt>
      <trkpt lat="47.480690" lon="7.975603">
        <ele>406.237117</ele>
        <time>2021-11-20T18:28:59.750Z</time>
      </trkpt>
      <trkpt lat="47.480667" lon="7.975614">
        <ele>406.281877</ele>
        <time>2021-11-20T18:29:00.309Z</time>
      </trkpt>
      <trkpt lat="47.480598" lon="7.975631">
        <ele>406.441744</ele>
        <time>2021-11-20T18:29:01.992Z</time>
      </trkpt>
      <trkpt lat="47.480480" lon="7.975668">
        <ele>406.844208</ele>
        <time>2021-11-20T18:29:06.061Z</time>
      </trkpt>
      <trkpt lat="47.480410" lon="7.975696">
        <ele>407.086155</ele>
        <time>2021-11-20T18:29:08.505Z</time>
      </trkpt>
      <trkpt lat="47.480206" lon="7.975838">
        <ele>407.838383</ele>
        <time>2021-11-20T18:29:14.516Z</time>
      </trkpt>
      <trkpt lat="47.480162" lon="7.975890">
        <ele>408.026276</ele>
        <time>2021-11-20T18:29:16.511Z</time>
      </trkpt>
      <trkpt lat="47.480019" lon="7.976061">
        <ele>408.639753</ele>
        <time>2021-11-20T18:29:22.180Z</time>
      </trkpt>
      <trkpt lat="47.479744" lon="7.975611">
        <ele>410.007851</ele>
        <time>2021-11-20T18:29:33.169Z</time>
      </trkpt>
      <trkpt lat="47.479662" lon="7.975458">
        <ele>410.448191</ele>
        <time>2021-11-20T18:29:37.327Z</time>
      </trkpt>
      <trkpt lat="47.479650" lon="7.975428">
        <ele>410.526803</ele>
        <time>2021-11-20T18:29:38.095Z</time>
      </trkpt>
      <trkpt lat="47.479548" lon="7.975187">
        <ele>411.168041</ele>
        <time>2021-11-20T18:29:43.755Z</time>
      </trkpt>
      <trkpt lat="47.479521" lon="7.975122">
        <ele>411.340091</ele>
        <time>2021-11-20T18:29:45.356Z</time>
      </trkpt>
      <trkpt lat="47.479256" lon="7.974388">
        <ele>413.484376</ele>
        <time>2021-11-20T18:30:04.080Z</time>
      </trkpt>
      <trkpt lat="47.479198" lon="7.974266">
        <ele>413.927718</ele>
        <time>2021-11-20T18:30:07.787Z</time>
      </trkpt>
      <trkpt lat="47.479172" lon="7.974215">
        <ele>414.117592</ele>
        <time>2021-11-20T18:30:09.561Z</time>
      </trkpt>
      <trkpt lat="47.479095" lon="7.974066">
        <ele>414.675089</ele>
        <time>2021-11-20T18:30:13.839Z</time>
      </trkpt>
      <trkpt lat="47.479061" lon="7.974014">
        <ele>414.890137</ele>
        <time>2021-11-20T18:30:15.038Z</time>
      </trkpt>
      <trkpt lat="47.478952" lon="7.973850">
        <ele>415.573801</ele>
        <time>2021-11-20T18:30:20.115Z</time>
      </trkpt>
      <trkpt lat="47.478606" lon="7.973396">
        <ele>417.607590</ele>
        <time>2021-11-20T18:30:35.878Z</time>
      </trkpt>
      <trkpt lat="47.478494" lon="7.973191">
        <ele>418.391096</ele>
        <time>2021-11-20T18:30:40.754Z</time>
      </trkpt>
      <trkpt lat="47.478424" lon="7.973015">
        <ele>418.998080</ele>
        <time>2021-11-20T18:30:46.357Z</time>
      </trkpt>
      <trkpt lat="47.478295" lon="7.972689">
        <ele>420.120915</ele>
        <time>2021-11-20T18:30:53.701Z</time>
      </trkpt>
      <trkpt lat="47.478213" lon="7.972508">
        <ele>420.561878</ele>
        <time>2021-11-20T18:30:58.969Z</time>
      </trkpt>
      <trkpt lat="47.478198" lon="7.972475">
        <ele>420.629560</ele>
        <time>2021-11-20T18:30:59.763Z</time>
      </trkpt>
      <trkpt lat="47.478083" lon="7.972275">
        <ele>421.076449</ele>
        <time>2021-11-20T18:31:04.071Z</time>
      </trkpt>
      <trkpt lat="47.477778" lon="7.971876">
        <ele>422.101604</ele>
        <time>2021-11-20T18:31:16.176Z</time>
      </trkpt>
      <trkpt lat="47.477698" lon="7.971759">
        <ele>422.384852</ele>
        <time>2021-11-20T18:31:19.671Z</time>
      </trkpt>
      <trkpt lat="47.477623" lon="7.971640">
        <ele>422.661767</ele>
        <time>2021-11-20T18:31:21.919Z</time>
      </trkpt>
      <trkpt lat="47.477553" lon="7.971461">
        <ele>423.013725</ele>
        <time>2021-11-20T18:31:25.579Z</time>
      </trkpt>
      <trkpt lat="47.477522" lon="7.971381">
        <ele>423.170666</ele>
        <time>2021-11-20T18:31:27.568Z</time>
      </trkpt>
      <trkpt lat="47.477370" lon="7.970827">
        <ele>424.188244</ele>
        <time>2021-11-20T18:31:35.949Z</time>
      </trkpt>
      <trkpt lat="47.477322" lon="7.970682">
        <ele>424.463029</ele>
        <time>2021-11-20T18:31:38.072Z</time>
      </trkpt>
      <trkpt lat="47.477284" lon="7.970600">
        <ele>424.632239</ele>
        <time>2021-11-20T18:31:39.010Z</time>
      </trkpt>
      <trkpt lat="47.477262" lon="7.970548">
        <ele>424.736646</ele>
        <time>2021-11-20T18:31:39.805Z</time>
      </trkpt>
      <trkpt lat="47.477203" lon="7.970445">
        <ele>424.865623</ele>
        <time>2021-11-20T18:31:41.618Z</time>
      </trkpt>
      <trkpt lat="47.477135" lon="7.970342">
        <ele>424.948561</ele>
        <time>2021-11-20T18:31:43.309Z</time>
      </trkpt>
      <trkpt lat="47.477029" lon="7.970212">
        <ele>425.065901</ele>
        <time>2021-11-20T18:31:45.071Z</time>
      </trkpt>
      <trkpt lat="47.476944" lon="7.970103">
        <ele>425.161766</ele>
        <time>2021-11-20T18:31:46.974Z</time>
      </trkpt>
      <trkpt lat="47.476670" lon="7.969631">
        <ele>425.520168</ele>
        <time>2021-11-20T18:31:52.703Z</time>
      </trkpt>
      <trkpt lat="47.476396" lon="7.969182">
        <ele>425.868629</ele>
        <time>2021-11-20T18:31:59.944Z</time>
      </trkpt>
      <trkpt lat="47.476327" lon="7.969094">
        <ele>425.946267</ele>
        <time>2021-11-20T18:32:01.497Z</time>
      </trkpt>
      <trkpt lat="47.476103" lon="7.968806">
        <ele>426.199184</ele>
        <time>2021-11-20T18:32:07.395Z</time>
      </trkpt>
      <trkpt lat="47.475871" lon="7.968576">
        <ele>426.797532</ele>
        <time>2021-11-20T18:32:14.033Z</time>
      </trkpt>
      <trkpt lat="47.475729" lon="7.968403">
        <ele>427.580304</ele>
        <time>2021-11-20T18:32:18.267Z</time>
      </trkpt>
      <trkpt lat="47.475684" lon="7.968334">
        <ele>427.856087</ele>
        <time>2021-11-20T18:32:19.721Z</time>
      </trkpt>
      <trkpt lat="47.475616" lon="7.968229">
        <ele>428.274346</ele>
        <time>2021-11-20T18:32:21.918Z</time>
      </trkpt>
      <trkpt lat="47.475312" lon="7.968548">
        <ele>429.860334</ele>
        <time>2021-11-20T18:32:32.040Z</time>
      </trkpt>
      <trkpt lat="47.474879" lon="7.968783">
        <ele>431.822986</ele>
        <time>2021-11-20T18:32:46.797Z</time>
      </trkpt>
      <trkpt lat="47.474555" lon="7.968862">
        <ele>433.220335</ele>
        <time>2021-11-20T18:32:59.700Z</time>
      </trkpt>
      <trkpt lat="47.474238" lon="7.968922">
        <ele>435.042912</ele>
        <time>2021-11-20T18:33:14.001Z</time>
      </trkpt>
      <trkpt lat="47.473628" lon="7.969058">
        <ele>439.764049</ele>
        <time>2021-11-20T18:33:44.111Z</time>
      </trkpt>
      <trkpt lat="47.472626" lon="7.969301">
        <ele>447.534860</ele>
        <time>2021-11-20T18:34:32.788Z</time>
      </trkpt>
      <trkpt lat="47.471877" lon="7.969497">
        <ele>449.897546</ele>
        <time>2021-11-20T18:35:00.791Z</time>
      </trkpt>
      <trkpt lat="47.471196" lon="7.969654">
        <ele>451.908730</ele>
        <time>2021-11-20T18:35:18.322Z</time>
      </trkpt>
      <trkpt lat="47.469542" lon="7.970235">
        <ele>450.380202</ele>
        <time>2021-11-20T18:35:36.647Z</time>
      </trkpt>
      <trkpt lat="47.469339" lon="7.970255">
        <ele>449.974440</ele>
        <time>2021-11-20T18:35:38.665Z</time>
      </trkpt>
      <trkpt lat="47.469022" lon="7.970240">
        <ele>449.417102</ele>
        <time>2021-11-20T18:35:41.998Z</time>
      </trkpt>
      <trkpt lat="47.468142" lon="7.970113">
        <ele>449.202688</ele>
        <time>2021-11-20T18:35:53.085Z</time>
      </trkpt>
      <trkpt lat="47.467469" lon="7.970226">
        <ele>449.038437</ele>
        <time>2021-11-20T18:36:03.612Z</time>
      </trkpt>
      <trkpt lat="47.467356" lon="7.970255">
        <ele>449.010625</ele>
        <time>2021-11-20T18:36:06.976Z</time>
      </trkpt>
      <trkpt lat="47.467243" lon="7.970284">
        <ele>449.057946</ele>
        <time>2021-11-20T18:36:09.211Z</time>
      </trkpt>
      <trkpt lat="47.466575" lon="7.970455">
        <ele>450.342011</ele>
        <time>2021-11-20T18:36:24.756Z</time>
      </trkpt>
      <trkpt lat="47.466209" lon="7.970465">
        <ele>451.035371</ele>
        <time>2021-11-20T18:36:33.433Z</time>
      </trkpt>
      <trkpt lat="47.465838" lon="7.970388">
        <ele>451.744965</ele>
        <time>2021-11-20T18:36:42.552Z</time>
      </trkpt>
      <trkpt lat="47.465273" lon="7.970155">
        <ele>452.834871</ele>
        <time>2021-11-20T18:36:54.706Z</time>
      </trkpt>
      <trkpt lat="47.464851" lon="7.969824">
        <ele>453.697957</ele>
        <time>2021-11-20T18:37:05.569Z</time>
      </trkpt>
      <trkpt lat="47.463869" lon="7.968734">
        <ele>455.933354</ele>
        <time>2021-11-20T18:37:32.399Z</time>
      </trkpt>
      <trkpt lat="47.463713" lon="7.968547">
        <ele>456.319146</ele>
        <time>2021-11-20T18:37:37.098Z</time>
      </trkpt>
      <trkpt lat="47.463389" lon="7.968088">
        <ele>457.181108</ele>
        <time>2021-11-20T18:37:46.886Z</time>
      </trkpt>
      <trkpt lat="47.463153" lon="7.967669">
        <ele>457.889494</ele>
        <time>2021-11-20T18:37:55.100Z</time>
      </trkpt>
      <trkpt lat="47.462955" lon="7.967287">
        <ele>458.514737</ele>
        <time>2021-11-20T18:38:02.627Z</time>
      </trkpt>
      <trkpt lat="47.462416" lon="7.966027">
        <ele>460.561059</ele>
        <time>2021-11-20T18:38:26.089Z</time>
      </trkpt>
      <trkpt lat="47.462208" lon="7.965649">
        <ele>461.245599</ele>
        <time>2021-11-20T18:38:34.170Z</time>
      </trkpt>
      <trkpt lat="47.461753" lon="7.965074">
        <ele>462.488880</ele>
        <time>2021-11-20T18:38:48.078Z</time>
      </trkpt>
      <trkpt lat="47.461085" lon="7.964391">
        <ele>463.753060</ele>
        <time>2021-11-20T18:39:05.508Z</time>
      </trkpt>
      <trkpt lat="47.460768" lon="7.963901">
        <ele>464.403972</ele>
        <time>2021-11-20T18:39:14.976Z</time>
      </trkpt>
      <trkpt lat="47.460551" lon="7.963411">
        <ele>464.966176</ele>
        <time>2021-11-20T18:39:22.494Z</time>
      </trkpt>
      <trkpt lat="47.460489" lon="7.963238">
        <ele>465.154104</ele>
        <time>2021-11-20T18:39:24.691Z</time>
      </trkpt>
      <trkpt lat="47.460405" lon="7.962956">
        <ele>465.469526</ele>
        <time>2021-11-20T18:39:28.811Z</time>
      </trkpt>
      <trkpt lat="47.460083" lon="7.961991">
        <ele>466.865283</ele>
        <time>2021-11-20T18:39:43.437Z</time>
      </trkpt>
      <trkpt lat="47.459581" lon="7.961147">
        <ele>468.323286</ele>
        <time>2021-11-20T18:40:01.442Z</time>
      </trkpt>
      <trkpt lat="47.459416" lon="7.960954">
        <ele>468.726842</ele>
        <time>2021-11-20T18:40:06.695Z</time>
      </trkpt>
      <trkpt lat="47.459280" lon="7.960788">
        <ele>469.215858</ele>
        <time>2021-11-20T18:40:11.302Z</time>
      </trkpt>
      <trkpt lat="47.459074" lon="7.960615">
        <ele>469.980697</ele>
        <time>2021-11-20T18:40:17.360Z</time>
      </trkpt>
      <trkpt lat="47.458898" lon="7.960485">
        <ele>470.615861</ele>
        <time>2021-11-20T18:40:22.975Z</time>
      </trkpt>
      <trkpt lat="47.457199" lon="7.959536">
        <ele>476.599479</ele>
        <time>2021-11-20T18:41:14.748Z</time>
      </trkpt>
      <trkpt lat="47.456734" lon="7.959350">
        <ele>478.256830</ele>
        <time>2021-11-20T18:41:27.502Z</time>
      </trkpt>
      <trkpt lat="47.455967" lon="7.959329">
        <ele>480.919336</ele>
        <time>2021-11-20T18:41:49.725Z</time>
      </trkpt>
      <trkpt lat="47.455234" lon="7.959555">
        <ele>484.554904</ele>
        <time>2021-11-20T18:42:14.089Z</time>
      </trkpt>
      <trkpt lat="47.455065" lon="7.959595">
        <ele>485.385918</ele>
        <time>2021-11-20T18:42:19.677Z</time>
      </trkpt>
      <trkpt lat="47.454959" lon="7.959615">
        <ele>485.904768</ele>
        <time>2021-11-20T18:42:23.588Z</time>
      </trkpt>
      <trkpt lat="47.454626" lon="7.959663">
        <ele>487.529296</ele>
        <time>2021-11-20T18:42:35.398Z</time>
      </trkpt>
      <trkpt lat="47.453337" lon="7.959692">
        <ele>494.450714</ele>
        <time>2021-11-20T18:43:25.194Z</time>
      </trkpt>
      <trkpt lat="47.450176" lon="7.960171">
        <ele>510.306385</ele>
        <time>2021-11-20T18:45:20.210Z</time>
      </trkpt>
      <trkpt lat="47.449207" lon="7.960269">
        <ele>512.836758</ele>
        <time>2021-11-20T18:45:44.405Z</time>
      </trkpt>
      <trkpt lat="47.449168" lon="7.960272">
        <ele>512.938499</ele>
        <time>2021-11-20T18:45:44.794Z</time>
      </trkpt>
      <trkpt lat="47.448152" lon="7.960399">
        <ele>513.372176</ele>
        <time>2021-11-20T18:46:00.200Z</time>
      </trkpt>
      <trkpt lat="47.446978" lon="7.960776">
        <ele>512.709616</ele>
        <time>2021-11-20T18:46:13.945Z</time>
      </trkpt>
      <trkpt lat="47.446265" lon="7.961081">
        <ele>513.438608</ele>
        <time>2021-11-20T18:46:25.358Z</time>
      </trkpt>
      <trkpt lat="47.445731" lon="7.961482">
        <ele>514.026838</ele>
        <time>2021-11-20T18:46:37.869Z</time>
      </trkpt>
      <trkpt lat="47.445632" lon="7.961583">
        <ele>514.144969</ele>
        <time>2021-11-20T18:46:41.013Z</time>
      </trkpt>
      <trkpt lat="47.445405" lon="7.961813">
        <ele>514.475417</ele>
        <time>2021-11-20T18:46:48.076Z</time>
      </trkpt>
      <trkpt lat="47.445186" lon="7.962043">
        <ele>515.529807</ele>
        <time>2021-11-20T18:46:55.189Z</time>
      </trkpt>
      <trkpt lat="47.444993" lon="7.962238">
        <ele>516.447344</ele>
        <time>2021-11-20T18:47:01.858Z</time>
      </trkpt>
      <trkpt lat="47.444976" lon="7.962255">
        <ele>516.527900</ele>
        <time>2021-11-20T18:47:02.428Z</time>
      </trkpt>
      <trkpt lat="47.444826" lon="7.962406">
        <ele>517.240183</ele>
        <time>2021-11-20T18:47:07.541Z</time>
      </trkpt>
      <trkpt lat="47.444267" lon="7.962981">
        <ele>519.913101</ele>
        <time>2021-11-20T18:47:29.486Z</time>
      </trkpt>
      <trkpt lat="47.443323" lon="7.963902">
        <ele>525.331226</ele>
        <time>2021-11-20T18:48:08.199Z</time>
      </trkpt>
      <trkpt lat="47.443282" lon="7.963930">
        <ele>525.568384</ele>
        <time>2021-11-20T18:48:10.440Z</time>
      </trkpt>
      <trkpt lat="47.443115" lon="7.964042">
        <ele>526.531342</ele>
        <time>2021-11-20T18:48:16.477Z</time>
      </trkpt>
      <trkpt lat="47.442282" lon="7.964392">
        <ele>531.146097</ele>
        <time>2021-11-20T18:48:47.590Z</time>
      </trkpt>
      <trkpt lat="47.441371" lon="7.965446">
        <ele>539.510005</ele>
        <time>2021-11-20T18:49:36.824Z</time>
      </trkpt>
      <trkpt lat="47.441328" lon="7.965473">
        <ele>539.847790</ele>
        <time>2021-11-20T18:49:40.969Z</time>
      </trkpt>
      <trkpt lat="47.441204" lon="7.965554">
        <ele>540.827973</ele>
        <time>2021-11-20T18:49:46.934Z</time>
      </trkpt>
      <trkpt lat="47.440933" lon="7.965666">
        <ele>542.862540</ele>
        <time>2021-11-20T18:50:00.600Z</time>
      </trkpt>
      <trkpt lat="47.440543" lon="7.965818">
        <ele>545.702772</ele>
        <time>2021-11-20T18:50:19.261Z</time>
      </trkpt>
      <trkpt lat="47.440012" lon="7.966095">
        <ele>549.608995</ele>
        <time>2021-11-20T18:50:43.179Z</time>
      </trkpt>
      <trkpt lat="47.439942" lon="7.966121">
        <ele>550.109689</ele>
        <time>2021-11-20T18:50:48.820Z</time>
      </trkpt>
      <trkpt lat="47.439807" lon="7.966143">
        <ele>551.051885</ele>
        <time>2021-11-20T18:50:54.212Z</time>
      </trkpt>
      <trkpt lat="47.439737" lon="7.966170">
        <ele>551.553743</ele>
        <time>2021-11-20T18:50:56.498Z</time>
      </trkpt>
      <trkpt lat="47.439678" lon="7.966197">
        <ele>551.982197</ele>
        <time>2021-11-20T18:50:58.888Z</time>
      </trkpt>
      <trkpt lat="47.439676" lon="7.965961">
        <ele>553.089619</ele>
        <time>2021-11-20T18:51:06.096Z</time>
      </trkpt>
      <trkpt lat="47.439896" lon="7.964753">
        <ele>557.824659</ele>
        <time>2021-11-20T18:51:37.582Z</time>
      </trkpt>
      <trkpt lat="47.439879" lon="7.963594">
        <ele>560.868161</ele>
        <time>2021-11-20T18:52:02.523Z</time>
      </trkpt>
      <trkpt lat="47.439883" lon="7.963536">
        <ele>561.021221</ele>
        <time>2021-11-20T18:52:04.975Z</time>
      </trkpt>
      <trkpt lat="47.439896" lon="7.963430">
        <ele>561.304047</ele>
        <time>2021-11-20T18:52:06.517Z</time>
      </trkpt>
      <trkpt lat="47.439904" lon="7.963387">
        <ele>561.421130</ele>
        <time>2021-11-20T18:52:07.107Z</time>
      </trkpt>
      <trkpt lat="47.439934" lon="7.963205">
        <ele>561.912929</ele>
        <time>2021-11-20T18:52:09.997Z</time>
      </trkpt>
      <trkpt lat="47.439978" lon="7.962938">
        <ele>562.634404</ele>
        <time>2021-11-20T18:52:15.761Z</time>
      </trkpt>
      <trkpt lat="47.439994" lon="7.962853">
        <ele>562.866040</ele>
        <time>2021-11-20T18:52:16.877Z</time>
      </trkpt>
      <trkpt lat="47.440007" lon="7.962723">
        <ele>563.211046</ele>
        <time>2021-11-20T18:52:18.585Z</time>
      </trkpt>
      <trkpt lat="47.440011" lon="7.962659">
        <ele>563.363906</ele>
        <time>2021-11-20T18:52:20.144Z</time>
      </trkpt>
      <trkpt lat="47.439862" lon="7.961119">
        <ele>563.179323</ele>
        <time>2021-11-20T18:52:37.096Z</time>
      </trkpt>
      <trkpt lat="47.439858" lon="7.960872">
        <ele>563.150008</ele>
        <time>2021-11-20T18:52:38.871Z</time>
      </trkpt>
      <trkpt lat="47.439909" lon="7.960605">
        <ele>563.117089</ele>
        <time>2021-11-20T18:52:41.158Z</time>
      </trkpt>
      <trkpt lat="47.439936" lon="7.960525">
        <ele>563.106481</ele>
        <time>2021-11-20T18:52:42.614Z</time>
      </trkpt>
      <trkpt lat="47.439964" lon="7.960470">
        <ele>563.098313</ele>
        <time>2021-11-20T18:52:43.023Z</time>
      </trkpt>
      <trkpt lat="47.440212" lon="7.960199">
        <ele>563.034658</ele>
        <time>2021-11-20T18:52:46.995Z</time>
      </trkpt>
      <trkpt lat="47.440264" lon="7.960181">
        <ele>563.006831</ele>
        <time>2021-11-20T18:52:47.466Z</time>
      </trkpt>
      <trkpt lat="47.440324" lon="7.960176">
        <ele>562.975518</ele>
        <time>2021-11-20T18:52:48.154Z</time>
      </trkpt>
      <trkpt lat="47.440419" lon="7.960172">
        <ele>562.925998</ele>
        <time>2021-11-20T18:52:49.304Z</time>
      </trkpt>
      <trkpt lat="47.440544" lon="7.960192">
        <ele>562.860486</ele>
        <time>2021-11-20T18:52:51.012Z</time>
      </trkpt>
      <trkpt lat="47.440869" lon="7.960279">
        <ele>562.688391</ele>
        <time>2021-11-20T18:52:54.744Z</time>
      </trkpt>
      <trkpt lat="47.441074" lon="7.960255">
        <ele>562.581241</ele>
        <time>2021-11-20T18:52:56.969Z</time>
      </trkpt>
      <trkpt lat="47.441281" lon="7.960073">
        <ele>562.455754</ele>
        <time>2021-11-20T18:53:00.606Z</time>
      </trkpt>
      <trkpt lat="47.441658" lon="7.959533">
        <ele>562.182254</ele>
        <time>2021-11-20T18:53:07.061Z</time>
      </trkpt>
      <trkpt lat="47.442070" lon="7.959339">
        <ele>563.555899</ele>
        <time>2021-11-20T18:53:16.429Z</time>
      </trkpt>
      <trkpt lat="47.442137" lon="7.959350">
        <ele>563.883300</ele>
        <time>2021-11-20T18:53:20.770Z</time>
      </trkpt>
      <trkpt lat="47.442302" lon="7.959406">
        <ele>564.705501</ele>
        <time>2021-11-20T18:53:24.696Z</time>
      </trkpt>
      <trkpt lat="47.442431" lon="7.959459">
        <ele>565.355758</ele>
        <time>2021-11-20T18:53:28.541Z</time>
      </trkpt>
      <trkpt lat="47.442504" lon="7.959467">
        <ele>565.711272</ele>
        <time>2021-11-20T18:53:33.105Z</time>
      </trkpt>
      <trkpt lat="47.443343" lon="7.959453">
        <ele>569.786329</ele>
        <time>2021-11-20T18:54:03.753Z</time>
      </trkpt>
      <trkpt lat="47.443496" lon="7.959438">
        <ele>570.531041</ele>
        <time>2021-11-20T18:54:09.275Z</time>
      </trkpt>
      <trkpt lat="47.443571" lon="7.959413">
        <ele>570.945580</ele>
        <time>2021-11-20T18:54:15.127Z</time>
      </trkpt>
      <trkpt lat="47.443720" lon="7.959271">
        <ele>572.427625</ele>
        <time>2021-11-20T18:54:21.508Z</time>
      </trkpt>
      <trkpt lat="47.443914" lon="7.958964">
        <ele>574.803311</ele>
        <time>2021-11-20T18:54:34.787Z</time>
      </trkpt>
      <trkpt lat="47.444188" lon="7.958233">
        <ele>579.528932</ele>
        <time>2021-11-20T18:55:03.179Z</time>
      </trkpt>
      <trkpt lat="47.444407" lon="7.957243">
        <ele>585.418457</ele>
        <time>2021-11-20T18:55:40.709Z</time>
      </trkpt>
      <trkpt lat="47.444409" lon="7.956577">
        <ele>588.643136</ele>
        <time>2021-11-20T18:56:01.489Z</time>
      </trkpt>
      <trkpt lat="47.444384" lon="7.956138">
        <ele>590.725616</ele>
        <time>2021-11-20T18:56:15.156Z</time>
      </trkpt>
      <trkpt lat="47.444371" lon="7.955878">
        <ele>591.957980</ele>
        <time>2021-11-20T18:56:22.722Z</time>
      </trkpt>
      <trkpt lat="47.444374" lon="7.955426">
        <ele>594.094670</ele>
        <time>2021-11-20T18:56:35.448Z</time>
      </trkpt>
      <trkpt lat="47.444431" lon="7.955161">
        <ele>595.409143</ele>
        <time>2021-11-20T18:56:43.210Z</time>
      </trkpt>
      <trkpt lat="47.445043" lon="7.953752">
        <ele>601.868852</ele>
        <time>2021-11-20T18:57:24.560Z</time>
      </trkpt>
      <trkpt lat="47.445190" lon="7.953050">
        <ele>604.303781</ele>
        <time>2021-11-20T18:57:41.120Z</time>
      </trkpt>
      <trkpt lat="47.445277" lon="7.952896">
        <ele>604.968643</ele>
        <time>2021-11-20T18:57:45.673Z</time>
      </trkpt>
      <trkpt lat="47.445733" lon="7.952446">
        <ele>607.597979</ele>
        <time>2021-11-20T18:58:03.487Z</time>
      </trkpt>
      <trkpt lat="47.445832" lon="7.952260">
        <ele>608.267322</ele>
        <time>2021-11-20T18:58:08.789Z</time>
      </trkpt>
      <trkpt lat="47.445906" lon="7.952081">
        <ele>608.860591</ele>
        <time>2021-11-20T18:58:13.407Z</time>
      </trkpt>
      <trkpt lat="47.446082" lon="7.951692">
        <ele>610.184094</ele>
        <time>2021-11-20T18:58:22.699Z</time>
      </trkpt>
      <trkpt lat="47.446253" lon="7.951461">
        <ele>611.152582</ele>
        <time>2021-11-20T18:58:30.856Z</time>
      </trkpt>
      <trkpt lat="47.446713" lon="7.951341">
        <ele>613.105746</ele>
        <time>2021-11-20T18:58:46.169Z</time>
      </trkpt>
      <trkpt lat="47.446952" lon="7.951343">
        <ele>614.105124</ele>
        <time>2021-11-20T18:58:54.211Z</time>
      </trkpt>
      <trkpt lat="47.446999" lon="7.951346">
        <ele>614.301835</ele>
        <time>2021-11-20T18:58:55.733Z</time>
      </trkpt>
      <trkpt lat="47.447532" lon="7.951475">
        <ele>615.714781</ele>
        <time>2021-11-20T18:59:09.722Z</time>
      </trkpt>
      <trkpt lat="47.447587" lon="7.951456">
        <ele>615.838207</ele>
        <time>2021-11-20T18:59:10.814Z</time>
      </trkpt>
      <trkpt lat="47.447641" lon="7.951415">
        <ele>615.970858</ele>
        <time>2021-11-20T18:59:13.670Z</time>
      </trkpt>
      <trkpt lat="47.447781" lon="7.951149">
        <ele>616.468979</ele>
        <time>2021-11-20T18:59:18.520Z</time>
      </trkpt>
      <trkpt lat="47.447993" lon="7.950057">
        <ele>618.147930</ele>
        <time>2021-11-20T18:59:35.521Z</time>
      </trkpt>
      <trkpt lat="47.448162" lon="7.949710">
        <ele>618.686407</ele>
        <time>2021-11-20T18:59:41.733Z</time>
      </trkpt>
      <trkpt lat="47.448314" lon="7.949566">
        <ele>618.467161</ele>
        <time>2021-11-20T18:59:45.835Z</time>
      </trkpt>
      <trkpt lat="47.448451" lon="7.949520">
        <ele>618.296534</ele>
        <time>2021-11-20T18:59:48.136Z</time>
      </trkpt>
      <trkpt lat="47.449418" lon="7.949404">
        <ele>617.118222</ele>
        <time>2021-11-20T18:59:59.420Z</time>
      </trkpt>
      <trkpt lat="47.449549" lon="7.949269">
        <ele>616.924295</ele>
        <time>2021-11-20T19:00:01.207Z</time>
      </trkpt>
      <trkpt lat="47.449791" lon="7.948794">
        <ele>616.224161</ele>
        <time>2021-11-20T19:00:05.266Z</time>
      </trkpt>
      <trkpt lat="47.450004" lon="7.948575">
        <ele>615.238348</ele>
        <time>2021-11-20T19:00:07.849Z</time>
      </trkpt>
      <trkpt lat="47.450135" lon="7.948495">
        <ele>614.699772</ele>
        <time>2021-11-20T19:00:09.250Z</time>
      </trkpt>
      <trkpt lat="47.450205" lon="7.948459">
        <ele>614.418145</ele>
        <time>2021-11-20T19:00:09.982Z</time>
      </trkpt>
      <trkpt lat="47.450539" lon="7.948213">
        <ele>613.000239</ele>
        <time>2021-11-20T19:00:13.592Z</time>
      </trkpt>
      <trkpt lat="47.450567" lon="7.948175">
        <ele>612.855823</ele>
        <time>2021-11-20T19:00:13.955Z</time>
      </trkpt>
      <trkpt lat="47.450592" lon="7.948134">
        <ele>612.713962</ele>
        <time>2021-11-20T19:00:14.327Z</time>
      </trkpt>
      <trkpt lat="47.450637" lon="7.948032">
        <ele>612.401008</ele>
        <time>2021-11-20T19:00:15.095Z</time>
      </trkpt>
      <trkpt lat="47.450665" lon="7.947928">
        <ele>612.113363</ele>
        <time>2021-11-20T19:00:15.832Z</time>
      </trkpt>
      <trkpt lat="47.450764" lon="7.947491">
        <ele>610.929087</ele>
        <time>2021-11-20T19:00:18.838Z</time>
      </trkpt>
      <trkpt lat="47.450994" lon="7.946647">
        <ele>608.643640</ele>
        <time>2021-11-20T19:00:24.954Z</time>
      </trkpt>
      <trkpt lat="47.451058" lon="7.946540">
        <ele>608.294037</ele>
        <time>2021-11-20T19:00:25.868Z</time>
      </trkpt>
      <trkpt lat="47.451170" lon="7.946404">
        <ele>607.769553</ele>
        <time>2021-11-20T19:00:27.430Z</time>
      </trkpt>
      <trkpt lat="47.451332" lon="7.946292">
        <ele>607.122346</ele>
        <time>2021-11-20T19:00:29.183Z</time>
      </trkpt>
      <trkpt lat="47.451393" lon="7.946246">
        <ele>606.874533</ele>
        <time>2021-11-20T19:00:29.869Z</time>
      </trkpt>
      <trkpt lat="47.451666" lon="7.946053">
        <ele>605.779414</ele>
        <time>2021-11-20T19:00:32.913Z</time>
      </trkpt>
      <trkpt lat="47.451848" lon="7.945864">
        <ele>604.974552</ele>
        <time>2021-11-20T19:00:35.310Z</time>
      </trkpt>
      <trkpt lat="47.451920" lon="7.945696">
        <ele>604.487786</ele>
        <time>2021-11-20T19:00:36.602Z</time>
      </trkpt>
      <trkpt lat="47.452004" lon="7.945500">
        <ele>603.919894</ele>
        <time>2021-11-20T19:00:38.190Z</time>
      </trkpt>
      <trkpt lat="47.452130" lon="7.945001">
        <ele>602.467283</ele>
        <time>2021-11-20T19:00:41.679Z</time>
      </trkpt>
      <trkpt lat="47.452193" lon="7.944664">
        <ele>601.389645</ele>
        <time>2021-11-20T19:00:43.901Z</time>
      </trkpt>
      <trkpt lat="47.452205" lon="7.944436">
        <ele>600.684796</ele>
        <time>2021-11-20T19:00:45.495Z</time>
      </trkpt>
      <trkpt lat="47.452197" lon="7.944338">
        <ele>600.380555</ele>
        <time>2021-11-20T19:00:46.107Z</time>
      </trkpt>
      <trkpt lat="47.452182" lon="7.944245">
        <ele>600.085876</ele>
        <time>2021-11-20T19:00:46.711Z</time>
      </trkpt>
      <trkpt lat="47.452156" lon="7.944137">
        <ele>599.732541</ele>
        <time>2021-11-20T19:00:47.461Z</time>
      </trkpt>
      <trkpt lat="47.452112" lon="7.944014">
        <ele>599.303660</ele>
        <time>2021-11-20T19:00:48.434Z</time>
      </trkpt>
      <trkpt lat="47.452054" lon="7.943901">
        <ele>598.866411</ele>
        <time>2021-11-20T19:00:49.330Z</time>
      </trkpt>
      <trkpt lat="47.452015" lon="7.943844">
        <ele>598.616485</ele>
        <time>2021-11-20T19:00:49.849Z</time>
      </trkpt>
      <trkpt lat="47.451977" lon="7.943811">
        <ele>598.415626</ele>
        <time>2021-11-20T19:00:50.255Z</time>
      </trkpt>
      <trkpt lat="47.451953" lon="7.943794">
        <ele>598.294334</ele>
        <time>2021-11-20T19:00:50.506Z</time>
      </trkpt>
      <trkpt lat="47.451846" lon="7.943751">
        <ele>597.788944</ele>
        <time>2021-11-20T19:00:51.608Z</time>
      </trkpt>
      <trkpt lat="47.451676" lon="7.943686">
        <ele>596.988609</ele>
        <time>2021-11-20T19:00:53.281Z</time>
      </trkpt>
      <trkpt lat="47.451644" lon="7.943673">
        <ele>596.837351</ele>
        <time>2021-11-20T19:00:53.584Z</time>
      </trkpt>
      <trkpt lat="47.451442" lon="7.943512">
        <ele>595.791431</ele>
        <time>2021-11-20T19:00:55.791Z</time>
      </trkpt>
      <trkpt lat="47.451423" lon="7.943479">
        <ele>595.657846</ele>
        <time>2021-11-20T19:00:56.044Z</time>
      </trkpt>
      <trkpt lat="47.451407" lon="7.943431">
        <ele>595.492903</ele>
        <time>2021-11-20T19:00:56.392Z</time>
      </trkpt>
      <trkpt lat="47.451395" lon="7.943371">
        <ele>595.300054</ele>
        <time>2021-11-20T19:00:56.788Z</time>
      </trkpt>
      <trkpt lat="47.451365" lon="7.943156">
        <ele>594.625218</ele>
        <time>2021-11-20T19:00:58.165Z</time>
      </trkpt>
      <trkpt lat="47.451325" lon="7.942609">
        <ele>592.937662</ele>
        <time>2021-11-20T19:01:01.630Z</time>
      </trkpt>
      <trkpt lat="47.451290" lon="7.942344">
        <ele>592.109487</ele>
        <time>2021-11-20T19:01:03.341Z</time>
      </trkpt>
      <trkpt lat="47.451213" lon="7.942012">
        <ele>591.032936</ele>
        <time>2021-11-20T19:01:05.566Z</time>
      </trkpt>
      <trkpt lat="47.451135" lon="7.941726">
        <ele>590.087047</ele>
        <time>2021-11-20T19:01:07.513Z</time>
      </trkpt>
      <trkpt lat="47.451110" lon="7.941681">
        <ele>589.908413</ele>
        <time>2021-11-20T19:01:07.922Z</time>
      </trkpt>
      <trkpt lat="47.451074" lon="7.941649">
        <ele>589.717894</ele>
        <time>2021-11-20T19:01:08.303Z</time>
      </trkpt>
      <trkpt lat="47.450769" lon="7.941529">
        <ele>588.286327</ele>
        <time>2021-11-20T19:01:11.475Z</time>
      </trkpt>
      <trkpt lat="47.450637" lon="7.941376">
        <ele>587.525591</ele>
        <time>2021-11-20T19:01:13.211Z</time>
      </trkpt>
      <trkpt lat="47.450601" lon="7.941306">
        <ele>587.255843</ele>
        <time>2021-11-20T19:01:13.760Z</time>
      </trkpt>
      <trkpt lat="47.450585" lon="7.941257">
        <ele>587.088942</ele>
        <time>2021-11-20T19:01:14.118Z</time>
      </trkpt>
      <trkpt lat="47.450557" lon="7.941072">
        <ele>586.633241</ele>
        <time>2021-11-20T19:01:15.438Z</time>
      </trkpt>
      <trkpt lat="47.450565" lon="7.940916">
        <ele>586.338016</ele>
        <time>2021-11-20T19:01:16.645Z</time>
      </trkpt>
      <trkpt lat="47.450568" lon="7.940770">
        <ele>586.062379</ele>
        <time>2021-11-20T19:01:17.578Z</time>
      </trkpt>
      <trkpt lat="47.450538" lon="7.940621">
        <ele>585.769010</ele>
        <time>2021-11-20T19:01:18.608Z</time>
      </trkpt>
      <trkpt lat="47.450383" lon="7.940114">
        <ele>584.719042</ele>
        <time>2021-11-20T19:01:22.469Z</time>
      </trkpt>
      <trkpt lat="47.450248" lon="7.939948">
        <ele>584.229094</ele>
        <time>2021-11-20T19:01:24.408Z</time>
      </trkpt>
      <trkpt lat="47.449913" lon="7.939726">
        <ele>583.204680</ele>
        <time>2021-11-20T19:01:28.239Z</time>
      </trkpt>
      <trkpt lat="47.449814" lon="7.939672">
        <ele>582.910220</ele>
        <time>2021-11-20T19:01:29.202Z</time>
      </trkpt>
      <trkpt lat="47.449589" lon="7.939535">
        <ele>582.231202</ele>
        <time>2021-11-20T19:01:32.143Z</time>
      </trkpt>
      <trkpt lat="47.449443" lon="7.939446">
        <ele>581.812390</ele>
        <time>2021-11-20T19:01:33.674Z</time>
      </trkpt>
      <trkpt lat="47.449351" lon="7.939383">
        <ele>581.780879</ele>
        <time>2021-11-20T19:01:35.551Z</time>
      </trkpt>
      <trkpt lat="47.449278" lon="7.939333">
        <ele>581.755875</ele>
        <time>2021-11-20T19:01:36.395Z</time>
      </trkpt>
      <trkpt lat="47.449215" lon="7.939276">
        <ele>581.732920</ele>
        <time>2021-11-20T19:01:37.172Z</time>
      </trkpt>
      <trkpt lat="47.449121" lon="7.939164">
        <ele>581.695401</ele>
        <time>2021-11-20T19:01:38.440Z</time>
      </trkpt>
      <trkpt lat="47.449095" lon="7.939194">
        <ele>581.685151</ele>
        <time>2021-11-20T19:01:39.050Z</time>
      </trkpt>
      <trkpt lat="47.448995" lon="7.939236">
        <ele>581.652842</ele>
        <time>2021-11-20T19:01:40.386Z</time>
      </trkpt>
      <trkpt lat="47.448737" lon="7.939187">
        <ele>581.571996</ele>
        <time>2021-11-20T19:01:43.305Z</time>
      </trkpt>
      <trkpt lat="47.448632" lon="7.939166">
        <ele>581.539064</ele>
        <time>2021-11-20T19:01:44.694Z</time>
      </trkpt>
      <trkpt lat="47.448566" lon="7.939145">
        <ele>581.518082</ele>
        <time>2021-11-20T19:01:45.459Z</time>
      </trkpt>
      <trkpt lat="47.448504" lon="7.939113">
        <ele>581.497672</ele>
        <time>2021-11-20T19:01:46.143Z</time>
      </trkpt>
      <trkpt lat="47.448323" lon="7.938940">
        <ele>581.430688</ele>
        <time>2021-11-20T19:01:49.128Z</time>
      </trkpt>
      <trkpt lat="47.448076" lon="7.938764">
        <ele>581.345472</ele>
        <time>2021-11-20T19:01:54.815Z</time>
      </trkpt>
      <trkpt lat="47.447884" lon="7.938706">
        <ele>581.284566</ele>
        <time>2021-11-20T19:01:59.751Z</time>
      </trkpt>
      <trkpt lat="47.447622" lon="7.938729">
        <ele>582.179657</ele>
        <time>2021-11-20T19:02:04.614Z</time>
      </trkpt>
      <trkpt lat="47.447579" lon="7.938758">
        <ele>582.435061</ele>
        <time>2021-11-20T19:02:06.462Z</time>
      </trkpt>
      <trkpt lat="47.447514" lon="7.938816">
        <ele>582.845326</ele>
        <time>2021-11-20T19:02:08.886Z</time>
      </trkpt>
      <trkpt lat="47.447384" lon="7.938975">
        <ele>583.757033</ele>
        <time>2021-11-20T19:02:12.432Z</time>
      </trkpt>
      <trkpt lat="47.447375" lon="7.938987">
        <ele>583.822522</ele>
        <time>2021-11-20T19:02:12.956Z</time>
      </trkpt>
      <trkpt lat="47.447148" lon="7.939307">
        <ele>585.517381</ele>
        <time>2021-11-20T19:02:24.915Z</time>
      </trkpt>
      <trkpt lat="47.447088" lon="7.939400">
        <ele>585.987119</ele>
        <time>2021-11-20T19:02:28.281Z</time>
      </trkpt>
      <trkpt lat="47.447023" lon="7.939500">
        <ele>586.494023</ele>
        <time>2021-11-20T19:02:33.698Z</time>
      </trkpt>
      <trkpt lat="47.446911" lon="7.939640">
        <ele>587.286566</ele>
        <time>2021-11-20T19:02:38.508Z</time>
      </trkpt>
      <trkpt lat="47.446714" lon="7.939663">
        <ele>588.354486</ele>
        <time>2021-11-20T19:02:47.556Z</time>
      </trkpt>
      <trkpt lat="47.446350" lon="7.939484">
        <ele>590.427505</ele>
        <time>2021-11-20T19:03:04.242Z</time>
      </trkpt>
      <trkpt lat="47.446200" lon="7.939305">
        <ele>591.502841</ele>
        <time>2021-11-20T19:03:10.744Z</time>
      </trkpt>
      <trkpt lat="47.446136" lon="7.939210">
        <ele>592.026381</ele>
        <time>2021-11-20T19:03:15.938Z</time>
      </trkpt>
      <trkpt lat="47.445987" lon="7.938989">
        <ele>593.244774</ele>
        <time>2021-11-20T19:03:25.202Z</time>
      </trkpt>
      <trkpt lat="47.445739" lon="7.938730">
        <ele>594.997630</ele>
        <time>2021-11-20T19:03:39.412Z</time>
      </trkpt>
      <trkpt lat="47.445088" lon="7.938426">
        <ele>598.938959</ele>
        <time>2021-11-20T19:04:05.782Z</time>
      </trkpt>
      <trkpt lat="47.444935" lon="7.938269">
        <ele>600.014124</ele>
        <time>2021-11-20T19:04:12.064Z</time>
      </trkpt>
      <trkpt lat="47.444544" lon="7.937668">
        <ele>601.330667</ele>
        <time>2021-11-20T19:04:27.710Z</time>
      </trkpt>
      <trkpt lat="47.444304" lon="7.937471">
        <ele>601.306250</ele>
        <time>2021-11-20T19:04:32.903Z</time>
      </trkpt>
      <trkpt lat="47.444030" lon="7.937346">
        <ele>601.280745</ele>
        <time>2021-11-20T19:04:37.629Z</time>
      </trkpt>
      <trkpt lat="47.443821" lon="7.937284">
        <ele>601.261784</ele>
        <time>2021-11-20T19:04:40.468Z</time>
      </trkpt>
      <trkpt lat="47.443543" lon="7.937251">
        <ele>601.236976</ele>
        <time>2021-11-20T19:04:43.765Z</time>
      </trkpt>
      <trkpt lat="47.442638" lon="7.937187">
        <ele>598.706008</ele>
        <time>2021-11-20T19:04:52.948Z</time>
      </trkpt>
      <trkpt lat="47.441541" lon="7.937289">
        <ele>593.128878</ele>
        <time>2021-11-20T19:05:02.951Z</time>
      </trkpt>
      <trkpt lat="47.441000" lon="7.937143">
        <ele>590.744740</ele>
        <time>2021-11-20T19:05:08.157Z</time>
      </trkpt>
      <trkpt lat="47.440806" lon="7.937210">
        <ele>589.970523</ele>
        <time>2021-11-20T19:05:09.968Z</time>
      </trkpt>
      <trkpt lat="47.440583" lon="7.937384">
        <ele>588.990623</ele>
        <time>2021-11-20T19:05:12.538Z</time>
      </trkpt>
      <trkpt lat="47.440535" lon="7.937445">
        <ele>588.744648</ele>
        <time>2021-11-20T19:05:13.071Z</time>
      </trkpt>
      <trkpt lat="47.440493" lon="7.937497">
        <ele>588.531758</ele>
        <time>2021-11-20T19:05:14.589Z</time>
      </trkpt>
      <trkpt lat="47.440276" lon="7.938174">
        <ele>586.562579</ele>
        <time>2021-11-20T19:05:19.809Z</time>
      </trkpt>
      <trkpt lat="47.440111" lon="7.938384">
        <ele>585.716502</ele>
        <time>2021-11-20T19:05:21.973Z</time>
      </trkpt>
      <trkpt lat="47.439973" lon="7.938391">
        <ele>585.179891</ele>
        <time>2021-11-20T19:05:23.633Z</time>
      </trkpt>
      <trkpt lat="47.439513" lon="7.938183">
        <ele>584.075176</ele>
        <time>2021-11-20T19:05:28.687Z</time>
      </trkpt>
      <trkpt lat="47.439305" lon="7.937977">
        <ele>583.521749</ele>
        <time>2021-11-20T19:05:31.590Z</time>
      </trkpt>
      <trkpt lat="47.439053" lon="7.937594">
        <ele>582.722843</ele>
        <time>2021-11-20T19:05:35.821Z</time>
      </trkpt>
      <trkpt lat="47.438795" lon="7.937030">
        <ele>581.704806</ele>
        <time>2021-11-20T19:05:40.778Z</time>
      </trkpt>
      <trkpt lat="47.438488" lon="7.936601">
        <ele>580.892779</ele>
        <time>2021-11-20T19:05:45.099Z</time>
      </trkpt>
      <trkpt lat="47.438097" lon="7.936295">
        <ele>580.268286</ele>
        <time>2021-11-20T19:05:49.672Z</time>
      </trkpt>
      <trkpt lat="47.437455" lon="7.935929">
        <ele>579.296999</ele>
        <time>2021-11-20T19:05:57.189Z</time>
      </trkpt>
      <trkpt lat="47.437163" lon="7.935805">
        <ele>578.868146</ele>
        <time>2021-11-20T19:06:01.375Z</time>
      </trkpt>
      <trkpt lat="47.436959" lon="7.935813">
        <ele>578.580079</ele>
        <time>2021-11-20T19:06:06.943Z</time>
      </trkpt>
      <trkpt lat="47.436817" lon="7.935819">
        <ele>578.705411</ele>
        <time>2021-11-20T19:06:08.455Z</time>
      </trkpt>
      <trkpt lat="47.436754" lon="7.935830">
        <ele>578.769907</ele>
        <time>2021-11-20T19:06:10.828Z</time>
      </trkpt>
      <trkpt lat="47.436645" lon="7.935783">
        <ele>578.885343</ele>
        <time>2021-11-20T19:06:14.022Z</time>
      </trkpt>
      <trkpt lat="47.436379" lon="7.935508">
        <ele>579.215344</ele>
        <time>2021-11-20T19:06:20.061Z</time>
      </trkpt>
      <trkpt lat="47.436041" lon="7.935466">
        <ele>579.560195</ele>
        <time>2021-11-20T19:06:26.213Z</time>
      </trkpt>
      <trkpt lat="47.435987" lon="7.935459">
        <ele>579.615306</ele>
        <time>2021-11-20T19:06:28.479Z</time>
      </trkpt>
      <trkpt lat="47.435945" lon="7.935453">
        <ele>579.658206</ele>
        <time>2021-11-20T19:06:29.218Z</time>
      </trkpt>
      <trkpt lat="47.435218" lon="7.935133">
        <ele>580.405147</ele>
        <time>2021-11-20T19:06:43.186Z</time>
      </trkpt>
      <trkpt lat="47.435139" lon="7.935085">
        <ele>580.425699</ele>
        <time>2021-11-20T19:06:44.326Z</time>
      </trkpt>
      <trkpt lat="47.435108" lon="7.935067">
        <ele>580.433712</ele>
        <time>2021-11-20T19:06:44.651Z</time>
      </trkpt>
      <trkpt lat="47.435021" lon="7.934988">
        <ele>580.458279</ele>
        <time>2021-11-20T19:06:46.277Z</time>
      </trkpt>
      <trkpt lat="47.434953" lon="7.934914">
        <ele>580.478596</ele>
        <time>2021-11-20T19:06:49.193Z</time>
      </trkpt>
      <trkpt lat="47.434806" lon="7.934720">
        <ele>580.526010</ele>
        <time>2021-11-20T19:06:51.396Z</time>
      </trkpt>
      <trkpt lat="47.434668" lon="7.934617">
        <ele>580.563207</ele>
        <time>2021-11-20T19:06:55.516Z</time>
      </trkpt>
      <trkpt lat="47.434614" lon="7.934590">
        <ele>580.576923</ele>
        <time>2021-11-20T19:06:56.101Z</time>
      </trkpt>
      <trkpt lat="47.434567" lon="7.934576">
        <ele>580.588460</ele>
        <time>2021-11-20T19:06:56.616Z</time>
      </trkpt>
      <trkpt lat="47.434298" lon="7.934609">
        <ele>580.653408</ele>
        <time>2021-11-20T19:07:00.224Z</time>
      </trkpt>
      <trkpt lat="47.433620" lon="7.934930">
        <ele>580.824708</ele>
        <time>2021-11-20T19:07:09.696Z</time>
      </trkpt>
      <trkpt lat="47.433512" lon="7.934950">
        <ele>581.195680</ele>
        <time>2021-11-20T19:07:10.876Z</time>
      </trkpt>
      <trkpt lat="47.433385" lon="7.935078">
        <ele>581.855085</ele>
        <time>2021-11-20T19:07:15.039Z</time>
      </trkpt>
      <trkpt lat="47.433187" lon="7.935304">
        <ele>582.928232</ele>
        <time>2021-11-20T19:07:21.061Z</time>
      </trkpt>
      <trkpt lat="47.433050" lon="7.935392">
        <ele>583.569046</ele>
        <time>2021-11-20T19:07:25.702Z</time>
      </trkpt>
      <trkpt lat="47.432965" lon="7.935043">
        <ele>584.645481</ele>
        <time>2021-11-20T19:07:35.526Z</time>
      </trkpt>
      <trkpt lat="47.432802" lon="7.934732">
        <ele>585.787198</ele>
        <time>2021-11-20T19:07:44.806Z</time>
      </trkpt>
      <trkpt lat="47.432773" lon="7.934640">
        <ele>586.081744</ele>
        <time>2021-11-20T19:07:47.960Z</time>
      </trkpt>
      <trkpt lat="47.432737" lon="7.934526">
        <ele>586.446845</ele>
        <time>2021-11-20T19:07:51.005Z</time>
      </trkpt>
      <trkpt lat="47.432647" lon="7.934240">
        <ele>587.362227</ele>
        <time>2021-11-20T19:07:59.400Z</time>
      </trkpt>
      <trkpt lat="47.432578" lon="7.933907">
        <ele>588.372912</ele>
        <time>2021-11-20T19:08:08.950Z</time>
      </trkpt>
      <trkpt lat="47.432569" lon="7.933827">
        <ele>588.642166</ele>
        <time>2021-11-20T19:08:10.575Z</time>
      </trkpt>
      <trkpt lat="47.432554" lon="7.933755">
        <ele>588.980989</ele>
        <time>2021-11-20T19:08:13.131Z</time>
      </trkpt>
      <trkpt lat="47.432488" lon="7.933576">
        <ele>589.897849</ele>
        <time>2021-11-20T19:08:18.175Z</time>
      </trkpt>
      <trkpt lat="47.432362" lon="7.933398">
        <ele>591.056565</ele>
        <time>2021-11-20T19:08:24.552Z</time>
      </trkpt>
      <trkpt lat="47.432257" lon="7.933273">
        <ele>591.952878</ele>
        <time>2021-11-20T19:08:30.921Z</time>
      </trkpt>
      <trkpt lat="47.431934" lon="7.932867">
        <ele>594.771697</ele>
        <time>2021-11-20T19:08:47.658Z</time>
      </trkpt>
      <trkpt lat="47.431916" lon="7.932769">
        <ele>595.228407</ele>
        <time>2021-11-20T19:08:51.106Z</time>
      </trkpt>
      <trkpt lat="47.431940" lon="7.932715">
        <ele>595.518998</ele>
        <time>2021-11-20T19:08:51.927Z</time>
      </trkpt>
      <trkpt lat="47.432246" lon="7.932289">
        <ele>598.313576</ele>
        <time>2021-11-20T19:09:10.122Z</time>
      </trkpt>
      <trkpt lat="47.432474" lon="7.931798">
        <ele>601.166955</ele>
        <time>2021-11-20T19:09:27.531Z</time>
      </trkpt>
      <trkpt lat="47.432491" lon="7.931730">
        <ele>601.610058</ele>
        <time>2021-11-20T19:09:29.322Z</time>
      </trkpt>
      <trkpt lat="47.432518" lon="7.931622">
        <ele>602.313809</ele>
        <time>2021-11-20T19:09:33.170Z</time>
      </trkpt>
      <trkpt lat="47.432664" lon="7.930471">
        <ele>609.471508</ele>
        <time>2021-11-20T19:10:10.594Z</time>
      </trkpt>
      <trkpt lat="47.432655" lon="7.930328">
        <ele>610.349319</ele>
        <time>2021-11-20T19:10:15.751Z</time>
      </trkpt>
      <trkpt lat="47.432626" lon="7.930198">
        <ele>611.185988</ele>
        <time>2021-11-20T19:10:21.559Z</time>
      </trkpt>
      <trkpt lat="47.432548" lon="7.929945">
        <ele>612.885392</ele>
        <time>2021-11-20T19:10:30.708Z</time>
      </trkpt>
      <trkpt lat="47.432376" lon="7.929666">
        <ele>615.192618</ele>
        <time>2021-11-20T19:10:45.389Z</time>
      </trkpt>
      <trkpt lat="47.432320" lon="7.929632">
        <ele>615.739621</ele>
        <time>2021-11-20T19:10:48.855Z</time>
      </trkpt>
      <trkpt lat="47.432180" lon="7.929578">
        <ele>617.124490</ele>
        <time>2021-11-20T19:10:57.106Z</time>
      </trkpt>
      <trkpt lat="47.431897" lon="7.929454">
        <ele>620.503642</ele>
        <time>2021-11-20T19:11:14.687Z</time>
      </trkpt>
      <trkpt lat="47.431830" lon="7.929410">
        <ele>621.342952</ele>
        <time>2021-11-20T19:11:20.008Z</time>
      </trkpt>
      <trkpt lat="47.431760" lon="7.929353">
        <ele>622.257858</ele>
        <time>2021-11-20T19:11:26.236Z</time>
      </trkpt>
      <trkpt lat="47.431165" lon="7.928287">
        <ele>632.960746</ele>
        <time>2021-11-20T19:12:24.266Z</time>
      </trkpt>
      <trkpt lat="47.431009" lon="7.928039">
        <ele>635.583388</ele>
        <time>2021-11-20T19:12:39.275Z</time>
      </trkpt>
      <trkpt lat="47.430877" lon="7.927868">
        <ele>637.537950</ele>
        <time>2021-11-20T19:12:48.784Z</time>
      </trkpt>
      <trkpt lat="47.430593" lon="7.927648">
        <ele>640.388223</ele>
        <time>2021-11-20T19:13:06.099Z</time>
      </trkpt>
      <trkpt lat="47.430441" lon="7.927596">
        <ele>641.775145</ele>
        <time>2021-11-20T19:13:14.621Z</time>
      </trkpt>
      <trkpt lat="47.430337" lon="7.927447">
        <ele>643.062621</ele>
        <time>2021-11-20T19:13:21.055Z</time>
      </trkpt>
      <trkpt lat="47.430261" lon="7.927320">
        <ele>644.082293</ele>
        <time>2021-11-20T19:13:28.938Z</time>
      </trkpt>
      <trkpt lat="47.429803" lon="7.926167">
        <ele>652.123039</ele>
        <time>2021-11-20T19:14:12.399Z</time>
      </trkpt>
      <trkpt lat="47.429591" lon="7.925737">
        <ele>654.471492</ele>
        <time>2021-11-20T19:14:27.618Z</time>
      </trkpt>
      <trkpt lat="47.429521" lon="7.925613">
        <ele>655.026398</ele>
        <time>2021-11-20T19:14:31.931Z</time>
      </trkpt>
      <trkpt lat="47.429490" lon="7.925556">
        <ele>655.277686</ele>
        <time>2021-11-20T19:14:34.995Z</time>
      </trkpt>
      <trkpt lat="47.429062" lon="7.924899">
        <ele>658.411574</ele>
        <time>2021-11-20T19:14:54.682Z</time>
      </trkpt>
      <trkpt lat="47.428690" lon="7.923945">
        <ele>662.195001</ele>
        <time>2021-11-20T19:15:19.315Z</time>
      </trkpt>
      <trkpt lat="47.428337" lon="7.923093">
        <ele>664.271102</ele>
        <time>2021-11-20T19:15:38.879Z</time>
      </trkpt>
      <trkpt lat="47.428022" lon="7.922357">
        <ele>665.977050</ele>
        <time>2021-11-20T19:15:53.421Z</time>
      </trkpt>
      <trkpt lat="47.427532" lon="7.921193">
        <ele>668.631409</ele>
        <time>2021-11-20T19:16:15.106Z</time>
      </trkpt>
      <trkpt lat="47.427306" lon="7.920667">
        <ele>669.813392</ele>
        <time>2021-11-20T19:16:26.240Z</time>
      </trkpt>
      <trkpt lat="47.427128" lon="7.920327">
        <ele>670.628897</ele>
        <time>2021-11-20T19:16:33.973Z</time>
      </trkpt>
      <trkpt lat="47.426784" lon="7.919771">
        <ele>672.058122</ele>
        <time>2021-11-20T19:16:47.217Z</time>
      </trkpt>
      <trkpt lat="47.426747" lon="7.919704">
        <ele>672.222182</ele>
        <time>2021-11-20T19:16:49.666Z</time>
      </trkpt>
      <trkpt lat="47.426476" lon="7.919218">
        <ele>673.249870</ele>
        <time>2021-11-20T19:17:01.827Z</time>
      </trkpt>
      <trkpt lat="47.425963" lon="7.918061">
        <ele>675.242342</ele>
        <time>2021-11-20T19:17:25.029Z</time>
      </trkpt>
      <trkpt lat="47.425854" lon="7.917881">
        <ele>675.590290</ele>
        <time>2021-11-20T19:17:30.059Z</time>
      </trkpt>
      <trkpt lat="47.425791" lon="7.917776">
        <ele>675.792434</ele>
        <time>2021-11-20T19:17:31.420Z</time>
      </trkpt>
      <trkpt lat="47.425734" lon="7.917658">
        <ele>676.001271</ele>
        <time>2021-11-20T19:17:32.980Z</time>
      </trkpt>
      <trkpt lat="47.425453" lon="7.916868">
        <ele>675.924952</ele>
        <time>2021-11-20T19:17:42.951Z</time>
      </trkpt>
      <trkpt lat="47.425318" lon="7.916466">
        <ele>675.372788</ele>
        <time>2021-11-20T19:17:47.090Z</time>
      </trkpt>
      <trkpt lat="47.425092" lon="7.916017">
        <ele>674.684262</ele>
        <time>2021-11-20T19:17:51.504Z</time>
      </trkpt>
      <trkpt lat="47.424835" lon="7.915741">
        <ele>674.106568</ele>
        <time>2021-11-20T19:17:54.726Z</time>
      </trkpt>
      <trkpt lat="47.423995" lon="7.915248">
        <ele>670.823815</ele>
        <time>2021-11-20T19:18:03.472Z</time>
      </trkpt>
      <trkpt lat="47.423738" lon="7.915097">
        <ele>669.313662</ele>
        <time>2021-11-20T19:18:06.098Z</time>
      </trkpt>
      <trkpt lat="47.423576" lon="7.915003">
        <ele>668.363343</ele>
        <time>2021-11-20T19:18:07.756Z</time>
      </trkpt>
      <trkpt lat="47.423480" lon="7.914911">
        <ele>667.738593</ele>
        <time>2021-11-20T19:18:08.823Z</time>
      </trkpt>
      <trkpt lat="47.423376" lon="7.914788">
        <ele>667.011277</ele>
        <time>2021-11-20T19:18:10.109Z</time>
      </trkpt>
      <trkpt lat="47.423166" lon="7.914532">
        <ele>665.524871</ele>
        <time>2021-11-20T19:18:12.634Z</time>
      </trkpt>
      <trkpt lat="47.422861" lon="7.914016">
        <ele>662.623560</ele>
        <time>2021-11-20T19:18:16.808Z</time>
      </trkpt>
      <trkpt lat="47.422678" lon="7.913093">
        <ele>656.252510</ele>
        <time>2021-11-20T19:18:22.469Z</time>
      </trkpt>
      <trkpt lat="47.422400" lon="7.912432">
        <ele>651.097044</ele>
        <time>2021-11-20T19:18:26.977Z</time>
      </trkpt>
      <trkpt lat="47.422296" lon="7.912177">
        <ele>649.124763</ele>
        <time>2021-11-20T19:18:28.743Z</time>
      </trkpt>
      <trkpt lat="47.422258" lon="7.912054">
        <ele>648.229085</ele>
        <time>2021-11-20T19:18:29.503Z</time>
      </trkpt>
      <trkpt lat="47.422227" lon="7.911924">
        <ele>647.316038</ele>
        <time>2021-11-20T19:18:30.297Z</time>
      </trkpt>
      <trkpt lat="47.422105" lon="7.911328">
        <ele>642.305698</ele>
        <time>2021-11-20T19:18:33.864Z</time>
      </trkpt>
      <trkpt lat="47.422076" lon="7.911139">
        <ele>640.594417</ele>
        <time>2021-11-20T19:18:34.983Z</time>
      </trkpt>
      <trkpt lat="47.422044" lon="7.910942">
        <ele>638.805441</ele>
        <time>2021-11-20T19:18:36.130Z</time>
      </trkpt>
      <trkpt lat="47.421971" lon="7.910739">
        <ele>636.775458</ele>
        <time>2021-11-20T19:18:37.459Z</time>
      </trkpt>
      <trkpt lat="47.421663" lon="7.910330">
        <ele>631.371634</ele>
        <time>2021-11-20T19:18:40.935Z</time>
      </trkpt>
      <trkpt lat="47.421579" lon="7.910148">
        <ele>629.426224</ele>
        <time>2021-11-20T19:18:42.168Z</time>
      </trkpt>
      <trkpt lat="47.421470" lon="7.909931">
        <ele>627.039728</ele>
        <time>2021-11-20T19:18:43.686Z</time>
      </trkpt>
      <trkpt lat="47.420948" lon="7.908934">
        <ele>614.724111</ele>
        <time>2021-11-20T19:18:50.822Z</time>
      </trkpt>
      <trkpt lat="47.420889" lon="7.908860">
        <ele>613.529407</ele>
        <time>2021-11-20T19:18:51.458Z</time>
      </trkpt>
      <trkpt lat="47.420741" lon="7.908673">
        <ele>610.523220</ele>
        <time>2021-11-20T19:18:53.088Z</time>
      </trkpt>
      <trkpt lat="47.420624" lon="7.908565">
        <ele>608.393470</ele>
        <time>2021-11-20T19:18:54.235Z</time>
      </trkpt>
      <trkpt lat="47.420459" lon="7.908421">
        <ele>605.435030</ele>
        <time>2021-11-20T19:18:55.822Z</time>
      </trkpt>
      <trkpt lat="47.420164" lon="7.908011">
        <ele>599.182989</ele>
        <time>2021-11-20T19:18:59.177Z</time>
      </trkpt>
      <trkpt lat="47.419862" lon="7.907847">
        <ele>594.198278</ele>
        <time>2021-11-20T19:19:01.826Z</time>
      </trkpt>
      <trkpt lat="47.419634" lon="7.907870">
        <ele>590.514051</ele>
        <time>2021-11-20T19:19:03.708Z</time>
      </trkpt>
      <trkpt lat="47.419267" lon="7.908161">
        <ele>583.799774</ele>
        <time>2021-11-20T19:19:07.127Z</time>
      </trkpt>
      <trkpt lat="47.419141" lon="7.908164">
        <ele>581.768216</ele>
        <time>2021-11-20T19:19:08.163Z</time>
      </trkpt>
      <trkpt lat="47.418922" lon="7.907954">
        <ele>577.559599</ele>
        <time>2021-11-20T19:19:10.329Z</time>
      </trkpt>
      <trkpt lat="47.418822" lon="7.907858">
        <ele>575.637204</ele>
        <time>2021-11-20T19:19:11.309Z</time>
      </trkpt>
      <trkpt lat="47.418439" lon="7.907589">
        <ele>568.800930</ele>
        <time>2021-11-20T19:19:14.827Z</time>
      </trkpt>
      <trkpt lat="47.417978" lon="7.907279">
        <ele>562.668798</ele>
        <time>2021-11-20T19:19:19.067Z</time>
      </trkpt>
      <trkpt lat="47.417761" lon="7.907149">
        <ele>560.436591</ele>
        <time>2021-11-20T19:19:21.040Z</time>
      </trkpt>
      <trkpt lat="47.417654" lon="7.907109">
        <ele>559.384411</ele>
        <time>2021-11-20T19:19:21.977Z</time>
      </trkpt>
      <trkpt lat="47.417526" lon="7.907135">
        <ele>558.152690</ele>
        <time>2021-11-20T19:19:23.070Z</time>
      </trkpt>
      <trkpt lat="47.417287" lon="7.907253">
        <ele>555.750473</ele>
        <time>2021-11-20T19:19:25.299Z</time>
      </trkpt>
      <trkpt lat="47.417211" lon="7.907291">
        <ele>554.985607</ele>
        <time>2021-11-20T19:19:26.035Z</time>
      </trkpt>
      <trkpt lat="47.417045" lon="7.907386">
        <ele>553.288585</ele>
        <time>2021-11-20T19:19:27.617Z</time>
      </trkpt>
      <trkpt lat="47.416991" lon="7.907401">
        <ele>552.764778</ele>
        <time>2021-11-20T19:19:28.122Z</time>
      </trkpt>
      <trkpt lat="47.416851" lon="7.907423">
        <ele>551.422607</ele>
        <time>2021-11-20T19:19:29.388Z</time>
      </trkpt>
      <trkpt lat="47.416753" lon="7.907390">
        <ele>550.464409</ele>
        <time>2021-11-20T19:19:30.274Z</time>
      </trkpt>
      <trkpt lat="47.416673" lon="7.907346">
        <ele>549.650649</ele>
        <time>2021-11-20T19:19:31.040Z</time>
      </trkpt>
      <trkpt lat="47.416637" lon="7.907164">
        <ele>548.456609</ele>
        <time>2021-11-20T19:19:32.224Z</time>
      </trkpt>
      <trkpt lat="47.416608" lon="7.907067">
        <ele>548.321960</ele>
        <time>2021-11-20T19:19:32.869Z</time>
      </trkpt>
      <trkpt lat="47.416442" lon="7.906759">
        <ele>547.821992</ele>
        <time>2021-11-20T19:19:35.335Z</time>
      </trkpt>
      <trkpt lat="47.416410" lon="7.906687">
        <ele>547.712615</ele>
        <time>2021-11-20T19:19:35.911Z</time>
      </trkpt>
      <trkpt lat="47.416398" lon="7.906605">
        <ele>547.606089</ele>
        <time>2021-11-20T19:19:36.427Z</time>
      </trkpt>
      <trkpt lat="47.416460" lon="7.906294">
        <ele>547.194422</ele>
        <time>2021-11-20T19:19:38.886Z</time>
      </trkpt>
      <trkpt lat="47.416580" lon="7.905705">
        <ele>546.413387</ele>
        <time>2021-11-20T19:19:43.632Z</time>
      </trkpt>
      <trkpt lat="47.416651" lon="7.905415">
        <ele>546.021805</ele>
        <time>2021-11-20T19:19:46.604Z</time>
      </trkpt>
      <trkpt lat="47.416773" lon="7.904932">
        <ele>545.367194</ele>
        <time>2021-11-20T19:19:52.342Z</time>
      </trkpt>
      <trkpt lat="47.416808" lon="7.904773">
        <ele>545.154894</ele>
        <time>2021-11-20T19:19:54.736Z</time>
      </trkpt>
      <trkpt lat="47.416822" lon="7.904701">
        <ele>545.169285</ele>
        <time>2021-11-20T19:19:55.730Z</time>
      </trkpt>
      <trkpt lat="47.416754" lon="7.904710">
        <ele>545.526632</ele>
        <time>2021-11-20T19:19:56.709Z</time>
      </trkpt>
      <trkpt lat="47.416543" lon="7.904651">
        <ele>546.650635</ele>
        <time>2021-11-20T19:20:01.880Z</time>
      </trkpt>
      <trkpt lat="47.416158" lon="7.904395">
        <ele>548.860369</ele>
        <time>2021-11-20T19:20:13.378Z</time>
      </trkpt>
      <trkpt lat="47.415794" lon="7.903917">
        <ele>551.409114</ele>
        <time>2021-11-20T19:20:34.826Z</time>
      </trkpt>
      <trkpt lat="47.415429" lon="7.903578">
        <ele>553.665553</ele>
        <time>2021-11-20T19:20:55.781Z</time>
      </trkpt>
      <trkpt lat="47.414946" lon="7.903337">
        <ele>556.097123</ele>
        <time>2021-11-20T19:21:17.954Z</time>
      </trkpt>
      <trkpt lat="47.414457" lon="7.903126">
        <ele>558.418712</ele>
        <time>2021-11-20T19:21:36.663Z</time>
      </trkpt>
      <trkpt lat="47.414360" lon="7.903055">
        <ele>558.912028</ele>
        <time>2021-11-20T19:21:39.361Z</time>
      </trkpt>
      <trkpt lat="47.413979" lon="7.902876">
        <ele>560.734008</ele>
        <time>2021-11-20T19:21:51.000Z</time>
      </trkpt>
      <trkpt lat="47.413779" lon="7.902818">
        <ele>561.662859</ele>
        <time>2021-11-20T19:21:56.918Z</time>
      </trkpt>
      <trkpt lat="47.413454" lon="7.902818">
        <ele>562.850064</ele>
        <time>2021-11-20T19:22:04.768Z</time>
      </trkpt>
      <trkpt lat="47.413324" lon="7.902797">
        <ele>563.051441</ele>
        <time>2021-11-20T19:22:07.832Z</time>
      </trkpt>
      <trkpt lat="47.413185" lon="7.902732">
        <ele>563.275945</ele>
        <time>2021-11-20T19:22:10.806Z</time>
      </trkpt>
      <trkpt lat="47.412722" lon="7.902491">
        <ele>564.031846</ele>
        <time>2021-11-20T19:22:18.529Z</time>
      </trkpt>
      <trkpt lat="47.412218" lon="7.902425">
        <ele>564.810986</ele>
        <time>2021-11-20T19:22:26.949Z</time>
      </trkpt>
      <trkpt lat="47.412053" lon="7.902324">
        <ele>565.086002</ele>
        <time>2021-11-20T19:22:30.960Z</time>
      </trkpt>
      <trkpt lat="47.411995" lon="7.902289">
        <ele>565.182475</ele>
        <time>2021-11-20T19:22:32.781Z</time>
      </trkpt>
      <trkpt lat="47.411203" lon="7.901793">
        <ele>567.657424</ele>
        <time>2021-11-20T19:22:56.070Z</time>
      </trkpt>
      <trkpt lat="47.410416" lon="7.901443">
        <ele>570.326514</ele>
        <time>2021-11-20T19:23:20.637Z</time>
      </trkpt>
      <trkpt lat="47.410305" lon="7.901395">
        <ele>570.702115</ele>
        <time>2021-11-20T19:23:24.110Z</time>
      </trkpt>
      <trkpt lat="47.410000" lon="7.901340">
        <ele>571.749214</ele>
        <time>2021-11-20T19:23:32.300Z</time>
      </trkpt>
      <trkpt lat="47.408980" lon="7.901427">
        <ele>575.487276</ele>
        <time>2021-11-20T19:24:00.879Z</time>
      </trkpt>
      <trkpt lat="47.408633" lon="7.901528">
        <ele>576.781233</ele>
        <time>2021-11-20T19:24:11.882Z</time>
      </trkpt>
      <trkpt lat="47.408249" lon="7.901503">
        <ele>578.374358</ele>
        <time>2021-11-20T19:24:23.976Z</time>
      </trkpt>
      <trkpt lat="47.407950" lon="7.901419">
        <ele>580.191040</ele>
        <time>2021-11-20T19:24:33.949Z</time>
      </trkpt>
      <trkpt lat="47.407700" lon="7.901346">
        <ele>581.712131</ele>
        <time>2021-11-20T19:24:42.512Z</time>
      </trkpt>
      <trkpt lat="47.407183" lon="7.901226">
        <ele>584.835910</ele>
        <time>2021-11-20T19:25:00.996Z</time>
      </trkpt>
      <trkpt lat="47.406056" lon="7.900591">
        <ele>593.346796</ele>
        <time>2021-11-20T19:25:58.304Z</time>
      </trkpt>
      <trkpt lat="47.405726" lon="7.900247">
        <ele>596.685090</ele>
        <time>2021-11-20T19:26:17.881Z</time>
      </trkpt>
      <trkpt lat="47.405648" lon="7.900181">
        <ele>597.428073</ele>
        <time>2021-11-20T19:26:22.831Z</time>
      </trkpt>
      <trkpt lat="47.405377" lon="7.900042">
        <ele>599.799272</ele>
        <time>2021-11-20T19:26:36.323Z</time>
      </trkpt>
      <trkpt lat="47.404734" lon="7.899896">
        <ele>604.951998</ele>
        <time>2021-11-20T19:27:07.894Z</time>
      </trkpt>
      <trkpt lat="47.404452" lon="7.899711">
        <ele>607.161700</ele>
        <time>2021-11-20T19:27:22.675Z</time>
      </trkpt>
      <trkpt lat="47.403746" lon="7.898667">
        <ele>614.315165</ele>
        <time>2021-11-20T19:28:04.954Z</time>
      </trkpt>
      <trkpt lat="47.403389" lon="7.898027">
        <ele>618.347345</ele>
        <time>2021-11-20T19:28:26.106Z</time>
      </trkpt>
      <trkpt lat="47.403337" lon="7.897962">
        <ele>618.838183</ele>
        <time>2021-11-20T19:28:29.646Z</time>
      </trkpt>
      <trkpt lat="47.403251" lon="7.897904">
        <ele>619.519424</ele>
        <time>2021-11-20T19:28:33.518Z</time>
      </trkpt>
      <trkpt lat="47.402533" lon="7.897738">
        <ele>624.756407</ele>
        <time>2021-11-20T19:29:03.308Z</time>
      </trkpt>
      <trkpt lat="47.402452" lon="7.897680">
        <ele>625.405045</ele>
        <time>2021-11-20T19:29:06.553Z</time>
      </trkpt>
      <trkpt lat="47.401903" lon="7.897350">
        <ele>629.737443</ele>
        <time>2021-11-20T19:29:37.588Z</time>
      </trkpt>
      <trkpt lat="47.400945" lon="7.896926">
        <ele>638.249492</ele>
        <time>2021-11-20T19:30:24.746Z</time>
      </trkpt>
      <trkpt lat="47.400890" lon="7.896903">
        <ele>638.736017</ele>
        <time>2021-11-20T19:30:29.536Z</time>
      </trkpt>
      <trkpt lat="47.400751" lon="7.896863">
        <ele>639.941352</ele>
        <time>2021-11-20T19:30:35.859Z</time>
      </trkpt>
      <trkpt lat="47.399796" lon="7.896698">
        <ele>647.423479</ele>
        <time>2021-11-20T19:31:23.186Z</time>
      </trkpt>
      <trkpt lat="47.399633" lon="7.896675">
        <ele>648.536003</ele>
        <time>2021-11-20T19:31:29.478Z</time>
      </trkpt>
      <trkpt lat="47.399538" lon="7.896644">
        <ele>649.197026</ele>
        <time>2021-11-20T19:31:34.219Z</time>
      </trkpt>
      <trkpt lat="47.399246" lon="7.896363">
        <ele>651.564764</ele>
        <time>2021-11-20T19:31:50.278Z</time>
      </trkpt>
      <trkpt lat="47.398784" lon="7.895173">
        <ele>657.478073</ele>
        <time>2021-11-20T19:32:24.305Z</time>
      </trkpt>
      <trkpt lat="47.397727" lon="7.893516">
        <ele>663.831296</ele>
        <time>2021-11-20T19:33:13.006Z</time>
      </trkpt>
      <trkpt lat="47.397426" lon="7.893177">
        <ele>664.865592</ele>
        <time>2021-11-20T19:33:22.440Z</time>
      </trkpt>
      <trkpt lat="47.396808" lon="7.892644">
        <ele>666.417310</ele>
        <time>2021-11-20T19:33:39.312Z</time>
      </trkpt>
      <trkpt lat="47.396399" lon="7.892118">
        <ele>667.593167</ele>
        <time>2021-11-20T19:33:51.113Z</time>
      </trkpt>
      <trkpt lat="47.395697" lon="7.890534">
        <ele>669.773395</ele>
        <time>2021-11-20T19:34:17.900Z</time>
      </trkpt>
      <trkpt lat="47.395169" lon="7.889680">
        <ele>671.006936</ele>
        <time>2021-11-20T19:34:34.488Z</time>
      </trkpt>
      <trkpt lat="47.394937" lon="7.889307">
        <ele>671.904727</ele>
        <time>2021-11-20T19:34:41.796Z</time>
      </trkpt>
      <trkpt lat="47.394848" lon="7.889167">
        <ele>672.247405</ele>
        <time>2021-11-20T19:34:44.623Z</time>
      </trkpt>
      <trkpt lat="47.394678" lon="7.888935">
        <ele>672.857432</ele>
        <time>2021-11-20T19:34:49.896Z</time>
      </trkpt>
      <trkpt lat="47.394482" lon="7.888702">
        <ele>673.520549</ele>
        <time>2021-11-20T19:34:55.904Z</time>
      </trkpt>
      <trkpt lat="47.394359" lon="7.888578">
        <ele>673.913051</ele>
        <time>2021-11-20T19:34:59.582Z</time>
      </trkpt>
      <trkpt lat="47.394146" lon="7.888371">
        <ele>674.585071</ele>
        <time>2021-11-20T19:35:05.725Z</time>
      </trkpt>
      <trkpt lat="47.393995" lon="7.888223">
        <ele>675.062713</ele>
        <time>2021-11-20T19:35:11.172Z</time>
      </trkpt>
      <trkpt lat="47.393916" lon="7.888143">
        <ele>675.315168</ele>
        <time>2021-11-20T19:35:13.399Z</time>
      </trkpt>
      <trkpt lat="47.393730" lon="7.887967">
        <ele>676.141297</ele>
        <time>2021-11-20T19:35:20.766Z</time>
      </trkpt>
      <trkpt lat="47.393623" lon="7.887857">
        <ele>677.080622</ele>
        <time>2021-11-20T19:35:23.914Z</time>
      </trkpt>
      <trkpt lat="47.393478" lon="7.887667">
        <ele>678.477247</ele>
        <time>2021-11-20T19:35:31.843Z</time>
      </trkpt>
      <trkpt lat="47.393429" lon="7.887604">
        <ele>678.945324</ele>
        <time>2021-11-20T19:35:34.183Z</time>
      </trkpt>
      <trkpt lat="47.393228" lon="7.887331">
        <ele>680.912794</ele>
        <time>2021-11-20T19:35:44.040Z</time>
      </trkpt>
      <trkpt lat="47.393034" lon="7.887066">
        <ele>682.816733</ele>
        <time>2021-11-20T19:35:55.385Z</time>
      </trkpt>
      <trkpt lat="47.392970" lon="7.886964">
        <ele>683.495126</ele>
        <time>2021-11-20T19:35:59.729Z</time>
      </trkpt>
      <trkpt lat="47.392849" lon="7.886770">
        <ele>684.781856</ele>
        <time>2021-11-20T19:36:08.282Z</time>
      </trkpt>
      <trkpt lat="47.392831" lon="7.886731">
        <ele>685.012101</ele>
        <time>2021-11-20T19:36:09.925Z</time>
      </trkpt>
      <trkpt lat="47.392756" lon="7.886570">
        <ele>685.965421</ele>
        <time>2021-11-20T19:36:17.867Z</time>
      </trkpt>
      <trkpt lat="47.392679" lon="7.886220">
        <ele>687.760590</ele>
        <time>2021-11-20T19:36:31.029Z</time>
      </trkpt>
      <trkpt lat="47.392677" lon="7.886170">
        <ele>688.004912</ele>
        <time>2021-11-20T19:36:33.781Z</time>
      </trkpt>
      <trkpt lat="47.392666" lon="7.885811">
        <ele>689.783013</ele>
        <time>2021-11-20T19:36:47.440Z</time>
      </trkpt>
      <trkpt lat="47.392623" lon="7.885495">
        <ele>691.393226</ele>
        <time>2021-11-20T19:36:59.078Z</time>
      </trkpt>
      <trkpt lat="47.392609" lon="7.885409">
        <ele>691.835102</ele>
        <time>2021-11-20T19:37:02.548Z</time>
      </trkpt>
      <trkpt lat="47.392513" lon="7.884798">
        <ele>694.968604</ele>
        <time>2021-11-20T19:37:23.772Z</time>
      </trkpt>
      <trkpt lat="47.392466" lon="7.884585">
        <ele>696.087787</ele>
        <time>2021-11-20T19:37:31.478Z</time>
      </trkpt>
      <trkpt lat="47.392466" lon="7.884585">
        <ele>696.087787</ele>
        <time>2021-11-20T19:37:31.484Z</time>
      </trkpt>
      <trkpt lat="47.392466" lon="7.884585">
        <ele>696.087787</ele>
        <time>2021-11-20T19:37:31.541Z</time>
      </trkpt>
      <trkpt lat="47.392294" lon="7.884155">
        <ele>698.582906</ele>
        <time>2021-11-20T19:37:45.494Z</time>
      </trkpt>
      <trkpt lat="47.392254" lon="7.884010">
        <ele>699.365119</ele>
        <time>2021-11-20T19:37:49.002Z</time>
      </trkpt>
      <trkpt lat="47.392243" lon="7.883926">
        <ele>699.792539</ele>
        <time>2021-11-20T19:37:51.911Z</time>
      </trkpt>
      <trkpt lat="47.392257" lon="7.883748">
        <ele>700.687759</ele>
        <time>2021-11-20T19:37:56.252Z</time>
      </trkpt>
      <trkpt lat="47.392295" lon="7.883568">
        <ele>701.629699</ele>
        <time>2021-11-20T19:38:00.159Z</time>
      </trkpt>
      <trkpt lat="47.392327" lon="7.883402">
        <ele>701.945910</ele>
        <time>2021-11-20T19:38:03.796Z</time>
      </trkpt>
      <trkpt lat="47.392391" lon="7.882852">
        <ele>701.701368</ele>
        <time>2021-11-20T19:38:12.867Z</time>
      </trkpt>
      <trkpt lat="47.392399" lon="7.882631">
        <ele>701.604388</ele>
        <time>2021-11-20T19:38:16.031Z</time>
      </trkpt>
      <trkpt lat="47.392394" lon="7.882220">
        <ele>701.424261</ele>
        <time>2021-11-20T19:38:19.646Z</time>
      </trkpt>
      <trkpt lat="47.392492" lon="7.881363">
        <ele>701.043408</ele>
        <time>2021-11-20T19:38:25.826Z</time>
      </trkpt>
      <trkpt lat="47.392530" lon="7.881231">
        <ele>700.980554</ele>
        <time>2021-11-20T19:38:26.742Z</time>
      </trkpt>
      <trkpt lat="47.392576" lon="7.881042">
        <ele>700.892545</ele>
        <time>2021-11-20T19:38:28.106Z</time>
      </trkpt>
      <trkpt lat="47.392973" lon="7.879797">
        <ele>696.549215</ele>
        <time>2021-11-20T19:38:37.132Z</time>
      </trkpt>
      <trkpt lat="47.393030" lon="7.879335">
        <ele>694.908028</ele>
        <time>2021-11-20T19:38:40.085Z</time>
      </trkpt>
      <trkpt lat="47.392980" lon="7.878739">
        <ele>692.809201</ele>
        <time>2021-11-20T19:38:43.806Z</time>
      </trkpt>
      <trkpt lat="47.392853" lon="7.877912">
        <ele>688.487219</ele>
        <time>2021-11-20T19:38:49.036Z</time>
      </trkpt>
      <trkpt lat="47.392796" lon="7.877526">
        <ele>685.999860</ele>
        <time>2021-11-20T19:38:51.425Z</time>
      </trkpt>
      <trkpt lat="47.392627" lon="7.875850">
        <ele>675.331512</ele>
        <time>2021-11-20T19:39:01.240Z</time>
      </trkpt>
      <trkpt lat="47.392620" lon="7.875265">
        <ele>671.373559</ele>
        <time>2021-11-20T19:39:04.623Z</time>
      </trkpt>
      <trkpt lat="47.392622" lon="7.875217">
        <ele>671.044545</ele>
        <time>2021-11-20T19:39:04.889Z</time>
      </trkpt>
      <trkpt lat="47.392645" lon="7.874997">
        <ele>669.521570</ele>
        <time>2021-11-20T19:39:06.202Z</time>
      </trkpt>
      <trkpt lat="47.392733" lon="7.874549">
        <ele>666.330159</ele>
        <time>2021-11-20T19:39:08.876Z</time>
      </trkpt>
      <trkpt lat="47.392729" lon="7.874456">
        <ele>665.692616</ele>
        <time>2021-11-20T19:39:09.411Z</time>
      </trkpt>
      <trkpt lat="47.392680" lon="7.874314">
        <ele>664.602194</ele>
        <time>2021-11-20T19:39:10.338Z</time>
      </trkpt>
      <trkpt lat="47.392178" lon="7.872950">
        <ele>655.561327</ele>
        <time>2021-11-20T19:39:19.429Z</time>
      </trkpt>
      <trkpt lat="47.392145" lon="7.872809">
        <ele>655.148379</ele>
        <time>2021-11-20T19:39:20.296Z</time>
      </trkpt>
      <trkpt lat="47.392122" lon="7.872711">
        <ele>654.861279</ele>
        <time>2021-11-20T19:39:21.029Z</time>
      </trkpt>
      <trkpt lat="47.392003" lon="7.871960">
        <ele>652.726349</ele>
        <time>2021-11-20T19:39:27.074Z</time>
      </trkpt>
      <trkpt lat="47.391971" lon="7.871747">
        <ele>652.122427</ele>
        <time>2021-11-20T19:39:28.347Z</time>
      </trkpt>
      <trkpt lat="47.391928" lon="7.871611">
        <ele>651.706949</ele>
        <time>2021-11-20T19:39:30.862Z</time>
      </trkpt>
      <trkpt lat="47.391668" lon="7.871191">
        <ele>650.131627</ele>
        <time>2021-11-20T19:39:35.139Z</time>
      </trkpt>
      <trkpt lat="47.391313" lon="7.870991">
        <ele>648.701811</ele>
        <time>2021-11-20T19:39:39.225Z</time>
      </trkpt>
      <trkpt lat="47.391248" lon="7.870968">
        <ele>648.476585</ele>
        <time>2021-11-20T19:39:42.345Z</time>
      </trkpt>
      <trkpt lat="47.391246" lon="7.870873">
        <ele>648.259763</ele>
        <time>2021-11-20T19:39:42.902Z</time>
      </trkpt>
      <trkpt lat="47.390810" lon="7.869784">
        <ele>645.373568</ele>
        <time>2021-11-20T19:39:53.047Z</time>
      </trkpt>
      <trkpt lat="47.390135" lon="7.868913">
        <ele>640.410784</ele>
        <time>2021-11-20T19:40:01.269Z</time>
      </trkpt>
      <trkpt lat="47.389999" lon="7.868629">
        <ele>637.839419</ele>
        <time>2021-11-20T19:40:03.313Z</time>
      </trkpt>
      <trkpt lat="47.389908" lon="7.868143">
        <ele>634.112117</ele>
        <time>2021-11-20T19:40:06.232Z</time>
      </trkpt>
      <trkpt lat="47.389913" lon="7.867526">
        <ele>629.551022</ele>
        <time>2021-11-20T19:40:09.739Z</time>
      </trkpt>
      <trkpt lat="47.390028" lon="7.865801">
        <ele>616.086154</ele>
        <time>2021-11-20T19:40:19.573Z</time>
      </trkpt>
      <trkpt lat="47.390057" lon="7.865367">
        <ele>612.555267</ele>
        <time>2021-11-20T19:40:22.051Z</time>
      </trkpt>
      <trkpt lat="47.390138" lon="7.864689">
        <ele>606.981135</ele>
        <time>2021-11-20T19:40:25.991Z</time>
      </trkpt>
      <trkpt lat="47.390658" lon="7.863426">
        <ele>597.354103</ele>
        <time>2021-11-20T19:40:34.668Z</time>
      </trkpt>
      <trkpt lat="47.390852" lon="7.863147">
        <ele>595.189925</ele>
        <time>2021-11-20T19:40:37.083Z</time>
      </trkpt>
      <trkpt lat="47.391861" lon="7.862140">
        <ele>585.902063</ele>
        <time>2021-11-20T19:40:48.012Z</time>
      </trkpt>
      <trkpt lat="47.391930" lon="7.862028">
        <ele>585.245604</ele>
        <time>2021-11-20T19:40:48.935Z</time>
      </trkpt>
      <trkpt lat="47.392013" lon="7.861871">
        <ele>584.382084</ele>
        <time>2021-11-20T19:40:50.128Z</time>
      </trkpt>
      <trkpt lat="47.392159" lon="7.861591">
        <ele>582.850000</ele>
        <time>2021-11-20T19:40:52.338Z</time>
      </trkpt>
      <trkpt lat="47.392252" lon="7.861291">
        <ele>581.419660</ele>
        <time>2021-11-20T19:40:54.361Z</time>
      </trkpt>
      <trkpt lat="47.392446" lon="7.860609">
        <ele>578.212865</ele>
        <time>2021-11-20T19:40:58.916Z</time>
      </trkpt>
      <trkpt lat="47.392873" lon="7.859213">
        <ele>573.040849</ele>
        <time>2021-11-20T19:41:08.508Z</time>
      </trkpt>
      <trkpt lat="47.393583" lon="7.857849">
        <ele>568.020780</ele>
        <time>2021-11-20T19:41:20.216Z</time>
      </trkpt>
      <trkpt lat="47.393712" lon="7.857629">
        <ele>567.300789</ele>
        <time>2021-11-20T19:41:22.221Z</time>
      </trkpt>
      <trkpt lat="47.393747" lon="7.857569">
        <ele>567.104862</ele>
        <time>2021-11-20T19:41:22.751Z</time>
      </trkpt>
      <trkpt lat="47.393840" lon="7.857424">
        <ele>566.610746</ele>
        <time>2021-11-20T19:41:24.132Z</time>
      </trkpt>
      <trkpt lat="47.394330" lon="7.856716">
        <ele>564.106058</ele>
        <time>2021-11-20T19:41:30.973Z</time>
      </trkpt>
      <trkpt lat="47.394762" lon="7.856268">
        <ele>562.177287</ele>
        <time>2021-11-20T19:41:36.135Z</time>
      </trkpt>
      <trkpt lat="47.394873" lon="7.856111">
        <ele>561.577007</ele>
        <time>2021-11-20T19:41:37.595Z</time>
      </trkpt>
      <trkpt lat="47.394997" lon="7.855921">
        <ele>560.749455</ele>
        <time>2021-11-20T19:41:39.368Z</time>
      </trkpt>
      <trkpt lat="47.395030" lon="7.855860">
        <ele>560.504608</ele>
        <time>2021-11-20T19:41:39.885Z</time>
      </trkpt>
      <trkpt lat="47.395075" lon="7.855775">
        <ele>560.166252</ele>
        <time>2021-11-20T19:41:40.568Z</time>
      </trkpt>
      <trkpt lat="47.395196" lon="7.855528">
        <ele>559.210232</ele>
        <time>2021-11-20T19:41:42.591Z</time>
      </trkpt>
      <trkpt lat="47.395261" lon="7.855418">
        <ele>558.752392</ele>
        <time>2021-11-20T19:41:43.538Z</time>
      </trkpt>
      <trkpt lat="47.395350" lon="7.855275">
        <ele>558.143291</ele>
        <time>2021-11-20T19:41:44.799Z</time>
      </trkpt>
      <trkpt lat="47.395428" lon="7.855175">
        <ele>557.664902</ele>
        <time>2021-11-20T19:41:45.839Z</time>
      </trkpt>
      <trkpt lat="47.395483" lon="7.855116">
        <ele>557.350055</ele>
        <time>2021-11-20T19:41:46.494Z</time>
      </trkpt>
      <trkpt lat="47.395563" lon="7.855042">
        <ele>556.912841</ele>
        <time>2021-11-20T19:41:47.384Z</time>
      </trkpt>
      <trkpt lat="47.395630" lon="7.854989">
        <ele>556.560800</ele>
        <time>2021-11-20T19:41:48.088Z</time>
      </trkpt>
      <trkpt lat="47.396094" lon="7.854648">
        <ele>554.160262</ele>
        <time>2021-11-20T19:41:52.948Z</time>
      </trkpt>
      <trkpt lat="47.396458" lon="7.854340">
        <ele>552.168982</ele>
        <time>2021-11-20T19:41:56.856Z</time>
      </trkpt>
      <trkpt lat="47.396734" lon="7.854071">
        <ele>550.576423</ele>
        <time>2021-11-20T19:41:59.952Z</time>
      </trkpt>
      <trkpt lat="47.396904" lon="7.853864">
        <ele>549.515355</ele>
        <time>2021-11-20T19:42:02.083Z</time>
      </trkpt>
      <trkpt lat="47.396956" lon="7.853787">
        <ele>549.160747</ele>
        <time>2021-11-20T19:42:02.757Z</time>
      </trkpt>
      <trkpt lat="47.397013" lon="7.853694">
        <ele>548.751721</ele>
        <time>2021-11-20T19:42:03.550Z</time>
      </trkpt>
      <trkpt lat="47.397171" lon="7.853390">
        <ele>547.502154</ele>
        <time>2021-11-20T19:42:06.054Z</time>
      </trkpt>
      <trkpt lat="47.397240" lon="7.853282">
        <ele>547.017982</ele>
        <time>2021-11-20T19:42:06.994Z</time>
      </trkpt>
      <trkpt lat="47.397399" lon="7.853113">
        <ele>546.074566</ele>
        <time>2021-11-20T19:42:08.948Z</time>
      </trkpt>
      <trkpt lat="47.397466" lon="7.853058">
        <ele>545.705396</ele>
        <time>2021-11-20T19:42:09.649Z</time>
      </trkpt>
      <trkpt lat="47.397512" lon="7.852929">
        <ele>545.230038</ele>
        <time>2021-11-20T19:42:10.571Z</time>
      </trkpt>
      <trkpt lat="47.397687" lon="7.852768">
        <ele>544.292320</ele>
        <time>2021-11-20T19:42:12.616Z</time>
      </trkpt>
      <trkpt lat="47.397732" lon="7.852726">
        <ele>544.062716</ele>
        <time>2021-11-20T19:42:13.102Z</time>
      </trkpt>
      <trkpt lat="47.398683" lon="7.852271">
        <ele>539.750756</ele>
        <time>2021-11-20T19:42:22.737Z</time>
      </trkpt>
      <trkpt lat="47.398855" lon="7.852033">
        <ele>538.734208</ele>
        <time>2021-11-20T19:42:24.983Z</time>
      </trkpt>
      <trkpt lat="47.399381" lon="7.851687">
        <ele>536.142458</ele>
        <time>2021-11-20T19:42:30.661Z</time>
      </trkpt>
      <trkpt lat="47.400271" lon="7.851396">
        <ele>531.649168</ele>
        <time>2021-11-20T19:42:39.350Z</time>
      </trkpt>
      <trkpt lat="47.400404" lon="7.851285">
        <ele>530.896186</ele>
        <time>2021-11-20T19:42:40.770Z</time>
      </trkpt>
      <trkpt lat="47.400724" lon="7.850685">
        <ele>528.347490</ele>
        <time>2021-11-20T19:42:45.603Z</time>
      </trkpt>
      <trkpt lat="47.400801" lon="7.850539">
        <ele>527.635582</ele>
        <time>2021-11-20T19:42:46.749Z</time>
      </trkpt>
      <trkpt lat="47.402640" lon="7.849136">
        <ele>515.539172</ele>
        <time>2021-11-20T19:43:05.660Z</time>
      </trkpt>
      <trkpt lat="47.403067" lon="7.848750">
        <ele>513.135128</ele>
        <time>2021-11-20T19:43:10.298Z</time>
      </trkpt>
      <trkpt lat="47.403453" lon="7.848183">
        <ele>510.521106</ele>
        <time>2021-11-20T19:43:15.465Z</time>
      </trkpt>
      <trkpt lat="47.404016" lon="7.847743">
        <ele>508.337059</ele>
        <time>2021-11-20T19:43:21.950Z</time>
      </trkpt>
      <trkpt lat="47.404047" lon="7.847714">
        <ele>508.295870</ele>
        <time>2021-11-20T19:43:22.296Z</time>
      </trkpt>
      <trkpt lat="47.404245" lon="7.847452">
        <ele>507.997483</ele>
        <time>2021-11-20T19:43:25.286Z</time>
      </trkpt>
      <trkpt lat="47.404354" lon="7.847312">
        <ele>507.835348</ele>
        <time>2021-11-20T19:43:26.876Z</time>
      </trkpt>
      <trkpt lat="47.404540" lon="7.847030">
        <ele>507.536170</ele>
        <time>2021-11-20T19:43:30.214Z</time>
      </trkpt>
      <trkpt lat="47.404926" lon="7.846030">
        <ele>506.661495</ele>
        <time>2021-11-20T19:43:41.552Z</time>
      </trkpt>
      <trkpt lat="47.405464" lon="7.845136">
        <ele>506.339993</ele>
        <time>2021-11-20T19:43:55.570Z</time>
      </trkpt>
      <trkpt lat="47.405496" lon="7.845083">
        <ele>506.324121</ele>
        <time>2021-11-20T19:43:56.711Z</time>
      </trkpt>
      <trkpt lat="47.406046" lon="7.844638">
        <ele>506.117086</ele>
        <time>2021-11-20T19:44:04.064Z</time>
      </trkpt>
      <trkpt lat="47.406522" lon="7.844392">
        <ele>505.671703</ele>
        <time>2021-11-20T19:44:10.763Z</time>
      </trkpt>
      <trkpt lat="47.406657" lon="7.844343">
        <ele>505.308169</ele>
        <time>2021-11-20T19:44:12.764Z</time>
      </trkpt>
      <trkpt lat="47.406729" lon="7.844331">
        <ele>505.118689</ele>
        <time>2021-11-20T19:44:13.455Z</time>
      </trkpt>
      <trkpt lat="47.407179" lon="7.844394">
        <ele>503.936626</ele>
        <time>2021-11-20T19:44:19.920Z</time>
      </trkpt>
      <trkpt lat="47.407338" lon="7.844468">
        <ele>503.500688</ele>
        <time>2021-11-20T19:44:21.545Z</time>
      </trkpt>
      <trkpt lat="47.408022" lon="7.844815">
        <ele>501.609474</ele>
        <time>2021-11-20T19:44:31.831Z</time>
      </trkpt>
      <trkpt lat="47.408130" lon="7.844887">
        <ele>501.299628</ele>
        <time>2021-11-20T19:44:33.299Z</time>
      </trkpt>
      <trkpt lat="47.408170" lon="7.844961">
        <ele>500.998724</ele>
        <time>2021-11-20T19:44:34.934Z</time>
      </trkpt>
      <trkpt lat="47.408437" lon="7.844931">
        <ele>499.697300</ele>
        <time>2021-11-20T19:44:37.380Z</time>
      </trkpt>
      <trkpt lat="47.409142" lon="7.844968">
        <ele>496.268687</ele>
        <time>2021-11-20T19:44:44.241Z</time>
      </trkpt>
      <trkpt lat="47.409210" lon="7.844968">
        <ele>495.938192</ele>
        <time>2021-11-20T19:44:44.866Z</time>
      </trkpt>
      <trkpt lat="47.409459" lon="7.844940">
        <ele>494.724499</ele>
        <time>2021-11-20T19:44:47.226Z</time>
      </trkpt>
      <trkpt lat="47.409665" lon="7.844882">
        <ele>493.705281</ele>
        <time>2021-11-20T19:44:49.192Z</time>
      </trkpt>
      <trkpt lat="47.409752" lon="7.844850">
        <ele>493.269539</ele>
        <time>2021-11-20T19:44:49.979Z</time>
      </trkpt>
      <trkpt lat="47.409830" lon="7.844820">
        <ele>492.877811</ele>
        <time>2021-11-20T19:44:50.720Z</time>
      </trkpt>
      <trkpt lat="47.409986" lon="7.844760">
        <ele>492.183926</ele>
        <time>2021-11-20T19:44:52.185Z</time>
      </trkpt>
      <trkpt lat="47.410148" lon="7.844709">
        <ele>491.538740</ele>
        <time>2021-11-20T19:44:53.744Z</time>
      </trkpt>
      <trkpt lat="47.410293" lon="7.844651">
        <ele>490.953606</ele>
        <time>2021-11-20T19:44:55.184Z</time>
      </trkpt>
      <trkpt lat="47.410433" lon="7.844607">
        <ele>490.396079</ele>
        <time>2021-11-20T19:44:56.534Z</time>
      </trkpt>
      <trkpt lat="47.411166" lon="7.844371">
        <ele>487.473902</ele>
        <time>2021-11-20T19:45:03.913Z</time>
      </trkpt>
      <trkpt lat="47.411235" lon="7.844348">
        <ele>487.198380</ele>
        <time>2021-11-20T19:45:04.682Z</time>
      </trkpt>
      <trkpt lat="47.411264" lon="7.844343">
        <ele>487.084652</ele>
        <time>2021-11-20T19:45:05.079Z</time>
      </trkpt>
      <trkpt lat="47.411785" lon="7.844178">
        <ele>485.178496</ele>
        <time>2021-11-20T19:45:10.706Z</time>
      </trkpt>
      <trkpt lat="47.412769" lon="7.843850">
        <ele>482.504138</ele>
        <time>2021-11-20T19:45:21.305Z</time>
      </trkpt>
      <trkpt lat="47.412891" lon="7.843894">
        <ele>482.171194</ele>
        <time>2021-11-20T19:45:23.142Z</time>
      </trkpt>
      <trkpt lat="47.413673" lon="7.843752">
        <ele>480.431389</ele>
        <time>2021-11-20T19:45:34.953Z</time>
      </trkpt>
      <trkpt lat="47.414348" lon="7.843765">
        <ele>479.549090</ele>
        <time>2021-11-20T19:45:45.517Z</time>
      </trkpt>
      <trkpt lat="47.414534" lon="7.843769">
        <ele>479.305963</ele>
        <time>2021-11-20T19:45:48.809Z</time>
      </trkpt>
      <trkpt lat="47.414737" lon="7.843840">
        <ele>479.033312</ele>
        <time>2021-11-20T19:45:52.541Z</time>
      </trkpt>
      <trkpt lat="47.415123" lon="7.843938">
        <ele>478.521420</ele>
        <time>2021-11-20T19:45:59.994Z</time>
      </trkpt>
      <trkpt lat="47.415184" lon="7.843954">
        <ele>478.440447</ele>
        <time>2021-11-20T19:46:01.450Z</time>
      </trkpt>
      <trkpt lat="47.416215" lon="7.844386">
        <ele>478.445247</ele>
        <time>2021-11-20T19:46:25.709Z</time>
      </trkpt>
      <trkpt lat="47.417039" lon="7.844872">
        <ele>478.108073</ele>
        <time>2021-11-20T19:46:43.011Z</time>
      </trkpt>
      <trkpt lat="47.417634" lon="7.845250">
        <ele>476.517244</ele>
        <time>2021-11-20T19:46:53.303Z</time>
      </trkpt>
      <trkpt lat="47.417834" lon="7.845378">
        <ele>475.981892</ele>
        <time>2021-11-20T19:46:56.473Z</time>
      </trkpt>
      <trkpt lat="47.418028" lon="7.845491">
        <ele>475.469689</ele>
        <time>2021-11-20T19:46:59.576Z</time>
      </trkpt>
      <trkpt lat="47.418505" lon="7.845770">
        <ele>474.209598</ele>
        <time>2021-11-20T19:47:06.960Z</time>
      </trkpt>
      <trkpt lat="47.418787" lon="7.845930">
        <ele>473.215377</ele>
        <time>2021-11-20T19:47:11.198Z</time>
      </trkpt>
      <trkpt lat="47.419677" lon="7.846349">
        <ele>469.918630</ele>
        <time>2021-11-20T19:47:24.466Z</time>
      </trkpt>
      <trkpt lat="47.420292" lon="7.846569">
        <ele>467.686942</ele>
        <time>2021-11-20T19:47:33.598Z</time>
      </trkpt>
      <trkpt lat="47.421216" lon="7.846840">
        <ele>464.830968</ele>
        <time>2021-11-20T19:47:47.549Z</time>
      </trkpt>
      <trkpt lat="47.421469" lon="7.846914">
        <ele>464.049056</ele>
        <time>2021-11-20T19:47:51.358Z</time>
      </trkpt>
      <trkpt lat="47.421782" lon="7.847034">
        <ele>463.068709</ele>
        <time>2021-11-20T19:47:56.080Z</time>
      </trkpt>
      <trkpt lat="47.422224" lon="7.847204">
        <ele>461.837532</ele>
        <time>2021-11-20T19:48:02.788Z</time>
      </trkpt>
      <trkpt lat="47.422830" lon="7.847504">
        <ele>460.431372</ele>
        <time>2021-11-20T19:48:12.365Z</time>
      </trkpt>
      <trkpt lat="47.423160" lon="7.847639">
        <ele>459.677989</ele>
        <time>2021-11-20T19:48:17.723Z</time>
      </trkpt>
      <trkpt lat="47.423175" lon="7.847645">
        <ele>459.643798</ele>
        <time>2021-11-20T19:48:17.968Z</time>
      </trkpt>
      <trkpt lat="47.423326" lon="7.847739">
        <ele>459.283294</ele>
        <time>2021-11-20T19:48:20.661Z</time>
      </trkpt>
      <trkpt lat="47.423401" lon="7.847760">
        <ele>459.115340</ele>
        <time>2021-11-20T19:48:21.924Z</time>
      </trkpt>
      <trkpt lat="47.423488" lon="7.847784">
        <ele>458.920612</ele>
        <time>2021-11-20T19:48:23.404Z</time>
      </trkpt>
      <trkpt lat="47.423788" lon="7.847858">
        <ele>458.262177</ele>
        <time>2021-11-20T19:48:28.354Z</time>
      </trkpt>
      <trkpt lat="47.423887" lon="7.847874">
        <ele>458.110856</ele>
        <time>2021-11-20T19:48:30.106Z</time>
      </trkpt>
      <trkpt lat="47.424743" lon="7.847935">
        <ele>456.808705</ele>
        <time>2021-11-20T19:48:44.334Z</time>
      </trkpt>
      <trkpt lat="47.425016" lon="7.848030">
        <ele>456.382558</ele>
        <time>2021-11-20T19:48:49.070Z</time>
      </trkpt>
      <trkpt lat="47.425093" lon="7.848037">
        <ele>456.265340</ele>
        <time>2021-11-20T19:48:50.366Z</time>
      </trkpt>
      <trkpt lat="47.425165" lon="7.848031">
        <ele>456.155766</ele>
        <time>2021-11-20T19:48:51.449Z</time>
      </trkpt>
      <trkpt lat="47.427648" lon="7.848283">
        <ele>451.827456</ele>
        <time>2021-11-20T19:49:31.407Z</time>
      </trkpt>
      <trkpt lat="47.428268" lon="7.848175">
        <ele>450.712333</ele>
        <time>2021-11-20T19:49:41.507Z</time>
      </trkpt>
      <trkpt lat="47.428781" lon="7.847991">
        <ele>449.769409</ele>
        <time>2021-11-20T19:49:49.944Z</time>
      </trkpt>
      <trkpt lat="47.429321" lon="7.847805">
        <ele>448.671999</ele>
        <time>2021-11-20T19:49:58.842Z</time>
      </trkpt>
      <trkpt lat="47.429436" lon="7.847758">
        <ele>448.395572</ele>
        <time>2021-11-20T19:50:00.669Z</time>
      </trkpt>
      <trkpt lat="47.430098" lon="7.847528">
        <ele>446.820062</ele>
        <time>2021-11-20T19:50:11.258Z</time>
      </trkpt>
      <trkpt lat="47.430641" lon="7.847433">
        <ele>445.553264</ele>
        <time>2021-11-20T19:50:19.499Z</time>
      </trkpt>
      <trkpt lat="47.431292" lon="7.847484">
        <ele>444.096497</ele>
        <time>2021-11-20T19:50:29.196Z</time>
      </trkpt>
      <trkpt lat="47.431726" lon="7.847615">
        <ele>443.129436</ele>
        <time>2021-11-20T19:50:36.071Z</time>
      </trkpt>
      <trkpt lat="47.432368" lon="7.847858">
        <ele>441.682604</ele>
        <time>2021-11-20T19:50:46.530Z</time>
      </trkpt>
      <trkpt lat="47.432515" lon="7.847914">
        <ele>441.351188</ele>
        <time>2021-11-20T19:50:49.079Z</time>
      </trkpt>
      <trkpt lat="47.433365" lon="7.848309">
        <ele>439.831491</ele>
        <time>2021-11-20T19:51:03.371Z</time>
      </trkpt>
      <trkpt lat="47.433528" lon="7.848396">
        <ele>439.551353</ele>
        <time>2021-11-20T19:51:06.372Z</time>
      </trkpt>
      <trkpt lat="47.433795" lon="7.848524">
        <ele>439.097620</ele>
        <time>2021-11-20T19:51:10.951Z</time>
      </trkpt>
      <trkpt lat="47.434500" lon="7.848920">
        <ele>437.824075</ele>
        <time>2021-11-20T19:51:23.393Z</time>
      </trkpt>
      <trkpt lat="47.436050" lon="7.850036">
        <ele>434.517492</ele>
        <time>2021-11-20T19:51:50.231Z</time>
      </trkpt>
      <trkpt lat="47.436479" lon="7.850260">
        <ele>433.972700</ele>
        <time>2021-11-20T19:51:57.796Z</time>
      </trkpt>
      <trkpt lat="47.436538" lon="7.850283">
        <ele>433.899637</ele>
        <time>2021-11-20T19:51:58.666Z</time>
      </trkpt>
      <trkpt lat="47.436663" lon="7.850327">
        <ele>433.745775</ele>
        <time>2021-11-20T19:52:01.100Z</time>
      </trkpt>
      <trkpt lat="47.437310" lon="7.850269">
        <ele>432.969619</ele>
        <time>2021-11-20T19:52:12.320Z</time>
      </trkpt>
      <trkpt lat="47.437750" lon="7.850017">
        <ele>432.406523</ele>
        <time>2021-11-20T19:52:20.917Z</time>
      </trkpt>
      <trkpt lat="47.438127" lon="7.849642">
        <ele>431.879311</ele>
        <time>2021-11-20T19:52:29.291Z</time>
      </trkpt>
      <trkpt lat="47.442391" lon="7.843670">
        <ele>424.661953</ele>
        <time>2021-11-20T19:54:08.585Z</time>
      </trkpt>
      <trkpt lat="47.443079" lon="7.842585">
        <ele>422.936905</ele>
        <time>2021-11-20T19:54:24.665Z</time>
      </trkpt>
      <trkpt lat="47.444584" lon="7.839628">
        <ele>416.759580</ele>
        <time>2021-11-20T19:55:02.791Z</time>
      </trkpt>
      <trkpt lat="47.445072" lon="7.838787">
        <ele>414.731789</ele>
        <time>2021-11-20T19:55:13.903Z</time>
      </trkpt>
      <trkpt lat="47.445528" lon="7.838233">
        <ele>413.064116</ele>
        <time>2021-11-20T19:55:22.611Z</time>
      </trkpt>
      <trkpt lat="47.446064" lon="7.837840">
        <ele>411.348206</ele>
        <time>2021-11-20T19:55:31.435Z</time>
      </trkpt>
      <trkpt lat="47.446145" lon="7.837696">
        <ele>410.984911</ele>
        <time>2021-11-20T19:55:33.318Z</time>
      </trkpt>
      <trkpt lat="47.447146" lon="7.836805">
        <ele>407.767670</ele>
        <time>2021-11-20T19:55:50.778Z</time>
      </trkpt>
      <trkpt lat="47.448622" lon="7.835311">
        <ele>403.357453</ele>
        <time>2021-11-20T19:56:17.818Z</time>
      </trkpt>
      <trkpt lat="47.448978" lon="7.835062">
        <ele>402.530717</ele>
        <time>2021-11-20T19:56:23.893Z</time>
      </trkpt>
      <trkpt lat="47.448956" lon="7.834983">
        <ele>402.409428</ele>
        <time>2021-11-20T19:56:24.793Z</time>
      </trkpt>
      <trkpt lat="47.449275" lon="7.834788">
        <ele>401.684787</ele>
        <time>2021-11-20T19:56:28.602Z</time>
      </trkpt>
      <trkpt lat="47.449505" lon="7.834629">
        <ele>401.151791</ele>
        <time>2021-11-20T19:56:31.482Z</time>
      </trkpt>
      <trkpt lat="47.449669" lon="7.834494">
        <ele>400.757758</ele>
        <time>2021-11-20T19:56:33.573Z</time>
      </trkpt>
      <trkpt lat="47.449811" lon="7.834354">
        <ele>400.557305</ele>
        <time>2021-11-20T19:56:35.603Z</time>
      </trkpt>
      <trkpt lat="47.450016" lon="7.834124">
        <ele>400.326755</ele>
        <time>2021-11-20T19:56:38.570Z</time>
      </trkpt>
      <trkpt lat="47.451121" lon="7.832696">
        <ele>399.050823</ele>
        <time>2021-11-20T19:56:57.102Z</time>
      </trkpt>
      <trkpt lat="47.451327" lon="7.832461">
        <ele>398.994121</ele>
        <time>2021-11-20T19:57:01.028Z</time>
      </trkpt>
      <trkpt lat="47.451426" lon="7.832356">
        <ele>398.967568</ele>
        <time>2021-11-20T19:57:02.695Z</time>
      </trkpt>
      <trkpt lat="47.451701" lon="7.832106">
        <ele>398.897214</ele>
        <time>2021-11-20T19:57:07.508Z</time>
      </trkpt>
      <trkpt lat="47.451989" lon="7.831857">
        <ele>398.824506</ele>
        <time>2021-11-20T19:57:12.591Z</time>
      </trkpt>
      <trkpt lat="47.452175" lon="7.831696">
        <ele>398.777535</ele>
        <time>2021-11-20T19:57:16.072Z</time>
      </trkpt>
      <trkpt lat="47.452373" lon="7.831505">
        <ele>398.726013</ele>
        <time>2021-11-20T19:57:19.371Z</time>
      </trkpt>
      <trkpt lat="47.452618" lon="7.831252">
        <ele>398.610646</ele>
        <time>2021-11-20T19:57:23.530Z</time>
      </trkpt>
      <trkpt lat="47.453163" lon="7.830572">
        <ele>397.706265</ele>
        <time>2021-11-20T19:57:32.454Z</time>
      </trkpt>
      <trkpt lat="47.453250" lon="7.830464">
        <ele>397.562200</ele>
        <time>2021-11-20T19:57:33.768Z</time>
      </trkpt>
      <trkpt lat="47.453398" lon="7.830308">
        <ele>397.331691</ele>
        <time>2021-11-20T19:57:36.047Z</time>
      </trkpt>
      <trkpt lat="47.453492" lon="7.830220">
        <ele>397.190590</ele>
        <time>2021-11-20T19:57:37.269Z</time>
      </trkpt>
      <trkpt lat="47.453757" lon="7.829984">
        <ele>396.798251</ele>
        <time>2021-11-20T19:57:40.874Z</time>
      </trkpt>
      <trkpt lat="47.453989" lon="7.829813">
        <ele>396.469483</ele>
        <time>2021-11-20T19:57:43.638Z</time>
      </trkpt>
      <trkpt lat="47.454287" lon="7.829611">
        <ele>395.880121</ele>
        <time>2021-11-20T19:57:47.062Z</time>
      </trkpt>
      <trkpt lat="47.454472" lon="7.829506">
        <ele>395.499088</ele>
        <time>2021-11-20T19:57:49.309Z</time>
      </trkpt>
      <trkpt lat="47.454625" lon="7.829495">
        <ele>395.204538</ele>
        <time>2021-11-20T19:57:50.858Z</time>
      </trkpt>
      <trkpt lat="47.454803" lon="7.829577">
        <ele>394.846042</ele>
        <time>2021-11-20T19:57:52.978Z</time>
      </trkpt>
      <trkpt lat="47.455119" lon="7.829864">
        <ele>394.132974</ele>
        <time>2021-11-20T19:57:57.034Z</time>
      </trkpt>
      <trkpt lat="47.455185" lon="7.829882">
        <ele>394.003923</ele>
        <time>2021-11-20T19:57:57.707Z</time>
      </trkpt>
      <trkpt lat="47.455265" lon="7.829874">
        <ele>393.849740</ele>
        <time>2021-11-20T19:57:58.541Z</time>
      </trkpt>
      <trkpt lat="47.455471" lon="7.829717">
        <ele>393.404120</ele>
        <time>2021-11-20T19:58:01.368Z</time>
      </trkpt>
      <trkpt lat="47.455556" lon="7.829615">
        <ele>393.193639</ele>
        <time>2021-11-20T19:58:02.502Z</time>
      </trkpt>
      <trkpt lat="47.455802" lon="7.829313">
        <ele>392.813739</ele>
        <time>2021-11-20T19:58:06.493Z</time>
      </trkpt>
      <trkpt lat="47.455924" lon="7.829166">
        <ele>392.712703</ele>
        <time>2021-11-20T19:58:08.349Z</time>
      </trkpt>
      <trkpt lat="47.455989" lon="7.829100">
        <ele>392.662080</ele>
        <time>2021-11-20T19:58:09.551Z</time>
      </trkpt>
      <trkpt lat="47.456107" lon="7.828977">
        <ele>392.569391</ele>
        <time>2021-11-20T19:58:11.254Z</time>
      </trkpt>
      <trkpt lat="47.456883" lon="7.828406">
        <ele>392.012898</ele>
        <time>2021-11-20T19:58:22.289Z</time>
      </trkpt>
      <trkpt lat="47.457111" lon="7.828245">
        <ele>391.850681</ele>
        <time>2021-11-20T19:58:26.607Z</time>
      </trkpt>
      <trkpt lat="47.457158" lon="7.828212">
        <ele>391.817276</ele>
        <time>2021-11-20T19:58:27.234Z</time>
      </trkpt>
      <trkpt lat="47.457581" lon="7.827803">
        <ele>391.885332</ele>
        <time>2021-11-20T19:58:35.364Z</time>
      </trkpt>
      <trkpt lat="47.457644" lon="7.827725">
        <ele>391.905530</ele>
        <time>2021-11-20T19:58:36.584Z</time>
      </trkpt>
      <trkpt lat="47.457712" lon="7.827647">
        <ele>391.926686</ele>
        <time>2021-11-20T19:58:37.926Z</time>
      </trkpt>
      <trkpt lat="47.457842" lon="7.827433">
        <ele>391.974506</ele>
        <time>2021-11-20T19:58:41.126Z</time>
      </trkpt>
      <trkpt lat="47.458019" lon="7.827141">
        <ele>392.039693</ele>
        <time>2021-11-20T19:58:45.454Z</time>
      </trkpt>
      <trkpt lat="47.458261" lon="7.826740">
        <ele>392.129038</ele>
        <time>2021-11-20T19:58:51.596Z</time>
      </trkpt>
      <trkpt lat="47.458747" lon="7.825916">
        <ele>391.976536</ele>
        <time>2021-11-20T19:59:02.944Z</time>
      </trkpt>
      <trkpt lat="47.458942" lon="7.825616">
        <ele>391.794287</ele>
        <time>2021-11-20T19:59:07.205Z</time>
      </trkpt>
      <trkpt lat="47.458995" lon="7.825541">
        <ele>391.746775</ele>
        <time>2021-11-20T19:59:08.363Z</time>
      </trkpt>
      <trkpt lat="47.459101" lon="7.825404">
        <ele>391.655595</ele>
        <time>2021-11-20T19:59:10.600Z</time>
      </trkpt>
      <trkpt lat="47.459273" lon="7.825195">
        <ele>391.511409</ele>
        <time>2021-11-20T19:59:13.347Z</time>
      </trkpt>
      <trkpt lat="47.459476" lon="7.824983">
        <ele>391.350447</ele>
        <time>2021-11-20T19:59:16.346Z</time>
      </trkpt>
      <trkpt lat="47.459583" lon="7.824865">
        <ele>391.263995</ele>
        <time>2021-11-20T19:59:18.001Z</time>
      </trkpt>
      <trkpt lat="47.459717" lon="7.824715">
        <ele>391.155144</ele>
        <time>2021-11-20T19:59:20.043Z</time>
      </trkpt>
      <trkpt lat="47.459781" lon="7.824650">
        <ele>391.104857</ele>
        <time>2021-11-20T19:59:20.854Z</time>
      </trkpt>
      <trkpt lat="47.460099" lon="7.824303">
        <ele>390.113886</ele>
        <time>2021-11-20T19:59:25.181Z</time>
      </trkpt>
      <trkpt lat="47.460235" lon="7.824168">
        <ele>389.627255</ele>
        <time>2021-11-20T19:59:26.982Z</time>
      </trkpt>
      <trkpt lat="47.460305" lon="7.824097">
        <ele>389.375075</ele>
        <time>2021-11-20T19:59:27.859Z</time>
      </trkpt>
      <trkpt lat="47.460395" lon="7.824018">
        <ele>389.064135</ele>
        <time>2021-11-20T19:59:28.886Z</time>
      </trkpt>
      <trkpt lat="47.460476" lon="7.823773">
        <ele>388.516302</ele>
        <time>2021-11-20T19:59:31.574Z</time>
      </trkpt>
      <trkpt lat="47.460497" lon="7.823707">
        <ele>388.369777</ele>
        <time>2021-11-20T19:59:32.311Z</time>
      </trkpt>
      <trkpt lat="47.460652" lon="7.823230">
        <ele>387.306686</ele>
        <time>2021-11-20T19:59:37.474Z</time>
      </trkpt>
      <trkpt lat="47.460919" lon="7.822346">
        <ele>385.312580</ele>
        <time>2021-11-20T19:59:46.793Z</time>
      </trkpt>
      <trkpt lat="47.461386" lon="7.820911">
        <ele>381.660858</ele>
        <time>2021-11-20T20:00:02.105Z</time>
      </trkpt>
      <trkpt lat="47.461451" lon="7.820719">
        <ele>381.168506</ele>
        <time>2021-11-20T20:00:04.257Z</time>
      </trkpt>
      <trkpt lat="47.461546" lon="7.820441">
        <ele>380.454272</ele>
        <time>2021-11-20T20:00:07.257Z</time>
      </trkpt>
      <trkpt lat="47.461612" lon="7.820356">
        <ele>380.157474</ele>
        <time>2021-11-20T20:00:08.623Z</time>
      </trkpt>
      <trkpt lat="47.461730" lon="7.820282">
        <ele>379.722795</ele>
        <time>2021-11-20T20:00:10.519Z</time>
      </trkpt>
      <trkpt lat="47.461722" lon="7.820179">
        <ele>379.554462</ele>
        <time>2021-11-20T20:00:11.203Z</time>
      </trkpt>
      <trkpt lat="47.461754" lon="7.819910">
        <ele>379.276537</ele>
        <time>2021-11-20T20:00:13.234Z</time>
      </trkpt>
      <trkpt lat="47.461818" lon="7.819635">
        <ele>378.980598</ele>
        <time>2021-11-20T20:00:15.258Z</time>
      </trkpt>
      <trkpt lat="47.461818" lon="7.819635">
        <ele>378.980598</ele>
        <time>2021-11-20T20:00:15.288Z</time>
      </trkpt>
      <trkpt lat="47.461832" lon="7.819582">
        <ele>378.922698</ele>
        <time>2021-11-20T20:00:15.725Z</time>
      </trkpt>
      <trkpt lat="47.461833" lon="7.819386">
        <ele>378.723254</ele>
        <time>2021-11-20T20:00:17.267Z</time>
      </trkpt>
      <trkpt lat="47.461803" lon="7.819336">
        <ele>378.655231</ele>
        <time>2021-11-20T20:00:17.777Z</time>
      </trkpt>
      <trkpt lat="47.461912" lon="7.819188">
        <ele>378.432538</ele>
        <time>2021-11-20T20:00:19.347Z</time>
      </trkpt>
      <trkpt lat="47.461960" lon="7.819120">
        <ele>378.332505</ele>
        <time>2021-11-20T20:00:20.157Z</time>
      </trkpt>
      <trkpt lat="47.462012" lon="7.818948">
        <ele>378.140786</ele>
        <time>2021-11-20T20:00:21.741Z</time>
      </trkpt>
      <trkpt lat="47.462122" lon="7.818441">
        <ele>377.598981</ele>
        <time>2021-11-20T20:00:26.043Z</time>
      </trkpt>
      <trkpt lat="47.462262" lon="7.817447">
        <ele>376.870576</ele>
        <time>2021-11-20T20:00:35.155Z</time>
      </trkpt>
      <trkpt lat="47.462434" lon="7.816598">
        <ele>376.784431</ele>
        <time>2021-11-20T20:00:44.010Z</time>
      </trkpt>
      <trkpt lat="47.462785" lon="7.815763">
        <ele>376.688865</ele>
        <time>2021-11-20T20:00:53.737Z</time>
      </trkpt>
      <trkpt lat="47.462859" lon="7.815548">
        <ele>376.665416</ele>
        <time>2021-11-20T20:00:56.302Z</time>
      </trkpt>
      <trkpt lat="47.462865" lon="7.815524">
        <ele>376.662929</ele>
        <time>2021-11-20T20:00:56.584Z</time>
      </trkpt>
      <trkpt lat="47.462867" lon="7.815468">
        <ele>376.657478</ele>
        <time>2021-11-20T20:00:57.110Z</time>
      </trkpt>
      <trkpt lat="47.462863" lon="7.815440">
        <ele>376.654697</ele>
        <time>2021-11-20T20:00:57.419Z</time>
      </trkpt>
      <trkpt lat="47.462902" lon="7.815377">
        <ele>376.646394</ele>
        <time>2021-11-20T20:00:58.460Z</time>
      </trkpt>
      <trkpt lat="47.463209" lon="7.814244">
        <ele>376.421581</ele>
        <time>2021-11-20T20:01:14.630Z</time>
      </trkpt>
      <trkpt lat="47.463323" lon="7.813790">
        <ele>376.331579</ele>
        <time>2021-11-20T20:01:21.010Z</time>
      </trkpt>
      <trkpt lat="47.463516" lon="7.813197">
        <ele>376.209274</ele>
        <time>2021-11-20T20:01:29.631Z</time>
      </trkpt>
      <trkpt lat="47.463585" lon="7.813014">
        <ele>376.170334</ele>
        <time>2021-11-20T20:01:32.266Z</time>
      </trkpt>
      <trkpt lat="47.463671" lon="7.812852">
        <ele>376.114032</ele>
        <time>2021-11-20T20:01:34.793Z</time>
      </trkpt>
      <trkpt lat="47.463905" lon="7.812397">
        <ele>375.899658</ele>
        <time>2021-11-20T20:01:41.558Z</time>
      </trkpt>
      <trkpt lat="47.463958" lon="7.812269">
        <ele>375.843373</ele>
        <time>2021-11-20T20:01:43.449Z</time>
      </trkpt>
      <trkpt lat="47.464174" lon="7.811536">
        <ele>375.543535</ele>
        <time>2021-11-20T20:01:53.080Z</time>
      </trkpt>
      <trkpt lat="47.464316" lon="7.810976">
        <ele>375.319261</ele>
        <time>2021-11-20T20:02:00.545Z</time>
      </trkpt>
      <trkpt lat="47.464325" lon="7.810936">
        <ele>375.303453</ele>
        <time>2021-11-20T20:02:00.993Z</time>
      </trkpt>
      <trkpt lat="47.464370" lon="7.810752">
        <ele>375.230081</ele>
        <time>2021-11-20T20:02:03.668Z</time>
      </trkpt>
      <trkpt lat="47.464364" lon="7.810630">
        <ele>375.184212</ele>
        <time>2021-11-20T20:02:05.193Z</time>
      </trkpt>
      <trkpt lat="47.464385" lon="7.810619">
        <ele>375.171856</ele>
        <time>2021-11-20T20:02:05.453Z</time>
      </trkpt>
      <trkpt lat="47.464417" lon="7.810573">
        <ele>375.152026</ele>
        <time>2021-11-20T20:02:06.249Z</time>
      </trkpt>
      <trkpt lat="47.464452" lon="7.810429">
        <ele>375.150913</ele>
        <time>2021-11-20T20:02:07.687Z</time>
      </trkpt>
      <trkpt lat="47.464510" lon="7.810204">
        <ele>375.149162</ele>
        <time>2021-11-20T20:02:10.085Z</time>
      </trkpt>
      <trkpt lat="47.464553" lon="7.810043">
        <ele>375.147903</ele>
        <time>2021-11-20T20:02:11.895Z</time>
      </trkpt>
      <trkpt lat="47.464574" lon="7.809967">
        <ele>375.147306</ele>
        <time>2021-11-20T20:02:12.619Z</time>
      </trkpt>
      <trkpt lat="47.464595" lon="7.809881">
        <ele>375.146641</ele>
        <time>2021-11-20T20:02:13.593Z</time>
      </trkpt>
      <trkpt lat="47.464602" lon="7.809851">
        <ele>375.146410</ele>
        <time>2021-11-20T20:02:13.952Z</time>
      </trkpt>
      <trkpt lat="47.464662" lon="7.809564">
        <ele>375.144226</ele>
        <time>2021-11-20T20:02:17.134Z</time>
      </trkpt>
      <trkpt lat="47.464811" lon="7.808597">
        <ele>375.137013</ele>
        <time>2021-11-20T20:02:26.982Z</time>
      </trkpt>
      <trkpt lat="47.464826" lon="7.808468">
        <ele>375.136061</ele>
        <time>2021-11-20T20:02:28.403Z</time>
      </trkpt>
      <trkpt lat="47.464869" lon="7.807851">
        <ele>375.042669</ele>
        <time>2021-11-20T20:02:34.840Z</time>
      </trkpt>
      <trkpt lat="47.464860" lon="7.807604">
        <ele>374.910336</ele>
        <time>2021-11-20T20:02:37.446Z</time>
      </trkpt>
      <trkpt lat="47.464839" lon="7.807091">
        <ele>374.635385</ele>
        <time>2021-11-20T20:02:42.688Z</time>
      </trkpt>
      <trkpt lat="47.464820" lon="7.806610">
        <ele>374.377617</ele>
        <time>2021-11-20T20:02:47.341Z</time>
      </trkpt>
      <trkpt lat="47.464830" lon="7.806346">
        <ele>374.236159</ele>
        <time>2021-11-20T20:02:49.711Z</time>
      </trkpt>
      <trkpt lat="47.464852" lon="7.806188">
        <ele>374.149857</ele>
        <time>2021-11-20T20:02:51.090Z</time>
      </trkpt>
      <trkpt lat="47.464879" lon="7.806011">
        <ele>374.052783</ele>
        <time>2021-11-20T20:02:52.560Z</time>
      </trkpt>
      <trkpt lat="47.465361" lon="7.804383">
        <ele>371.943443</ele>
        <time>2021-11-20T20:03:05.385Z</time>
      </trkpt>
      <trkpt lat="47.465464" lon="7.803785">
        <ele>370.983665</ele>
        <time>2021-11-20T20:03:09.797Z</time>
      </trkpt>
      <trkpt lat="47.465562" lon="7.802933">
        <ele>369.639513</ele>
        <time>2021-11-20T20:03:16.026Z</time>
      </trkpt>
      <trkpt lat="47.465594" lon="7.802678">
        <ele>369.327632</ele>
        <time>2021-11-20T20:03:17.935Z</time>
      </trkpt>
      <trkpt lat="47.465633" lon="7.802373">
        <ele>368.976592</ele>
        <time>2021-11-20T20:03:20.205Z</time>
      </trkpt>
      <trkpt lat="47.465735" lon="7.801577">
        <ele>368.060370</ele>
        <time>2021-11-20T20:03:26.193Z</time>
      </trkpt>
      <trkpt lat="47.465866" lon="7.800659">
        <ele>366.999333</ele>
        <time>2021-11-20T20:03:33.658Z</time>
      </trkpt>
      <trkpt lat="47.465931" lon="7.800444">
        <ele>366.732985</ele>
        <time>2021-11-20T20:03:35.613Z</time>
      </trkpt>
      <trkpt lat="47.466033" lon="7.800108">
        <ele>366.369400</ele>
        <time>2021-11-20T20:03:38.748Z</time>
      </trkpt>
      <trkpt lat="47.466090" lon="7.800039">
        <ele>366.272694</ele>
        <time>2021-11-20T20:03:39.609Z</time>
      </trkpt>
      <trkpt lat="47.466042" lon="7.799777">
        <ele>366.031750</ele>
        <time>2021-11-20T20:03:59.427Z</time>
      </trkpt>
      <trkpt lat="47.466172" lon="7.799019">
        <ele>365.337623</ele>
        <time>2021-11-20T20:04:55.842Z</time>
      </trkpt>
      <trkpt lat="47.466186" lon="7.797669">
        <ele>364.148311</ele>
        <time>2021-11-20T20:06:32.133Z</time>
      </trkpt>
      <trkpt lat="47.466430" lon="7.795789">
        <ele>362.699637</ele>
        <time>2021-11-20T20:08:49.402Z</time>
      </trkpt>
      <trkpt lat="47.466774" lon="7.793016">
        <ele>361.836375</ele>
        <time>2021-11-20T20:12:18.918Z</time>
      </trkpt>
      <trkpt lat="47.467163" lon="7.789876">
        <ele>361.978453</ele>
        <time>2021-11-20T20:16:21.196Z</time>
      </trkpt>
      <trkpt lat="47.467228" lon="7.789417">
        <ele>361.534263</ele>
        <time>2021-11-20T20:16:27.111Z</time>
      </trkpt>
      <trkpt lat="47.467240" lon="7.789331">
        <ele>361.451089</ele>
        <time>2021-11-20T20:16:28.076Z</time>
      </trkpt>
      <trkpt lat="47.467307" lon="7.788932">
        <ele>361.061681</ele>
        <time>2021-11-20T20:16:33.065Z</time>
      </trkpt>
      <trkpt lat="47.467339" lon="7.788734">
        <ele>360.868856</ele>
        <time>2021-11-20T20:16:35.191Z</time>
      </trkpt>
      <trkpt lat="47.467451" lon="7.788042">
        <ele>360.194889</ele>
        <time>2021-11-20T20:16:43.091Z</time>
      </trkpt>
      <trkpt lat="47.467504" lon="7.787622">
        <ele>359.790206</ele>
        <time>2021-11-20T20:16:47.480Z</time>
      </trkpt>
      <trkpt lat="47.467538" lon="7.787352">
        <ele>359.530071</ele>
        <time>2021-11-20T20:16:50.381Z</time>
      </trkpt>
      <trkpt lat="47.467566" lon="7.787128">
        <ele>359.257061</ele>
        <time>2021-11-20T20:16:52.648Z</time>
      </trkpt>
      <trkpt lat="47.467577" lon="7.787046">
        <ele>359.148991</ele>
        <time>2021-11-20T20:16:53.507Z</time>
      </trkpt>
      <trkpt lat="47.467559" lon="7.786904">
        <ele>358.962226</ele>
        <time>2021-11-20T20:16:55.182Z</time>
      </trkpt>
      <trkpt lat="47.467636" lon="7.786830">
        <ele>358.786634</ele>
        <time>2021-11-20T20:16:56.485Z</time>
      </trkpt>
      <trkpt lat="47.468403" lon="7.786854">
        <ele>357.319582</ele>
        <time>2021-11-20T20:17:08.678Z</time>
      </trkpt>
      <trkpt lat="47.468535" lon="7.786880">
        <ele>357.064933</ele>
        <time>2021-11-20T20:17:10.833Z</time>
      </trkpt>
      <trkpt lat="47.468582" lon="7.786483">
        <ele>356.543922</ele>
        <time>2021-11-20T20:17:15.238Z</time>
      </trkpt>
      <trkpt lat="47.468800" lon="7.784631">
        <ele>354.747140</ele>
        <time>2021-11-20T20:17:36.042Z</time>
      </trkpt>
      <trkpt lat="47.468831" lon="7.784400">
        <ele>354.543231</ele>
        <time>2021-11-20T20:17:38.770Z</time>
      </trkpt>
      <trkpt lat="47.469211" lon="7.782028">
        <ele>352.773937</ele>
        <time>2021-11-20T20:18:07.668Z</time>
      </trkpt>
      <trkpt lat="47.469352" lon="7.781141">
        <ele>352.192889</ele>
        <time>2021-11-20T20:18:18.796Z</time>
      </trkpt>
      <trkpt lat="47.469631" lon="7.779469">
        <ele>350.352469</ele>
        <time>2021-11-20T20:18:38.082Z</time>
      </trkpt>
      <trkpt lat="47.469866" lon="7.778066">
        <ele>348.611515</ele>
        <time>2021-11-20T20:18:53.589Z</time>
      </trkpt>
      <trkpt lat="47.469866" lon="7.778066">
        <ele>348.611515</ele>
        <time>2021-11-20T20:18:53.611Z</time>
      </trkpt>
      <trkpt lat="47.469958" lon="7.776819">
        <ele>346.738081</ele>
        <time>2021-11-20T20:19:06.554Z</time>
      </trkpt>
      <trkpt lat="47.470028" lon="7.775062">
        <ele>344.492771</ele>
        <time>2021-11-20T20:19:25.232Z</time>
      </trkpt>
      <trkpt lat="47.470034" lon="7.774910">
        <ele>344.361520</ele>
        <time>2021-11-20T20:19:26.881Z</time>
      </trkpt>
      <trkpt lat="47.470122" lon="7.772830">
        <ele>342.577198</ele>
        <time>2021-11-20T20:19:51.423Z</time>
      </trkpt>
      <trkpt lat="47.470261" lon="7.772145">
        <ele>342.008486</ele>
        <time>2021-11-20T20:19:59.955Z</time>
      </trkpt>
      <trkpt lat="47.470499" lon="7.771171">
        <ele>341.184932</ele>
        <time>2021-11-20T20:20:12.046Z</time>
      </trkpt>
      <trkpt lat="47.470712" lon="7.770050">
        <ele>340.045063</ele>
        <time>2021-11-20T20:20:24.886Z</time>
      </trkpt>
      <trkpt lat="47.470854" lon="7.769162">
        <ele>338.872758</ele>
        <time>2021-11-20T20:20:34.855Z</time>
      </trkpt>
      <trkpt lat="47.470868" lon="7.769055">
        <ele>338.732743</ele>
        <time>2021-11-20T20:20:35.915Z</time>
      </trkpt>
      <trkpt lat="47.470979" lon="7.768192">
        <ele>337.604154</ele>
        <time>2021-11-20T20:20:45.065Z</time>
      </trkpt>
      <trkpt lat="47.471145" lon="7.767252">
        <ele>337.179157</ele>
        <time>2021-11-20T20:20:55.449Z</time>
      </trkpt>
      <trkpt lat="47.471489" lon="7.767465">
        <ele>337.171547</ele>
        <time>2021-11-20T20:21:00.150Z</time>
      </trkpt>
      <trkpt lat="47.471760" lon="7.767638">
        <ele>337.165523</ele>
        <time>2021-11-20T20:21:04.790Z</time>
      </trkpt>
      <trkpt lat="47.472050" lon="7.767821">
        <ele>337.159090</ele>
        <time>2021-11-20T20:21:10.419Z</time>
      </trkpt>
      <trkpt lat="47.472121" lon="7.767867">
        <ele>337.157508</ele>
        <time>2021-11-20T20:21:12.297Z</time>
      </trkpt>
      <trkpt lat="47.472271" lon="7.767979">
        <ele>337.154079</ele>
        <time>2021-11-20T20:21:15.588Z</time>
      </trkpt>
      <trkpt lat="47.472412" lon="7.768062">
        <ele>337.233587</ele>
        <time>2021-11-20T20:21:19.242Z</time>
      </trkpt>
      <trkpt lat="47.472685" lon="7.768157">
        <ele>338.397669</ele>
        <time>2021-11-20T20:21:25.122Z</time>
      </trkpt>
      <trkpt lat="47.472693" lon="7.768159">
        <ele>338.431346</ele>
        <time>2021-11-20T20:21:25.735Z</time>
      </trkpt>
      <trkpt lat="47.472772" lon="7.768203">
        <ele>338.781723</ele>
        <time>2021-11-20T20:21:28.026Z</time>
      </trkpt>
      <trkpt lat="47.472779" lon="7.768229">
        <ele>338.860244</ele>
        <time>2021-11-20T20:21:28.580Z</time>
      </trkpt>
      <trkpt lat="47.472804" lon="7.768269">
        <ele>339.013093</ele>
        <time>2021-11-20T20:21:29.476Z</time>
      </trkpt>
      <trkpt lat="47.472821" lon="7.768281">
        <ele>339.091277</ele>
        <time>2021-11-20T20:21:30.098Z</time>
      </trkpt>
      <trkpt lat="47.472786" lon="7.768446">
        <ele>339.576471</ele>
        <time>2021-11-20T20:21:33.063Z</time>
      </trkpt>
      <trkpt lat="47.472725" lon="7.768743">
        <ele>340.447372</ele>
        <time>2021-11-20T20:21:39.624Z</time>
      </trkpt>
      <trkpt lat="47.472681" lon="7.769085">
        <ele>341.424137</ele>
        <time>2021-11-20T20:21:47.312Z</time>
      </trkpt>
      <trkpt lat="47.472845" lon="7.769105">
        <ele>342.107170</ele>
        <time>2021-11-20T20:21:53.247Z</time>
      </trkpt>
      <trkpt lat="47.473281" lon="7.769280">
        <ele>343.982321</ele>
        <time>2021-11-20T20:22:10.079Z</time>
      </trkpt>
      <trkpt lat="47.473515" lon="7.769442">
        <ele>345.463397</ele>
        <time>2021-11-20T20:22:19.343Z</time>
      </trkpt>
      <trkpt lat="47.473787" lon="7.769648">
        <ele>347.916445</ele>
        <time>2021-11-20T20:22:30.607Z</time>
      </trkpt>
      <trkpt lat="47.473844" lon="7.769703">
        <ele>348.462753</ele>
        <time>2021-11-20T20:22:34.106Z</time>
      </trkpt>
      <trkpt lat="47.473893" lon="7.769749">
        <ele>348.928626</ele>
        <time>2021-11-20T20:22:37.296Z</time>
      </trkpt>
      <trkpt lat="47.473962" lon="7.769836">
        <ele>349.656421</ele>
        <time>2021-11-20T20:22:41.197Z</time>
      </trkpt>
      <trkpt lat="47.473979" lon="7.769978">
        <ele>350.438934</ele>
        <time>2021-11-20T20:22:45.029Z</time>
      </trkpt>
      <trkpt lat="47.473954" lon="7.770162">
        <ele>351.457327</ele>
        <time>2021-11-20T20:22:51.438Z</time>
      </trkpt>
      <trkpt lat="47.473938" lon="7.770245">
        <ele>351.925660</ele>
        <time>2021-11-20T20:22:54.811Z</time>
      </trkpt>
      <trkpt lat="47.473948" lon="7.770383">
        <ele>352.678767</ele>
        <time>2021-11-20T20:22:58.816Z</time>
      </trkpt>
      <trkpt lat="47.474037" lon="7.771115">
        <ele>356.714493</ele>
        <time>2021-11-20T20:23:21.917Z</time>
      </trkpt>
      <trkpt lat="47.474083" lon="7.771488">
        <ele>358.771876</ele>
        <time>2021-11-20T20:23:37.010Z</time>
      </trkpt>
      <trkpt lat="47.474104" lon="7.771595">
        <ele>359.491590</ele>
        <time>2021-11-20T20:23:40.974Z</time>
      </trkpt>
      <trkpt lat="47.474185" lon="7.771812">
        <ele>361.320395</ele>
        <time>2021-11-20T20:23:52.835Z</time>
      </trkpt>
      <trkpt lat="47.474415" lon="7.772041">
        <ele>364.346309</ele>
        <time>2021-11-20T20:24:08.495Z</time>
      </trkpt>
      <trkpt lat="47.475019" lon="7.772425">
        <ele>371.521675</ele>
        <time>2021-11-20T20:24:45.755Z</time>
      </trkpt>
      <trkpt lat="47.475466" lon="7.772645">
        <ele>376.663403</ele>
        <time>2021-11-20T20:25:15.219Z</time>
      </trkpt>
      <trkpt lat="47.475728" lon="7.772690">
        <ele>379.650831</ele>
        <time>2021-11-20T20:25:30.369Z</time>
      </trkpt>
      <trkpt lat="47.475986" lon="7.772715">
        <ele>382.831493</ele>
        <time>2021-11-20T20:25:45.808Z</time>
      </trkpt>
      <trkpt lat="47.476546" lon="7.772768">
        <ele>389.734576</ele>
        <time>2021-11-20T20:26:21.250Z</time>
      </trkpt>
      <trkpt lat="47.476849" lon="7.772776">
        <ele>393.462612</ele>
        <time>2021-11-20T20:26:40.896Z</time>
      </trkpt>
      <trkpt lat="47.477573" lon="7.772824">
        <ele>403.079013</ele>
        <time>2021-11-20T20:27:26.504Z</time>
      </trkpt>
      <trkpt lat="47.478443" lon="7.772824">
        <ele>418.579441</ele>
        <time>2021-11-20T20:28:36.934Z</time>
      </trkpt>
      <trkpt lat="47.478820" lon="7.772738">
        <ele>425.375655</ele>
        <time>2021-11-20T20:29:15.030Z</time>
      </trkpt>
      <trkpt lat="47.479168" lon="7.772609">
        <ele>431.767450</ele>
        <time>2021-11-20T20:29:49.549Z</time>
      </trkpt>
      <trkpt lat="47.479313" lon="7.772352">
        <ele>435.936540</ele>
        <time>2021-11-20T20:30:13.184Z</time>
      </trkpt>
      <trkpt lat="47.479508" lon="7.771873">
        <ele>442.985781</ele>
        <time>2021-11-20T20:30:51.225Z</time>
      </trkpt>
      <trkpt lat="47.479678" lon="7.771357">
        <ele>450.222315</ele>
        <time>2021-11-20T20:31:28.079Z</time>
      </trkpt>
      <trkpt lat="47.479951" lon="7.770850">
        <ele>458.394141</ele>
        <time>2021-11-20T20:32:05.199Z</time>
      </trkpt>
      <trkpt lat="47.480156" lon="7.770553">
        <ele>463.745653</ele>
        <time>2021-11-20T20:32:29.385Z</time>
      </trkpt>
      <trkpt lat="47.480388" lon="7.770295">
        <ele>468.197795</ele>
        <time>2021-11-20T20:32:51.813Z</time>
      </trkpt>
      <trkpt lat="47.480692" lon="7.770102">
        <ele>472.211381</ele>
        <time>2021-11-20T20:33:15.703Z</time>
      </trkpt>
      <trkpt lat="47.481483" lon="7.769920">
        <ele>481.923845</ele>
        <time>2021-11-20T20:34:03.201Z</time>
      </trkpt>
      <trkpt lat="47.481815" lon="7.769904">
        <ele>485.954104</ele>
        <time>2021-11-20T20:34:19.687Z</time>
      </trkpt>
      <trkpt lat="47.482031" lon="7.769953">
        <ele>488.653116</ele>
        <time>2021-11-20T20:34:31.398Z</time>
      </trkpt>
      <trkpt lat="47.482572" lon="7.770227">
        <ele>496.476323</ele>
        <time>2021-11-20T20:35:06.264Z</time>
      </trkpt>
      <trkpt lat="47.482997" lon="7.770807">
        <ele>504.386327</ele>
        <time>2021-11-20T20:35:50.565Z</time>
      </trkpt>
      <trkpt lat="47.483200" lon="7.771322">
        <ele>509.898785</ele>
        <time>2021-11-20T20:36:21.981Z</time>
      </trkpt>
      <trkpt lat="47.483339" lon="7.771802">
        <ele>514.390665</ele>
        <time>2021-11-20T20:36:48.816Z</time>
      </trkpt>
      <trkpt lat="47.483458" lon="7.772106">
        <ele>517.059834</ele>
        <time>2021-11-20T20:37:06.011Z</time>
      </trkpt>
      <trkpt lat="47.483577" lon="7.772266">
        <ele>518.867472</ele>
        <time>2021-11-20T20:37:17.392Z</time>
      </trkpt>
      <trkpt lat="47.483809" lon="7.772652">
        <ele>522.792195</ele>
        <time>2021-11-20T20:37:40.675Z</time>
      </trkpt>
      <trkpt lat="47.484099" lon="7.773038">
        <ele>527.177395</ele>
        <time>2021-11-20T20:38:04.517Z</time>
      </trkpt>
      <trkpt lat="47.484250" lon="7.773244">
        <ele>529.486368</ele>
        <time>2021-11-20T20:38:16.341Z</time>
      </trkpt>
      <trkpt lat="47.484389" lon="7.773424">
        <ele>531.562952</ele>
        <time>2021-11-20T20:38:25.598Z</time>
      </trkpt>
      <trkpt lat="47.484679" lon="7.773897">
        <ele>533.237631</ele>
        <time>2021-11-20T20:38:40.812Z</time>
      </trkpt>
      <trkpt lat="47.485317" lon="7.774412">
        <ele>533.668373</ele>
        <time>2021-11-20T20:38:51.438Z</time>
      </trkpt>
      <trkpt lat="47.485752" lon="7.774626">
        <ele>533.940070</ele>
        <time>2021-11-20T20:38:56.379Z</time>
      </trkpt>
      <trkpt lat="47.485895" lon="7.774732">
        <ele>534.034864</ele>
        <time>2021-11-20T20:38:57.909Z</time>
      </trkpt>
      <trkpt lat="47.486126" lon="7.774937">
        <ele>534.080323</ele>
        <time>2021-11-20T20:39:01.123Z</time>
      </trkpt>
      <trkpt lat="47.486160" lon="7.774746">
        <ele>534.025945</ele>
        <time>2021-11-20T20:39:02.425Z</time>
      </trkpt>
      <trkpt lat="47.486219" lon="7.774600">
        <ele>533.979111</ele>
        <time>2021-11-20T20:39:04.480Z</time>
      </trkpt>
      <trkpt lat="47.486452" lon="7.774370">
        <ele>533.865004</ele>
        <time>2021-11-20T20:39:07.642Z</time>
      </trkpt>
      <trkpt lat="47.486703" lon="7.774131">
        <ele>533.743405</ele>
        <time>2021-11-20T20:39:11.298Z</time>
      </trkpt>
      <trkpt lat="47.487094" lon="7.773657">
        <ele>533.537482</ele>
        <time>2021-11-20T20:39:19.282Z</time>
      </trkpt>
      <trkpt lat="47.487530" lon="7.773097">
        <ele>533.245943</ele>
        <time>2021-11-20T20:39:30.834Z</time>
      </trkpt>
      <trkpt lat="47.487758" lon="7.772679">
        <ele>533.007281</ele>
        <time>2021-11-20T20:39:39.435Z</time>
      </trkpt>
      <trkpt lat="47.488008" lon="7.772013">
        <ele>532.668801</ele>
        <time>2021-11-20T20:39:52.129Z</time>
      </trkpt>
      <trkpt lat="47.488198" lon="7.770997">
        <ele>532.059110</ele>
        <time>2021-11-20T20:39:59.312Z</time>
      </trkpt>
      <trkpt lat="47.488684" lon="7.770026">
        <ele>524.665107</ele>
        <time>2021-11-20T20:40:06.559Z</time>
      </trkpt>
      <trkpt lat="47.488741" lon="7.769888">
        <ele>523.675418</ele>
        <time>2021-11-20T20:40:07.475Z</time>
      </trkpt>
      <trkpt lat="47.488934" lon="7.769333">
        <ele>519.856028</ele>
        <time>2021-11-20T20:40:11.099Z</time>
      </trkpt>
      <trkpt lat="47.489120" lon="7.768662">
        <ele>515.274409</ele>
        <time>2021-11-20T20:40:15.274Z</time>
      </trkpt>
      <trkpt lat="47.489191" lon="7.768403">
        <ele>513.078336</ele>
        <time>2021-11-20T20:40:16.854Z</time>
      </trkpt>
      <trkpt lat="47.489233" lon="7.768329">
        <ele>512.319027</ele>
        <time>2021-11-20T20:40:17.422Z</time>
      </trkpt>
      <trkpt lat="47.489260" lon="7.768283">
        <ele>511.840289</ele>
        <time>2021-11-20T20:40:17.762Z</time>
      </trkpt>
      <trkpt lat="47.489330" lon="7.768521">
        <ele>509.800844</ele>
        <time>2021-11-20T20:40:19.239Z</time>
      </trkpt>
      <trkpt lat="47.489759" lon="7.769607">
        <ele>499.916996</ele>
        <time>2021-11-20T20:40:26.439Z</time>
      </trkpt>
      <trkpt lat="47.489882" lon="7.769861">
        <ele>497.461757</ele>
        <time>2021-11-20T20:40:28.232Z</time>
      </trkpt>
      <trkpt lat="47.490063" lon="7.770088">
        <ele>494.774156</ele>
        <time>2021-11-20T20:40:30.256Z</time>
      </trkpt>
      <trkpt lat="47.490367" lon="7.770241">
        <ele>491.904735</ele>
        <time>2021-11-20T20:40:32.999Z</time>
      </trkpt>
      <trkpt lat="47.491182" lon="7.770222">
        <ele>484.620780</ele>
        <time>2021-11-20T20:40:40.014Z</time>
      </trkpt>
      <trkpt lat="47.492020" lon="7.770184">
        <ele>478.106289</ele>
        <time>2021-11-20T20:40:47.566Z</time>
      </trkpt>
      <trkpt lat="47.492137" lon="7.770169">
        <ele>477.624178</ele>
        <time>2021-11-20T20:40:48.743Z</time>
      </trkpt>
      <trkpt lat="47.492435" lon="7.770039">
        <ele>476.348780</ele>
        <time>2021-11-20T20:40:51.701Z</time>
      </trkpt>
      <trkpt lat="47.492661" lon="7.769832">
        <ele>475.257694</ele>
        <time>2021-11-20T20:40:54.292Z</time>
      </trkpt>
      <trkpt lat="47.492753" lon="7.769701">
        <ele>474.733591</ele>
        <time>2021-11-20T20:40:55.654Z</time>
      </trkpt>
      <trkpt lat="47.492732" lon="7.769629">
        <ele>474.516063</ele>
        <time>2021-11-20T20:40:59.981Z</time>
      </trkpt>
      <trkpt lat="47.492832" lon="7.769442">
        <ele>473.854560</ele>
        <time>2021-11-20T20:41:01.538Z</time>
      </trkpt>
      <trkpt lat="47.492893" lon="7.769255">
        <ele>473.278568</ele>
        <time>2021-11-20T20:41:03.126Z</time>
      </trkpt>
      <trkpt lat="47.492983" lon="7.768975">
        <ele>472.418494</ele>
        <time>2021-11-20T20:41:05.437Z</time>
      </trkpt>
      <trkpt lat="47.492999" lon="7.768874">
        <ele>472.130741</ele>
        <time>2021-11-20T20:41:06.188Z</time>
      </trkpt>
      <trkpt lat="47.493006" lon="7.768806">
        <ele>471.939945</ele>
        <time>2021-11-20T20:41:07.150Z</time>
      </trkpt>
      <trkpt lat="47.492941" lon="7.765577">
        <ele>459.426706</ele>
        <time>2021-11-20T20:41:27.972Z</time>
      </trkpt>
      <trkpt lat="47.493010" lon="7.765043">
        <ele>454.827256</ele>
        <time>2021-11-20T20:41:31.108Z</time>
      </trkpt>
      <trkpt lat="47.493115" lon="7.764783">
        <ele>452.264751</ele>
        <time>2021-11-20T20:41:32.827Z</time>
      </trkpt>
      <trkpt lat="47.493274" lon="7.764563">
        <ele>449.539478</ele>
        <time>2021-11-20T20:41:34.632Z</time>
      </trkpt>
      <trkpt lat="47.493545" lon="7.764429">
        <ele>445.962045</ele>
        <time>2021-11-20T20:41:36.995Z</time>
      </trkpt>
      <trkpt lat="47.493822" lon="7.764461">
        <ele>442.483301</ele>
        <time>2021-11-20T20:41:39.292Z</time>
      </trkpt>
      <trkpt lat="47.494327" lon="7.764912">
        <ele>434.030884</ele>
        <time>2021-11-20T20:41:44.157Z</time>
      </trkpt>
      <trkpt lat="47.494523" lon="7.765111">
        <ele>430.470651</ele>
        <time>2021-11-20T20:41:46.120Z</time>
      </trkpt>
      <trkpt lat="47.494623" lon="7.765176">
        <ele>428.834689</ele>
        <time>2021-11-20T20:41:47.022Z</time>
      </trkpt>
      <trkpt lat="47.494837" lon="7.765306">
        <ele>425.369740</ele>
        <time>2021-11-20T20:41:48.943Z</time>
      </trkpt>
      <trkpt lat="47.495429" lon="7.765534">
        <ele>416.207028</ele>
        <time>2021-11-20T20:41:54.046Z</time>
      </trkpt>
      <trkpt lat="47.495891" lon="7.765655">
        <ele>410.543843</ele>
        <time>2021-11-20T20:41:57.991Z</time>
      </trkpt>
      <trkpt lat="47.496345" lon="7.765747">
        <ele>405.801152</ele>
        <time>2021-11-20T20:42:01.920Z</time>
      </trkpt>
      <trkpt lat="47.496601" lon="7.765776">
        <ele>403.143829</ele>
        <time>2021-11-20T20:42:04.169Z</time>
      </trkpt>
      <trkpt lat="47.496981" lon="7.765800">
        <ele>399.207288</ele>
        <time>2021-11-20T20:42:07.425Z</time>
      </trkpt>
      <trkpt lat="47.497683" lon="7.765775">
        <ele>392.891362</ele>
        <time>2021-11-20T20:42:13.583Z</time>
      </trkpt>
      <trkpt lat="47.497686" lon="7.765774">
        <ele>392.869501</ele>
        <time>2021-11-20T20:42:13.616Z</time>
      </trkpt>
      <trkpt lat="47.497832" lon="7.765749">
        <ele>391.824686</ele>
        <time>2021-11-20T20:42:14.908Z</time>
      </trkpt>
      <trkpt lat="47.498206" lon="7.765691">
        <ele>389.151421</ele>
        <time>2021-11-20T20:42:18.239Z</time>
      </trkpt>
      <trkpt lat="47.498581" lon="7.765578">
        <ele>386.430918</ele>
        <time>2021-11-20T20:42:21.681Z</time>
      </trkpt>
      <trkpt lat="47.499021" lon="7.765388">
        <ele>383.172630</ele>
        <time>2021-11-20T20:42:25.925Z</time>
      </trkpt>
      <trkpt lat="47.499681" lon="7.764946">
        <ele>380.236843</ele>
        <time>2021-11-20T20:42:32.821Z</time>
      </trkpt>
      <trkpt lat="47.500750" lon="7.764229">
        <ele>376.323416</ele>
        <time>2021-11-20T20:42:44.807Z</time>
      </trkpt>
      <trkpt lat="47.501206" lon="7.764177">
        <ele>375.940589</ele>
        <time>2021-11-20T20:42:52.023Z</time>
      </trkpt>
      <trkpt lat="47.501281" lon="7.764267">
        <ele>375.881901</ele>
        <time>2021-11-20T20:42:55.254Z</time>
      </trkpt>
      <trkpt lat="47.501345" lon="7.764315">
        <ele>375.838290</ele>
        <time>2021-11-20T20:42:55.836Z</time>
      </trkpt>
      <trkpt lat="47.501402" lon="7.764367">
        <ele>375.797591</ele>
        <time>2021-11-20T20:43:01.307Z</time>
      </trkpt>
      <trkpt lat="47.501593" lon="7.764691">
        <ele>375.621009</ele>
        <time>2021-11-20T20:43:04.213Z</time>
      </trkpt>
      <trkpt lat="47.501717" lon="7.764903">
        <ele>375.505857</ele>
        <time>2021-11-20T20:43:12.615Z</time>
      </trkpt>
      <trkpt lat="47.501785" lon="7.764941">
        <ele>375.461676</ele>
        <time>2021-11-20T20:43:16.074Z</time>
      </trkpt>
      <trkpt lat="47.501861" lon="7.764937">
        <ele>375.415450</ele>
        <time>2021-11-20T20:43:16.692Z</time>
      </trkpt>
      <trkpt lat="47.502299" lon="7.764761">
        <ele>375.139577</ele>
        <time>2021-11-20T20:43:25.347Z</time>
      </trkpt>
      <trkpt lat="47.502400" lon="7.764717">
        <ele>375.067320</ele>
        <time>2021-11-20T20:43:28.165Z</time>
      </trkpt>
      <trkpt lat="47.502578" lon="7.764620">
        <ele>374.915857</ele>
        <time>2021-11-20T20:43:29.862Z</time>
      </trkpt>
      <trkpt lat="47.503736" lon="7.764325">
        <ele>373.977575</ele>
        <time>2021-11-20T20:43:50.728Z</time>
      </trkpt>
      <trkpt lat="47.504090" lon="7.764406">
        <ele>373.691541</ele>
        <time>2021-11-20T20:43:54.405Z</time>
      </trkpt>
      <trkpt lat="47.504400" lon="7.764478">
        <ele>372.754412</ele>
        <time>2021-11-20T20:43:57.496Z</time>
      </trkpt>
      <trkpt lat="47.505115" lon="7.765011">
        <ele>370.161873</ele>
        <time>2021-11-20T20:44:05.259Z</time>
      </trkpt>
      <trkpt lat="47.506143" lon="7.764883">
        <ele>366.936105</ele>
        <time>2021-11-20T20:44:16.093Z</time>
      </trkpt>
      <trkpt lat="47.506301" lon="7.764884">
        <ele>366.482194</ele>
        <time>2021-11-20T20:44:17.649Z</time>
      </trkpt>
      <trkpt lat="47.506377" lon="7.764894">
        <ele>366.262998</ele>
        <time>2021-11-20T20:44:18.498Z</time>
      </trkpt>
      <trkpt lat="47.506619" lon="7.764938">
        <ele>365.562550</ele>
        <time>2021-11-20T20:44:21.212Z</time>
      </trkpt>
      <trkpt lat="47.506716" lon="7.764971">
        <ele>365.276622</ele>
        <time>2021-11-20T20:44:22.209Z</time>
      </trkpt>
      <trkpt lat="47.506870" lon="7.765037">
        <ele>364.816040</ele>
        <time>2021-11-20T20:44:24.062Z</time>
      </trkpt>
      <trkpt lat="47.507429" lon="7.765409">
        <ele>363.055333</ele>
        <time>2021-11-20T20:44:30.093Z</time>
      </trkpt>
      <trkpt lat="47.507506" lon="7.765470">
        <ele>362.804444</ele>
        <time>2021-11-20T20:44:31.151Z</time>
      </trkpt>
      <trkpt lat="47.507650" lon="7.765503">
        <ele>362.315427</ele>
        <time>2021-11-20T20:44:32.510Z</time>
      </trkpt>
      <trkpt lat="47.507977" lon="7.765561">
        <ele>361.137819</ele>
        <time>2021-11-20T20:44:35.991Z</time>
      </trkpt>
      <trkpt lat="47.508137" lon="7.765584">
        <ele>360.563020</ele>
        <time>2021-11-20T20:44:37.653Z</time>
      </trkpt>
      <trkpt lat="47.508322" lon="7.765556">
        <ele>359.898072</ele>
        <time>2021-11-20T20:44:39.590Z</time>
      </trkpt>
      <trkpt lat="47.508744" lon="7.765478">
        <ele>358.377422</ele>
        <time>2021-11-20T20:44:43.792Z</time>
      </trkpt>
      <trkpt lat="47.509057" lon="7.765447">
        <ele>357.255734</ele>
        <time>2021-11-20T20:44:46.817Z</time>
      </trkpt>
      <trkpt lat="47.509436" lon="7.765441">
        <ele>356.018131</ele>
        <time>2021-11-20T20:44:50.445Z</time>
      </trkpt>
      <trkpt lat="47.509600" lon="7.765443">
        <ele>355.633590</ele>
        <time>2021-11-20T20:44:52.053Z</time>
      </trkpt>
      <trkpt lat="47.509741" lon="7.765454">
        <ele>355.302532</ele>
        <time>2021-11-20T20:44:53.439Z</time>
      </trkpt>
      <trkpt lat="47.509899" lon="7.765445">
        <ele>354.931799</ele>
        <time>2021-11-20T20:44:55.074Z</time>
      </trkpt>
      <trkpt lat="47.509942" lon="7.765436">
        <ele>354.829975</ele>
        <time>2021-11-20T20:44:55.559Z</time>
      </trkpt>
      <trkpt lat="47.510019" lon="7.765402">
        <ele>354.641576</ele>
        <time>2021-11-20T20:44:56.399Z</time>
      </trkpt>
      <trkpt lat="47.510078" lon="7.765363">
        <ele>354.490077</ele>
        <time>2021-11-20T20:44:57.216Z</time>
      </trkpt>
      <trkpt lat="47.510179" lon="7.765273">
        <ele>354.213677</ele>
        <time>2021-11-20T20:44:58.514Z</time>
      </trkpt>
      <trkpt lat="47.510392" lon="7.765088">
        <ele>353.634661</ele>
        <time>2021-11-20T20:45:01.539Z</time>
      </trkpt>
      <trkpt lat="47.510486" lon="7.765012">
        <ele>353.383537</ele>
        <time>2021-11-20T20:45:02.864Z</time>
      </trkpt>
      <trkpt lat="47.510628" lon="7.764909">
        <ele>353.012779</ele>
        <time>2021-11-20T20:45:04.677Z</time>
      </trkpt>
      <trkpt lat="47.510922" lon="7.764773">
        <ele>352.290578</ele>
        <time>2021-11-20T20:45:08.432Z</time>
      </trkpt>
      <trkpt lat="47.511261" lon="7.764772">
        <ele>351.654035</ele>
        <time>2021-11-20T20:45:12.130Z</time>
      </trkpt>
      <trkpt lat="47.511298" lon="7.764777">
        <ele>351.592977</ele>
        <time>2021-11-20T20:45:12.517Z</time>
      </trkpt>
      <trkpt lat="47.511360" lon="7.764807">
        <ele>351.485785</ele>
        <time>2021-11-20T20:45:13.159Z</time>
      </trkpt>
      <trkpt lat="47.511702" lon="7.765093">
        <ele>350.840292</ele>
        <time>2021-11-20T20:45:17.370Z</time>
      </trkpt>
      <trkpt lat="47.511866" lon="7.765218">
        <ele>350.537160</ele>
        <time>2021-11-20T20:45:19.355Z</time>
      </trkpt>
      <trkpt lat="47.511929" lon="7.765269">
        <ele>350.419162</ele>
        <time>2021-11-20T20:45:20.402Z</time>
      </trkpt>
      <trkpt lat="47.512026" lon="7.765311">
        <ele>350.253078</ele>
        <time>2021-11-20T20:45:21.545Z</time>
      </trkpt>
      <trkpt lat="47.512359" lon="7.765319">
        <ele>349.705764</ele>
        <time>2021-11-20T20:45:25.743Z</time>
      </trkpt>
      <trkpt lat="47.512523" lon="7.765308">
        <ele>349.435974</ele>
        <time>2021-11-20T20:45:27.502Z</time>
      </trkpt>
      <trkpt lat="47.512596" lon="7.765294">
        <ele>349.315006</ele>
        <time>2021-11-20T20:45:28.365Z</time>
      </trkpt>
      <trkpt lat="47.512876" lon="7.765238">
        <ele>348.873938</ele>
        <time>2021-11-20T20:45:31.773Z</time>
      </trkpt>
      <trkpt lat="47.512947" lon="7.765205">
        <ele>348.764662</ele>
        <time>2021-11-20T20:45:32.640Z</time>
      </trkpt>
      <trkpt lat="47.512959" lon="7.765198">
        <ele>348.745722</ele>
        <time>2021-11-20T20:45:32.809Z</time>
      </trkpt>
      <trkpt lat="47.513036" lon="7.765134">
        <ele>348.616053</ele>
        <time>2021-11-20T20:45:34.357Z</time>
      </trkpt>
      <trkpt lat="47.513615" lon="7.764654">
        <ele>347.641614</ele>
        <time>2021-11-20T20:45:41.684Z</time>
      </trkpt>
      <trkpt lat="47.513661" lon="7.764590">
        <ele>347.548922</ele>
        <time>2021-11-20T20:45:43.243Z</time>
      </trkpt>
      <trkpt lat="47.513707" lon="7.764494">
        <ele>347.432181</ele>
        <time>2021-11-20T20:45:44.086Z</time>
      </trkpt>
      <trkpt lat="47.513747" lon="7.764397">
        <ele>347.319462</ele>
        <time>2021-11-20T20:45:44.875Z</time>
      </trkpt>
      <trkpt lat="47.513810" lon="7.764252">
        <ele>347.148464</ele>
        <time>2021-11-20T20:45:46.201Z</time>
      </trkpt>
      <trkpt lat="47.513823" lon="7.764227">
        <ele>347.117172</ele>
        <time>2021-11-20T20:45:46.456Z</time>
      </trkpt>
      <trkpt lat="47.514022" lon="7.763802">
        <ele>346.604270</ele>
        <time>2021-11-20T20:45:50.522Z</time>
      </trkpt>
      <trkpt lat="47.514365" lon="7.763357">
        <ele>345.460266</ele>
        <time>2021-11-20T20:45:56.293Z</time>
      </trkpt>
      <trkpt lat="47.514492" lon="7.763207">
        <ele>344.992352</ele>
        <time>2021-11-20T20:45:57.951Z</time>
      </trkpt>
      <trkpt lat="47.515023" lon="7.762891">
        <ele>343.344051</ele>
        <time>2021-11-20T20:46:03.803Z</time>
      </trkpt>
      <trkpt lat="47.515108" lon="7.762767">
        <ele>343.000365</ele>
        <time>2021-11-20T20:46:04.964Z</time>
      </trkpt>
      <trkpt lat="47.515150" lon="7.762617">
        <ele>342.684492</ele>
        <time>2021-11-20T20:46:06.031Z</time>
      </trkpt>
      <trkpt lat="47.515194" lon="7.761991">
        <ele>341.460175</ele>
        <time>2021-11-20T20:46:10.291Z</time>
      </trkpt>
      <trkpt lat="47.515220" lon="7.761710">
        <ele>340.865071</ele>
        <time>2021-11-20T20:46:12.155Z</time>
      </trkpt>
      <trkpt lat="47.515265" lon="7.761533">
        <ele>340.450104</ele>
        <time>2021-11-20T20:46:13.405Z</time>
      </trkpt>
      <trkpt lat="47.515394" lon="7.761200">
        <ele>339.607801</ele>
        <time>2021-11-20T20:46:15.949Z</time>
      </trkpt>
      <trkpt lat="47.515929" lon="7.760077">
        <ele>336.592490</ele>
        <time>2021-11-20T20:46:25.218Z</time>
      </trkpt>
      <trkpt lat="47.516501" lon="7.759179">
        <ele>334.704968</ele>
        <time>2021-11-20T20:46:34.221Z</time>
      </trkpt>
      <trkpt lat="47.516954" lon="7.758506">
        <ele>333.745929</ele>
        <time>2021-11-20T20:46:41.676Z</time>
      </trkpt>
      <trkpt lat="47.517863" lon="7.757421">
        <ele>332.695676</ele>
        <time>2021-11-20T20:46:56.115Z</time>
      </trkpt>
      <trkpt lat="47.518866" lon="7.755813">
        <ele>332.730391</ele>
        <time>2021-11-20T20:47:19.387Z</time>
      </trkpt>
      <trkpt lat="47.519558" lon="7.754516">
        <ele>333.375285</ele>
        <time>2021-11-20T20:47:39.693Z</time>
      </trkpt>
      <trkpt lat="47.519771" lon="7.754124">
        <ele>333.571581</ele>
        <time>2021-11-20T20:47:45.665Z</time>
      </trkpt>
      <trkpt lat="47.520081" lon="7.753575">
        <ele>333.395353</ele>
        <time>2021-11-20T20:47:53.424Z</time>
      </trkpt>
      <trkpt lat="47.520500" lon="7.752840">
        <ele>332.780989</ele>
        <time>2021-11-20T20:48:02.178Z</time>
      </trkpt>
      <trkpt lat="47.520691" lon="7.752581">
        <ele>332.536039</ele>
        <time>2021-11-20T20:48:05.401Z</time>
      </trkpt>
      <trkpt lat="47.521128" lon="7.752139">
        <ele>332.035509</ele>
        <time>2021-11-20T20:48:11.157Z</time>
      </trkpt>
      <trkpt lat="47.522153" lon="7.751504">
        <ele>328.866865</ele>
        <time>2021-11-20T20:48:22.744Z</time>
      </trkpt>
      <trkpt lat="47.522660" lon="7.751079">
        <ele>327.139828</ele>
        <time>2021-11-20T20:48:28.592Z</time>
      </trkpt>
      <trkpt lat="47.523810" lon="7.749861">
        <ele>322.235884</ele>
        <time>2021-11-20T20:48:42.572Z</time>
      </trkpt>
      <trkpt lat="47.524595" lon="7.748826">
        <ele>318.868760</ele>
        <time>2021-11-20T20:48:53.181Z</time>
      </trkpt>
      <trkpt lat="47.524786" lon="7.748513">
        <ele>318.060734</ele>
        <time>2021-11-20T20:48:56.089Z</time>
      </trkpt>
      <trkpt lat="47.524939" lon="7.748210">
        <ele>317.336070</ele>
        <time>2021-11-20T20:48:58.812Z</time>
      </trkpt>
      <trkpt lat="47.525034" lon="7.748003">
        <ele>316.856693</ele>
        <time>2021-11-20T20:49:00.587Z</time>
      </trkpt>
      <trkpt lat="47.525102" lon="7.747843">
        <ele>316.494595</ele>
        <time>2021-11-20T20:49:01.991Z</time>
      </trkpt>
      <trkpt lat="47.525175" lon="7.747653">
        <ele>316.075898</ele>
        <time>2021-11-20T20:49:03.491Z</time>
      </trkpt>
      <trkpt lat="47.525493" lon="7.746648">
        <ele>314.261064</ele>
        <time>2021-11-20T20:49:11.373Z</time>
      </trkpt>
      <trkpt lat="47.525698" lon="7.745676">
        <ele>312.802365</ele>
        <time>2021-11-20T20:49:18.826Z</time>
      </trkpt>
      <trkpt lat="47.525754" lon="7.745361">
        <ele>312.335760</ele>
        <time>2021-11-20T20:49:21.230Z</time>
      </trkpt>
      <trkpt lat="47.525761" lon="7.745310">
        <ele>312.261210</ele>
        <time>2021-11-20T20:49:21.618Z</time>
      </trkpt>
      <trkpt lat="47.525817" lon="7.744920">
        <ele>311.690056</ele>
        <time>2021-11-20T20:49:24.671Z</time>
      </trkpt>
      <trkpt lat="47.525836" lon="7.744800">
        <ele>311.513497</ele>
        <time>2021-11-20T20:49:25.581Z</time>
      </trkpt>
      <trkpt lat="47.525969" lon="7.743974">
        <ele>310.690898</ele>
        <time>2021-11-20T20:49:32.063Z</time>
      </trkpt>
      <trkpt lat="47.526222" lon="7.742784">
        <ele>309.561000</ele>
        <time>2021-11-20T20:49:41.946Z</time>
      </trkpt>
      <trkpt lat="47.526311" lon="7.742468">
        <ele>309.250914</ele>
        <time>2021-11-20T20:49:44.787Z</time>
      </trkpt>
      <trkpt lat="47.526782" lon="7.740808">
        <ele>308.449970</ele>
        <time>2021-11-20T20:49:59.989Z</time>
      </trkpt>
      <trkpt lat="47.526976" lon="7.739760">
        <ele>308.077374</ele>
        <time>2021-11-20T20:50:09.980Z</time>
      </trkpt>
      <trkpt lat="47.527038" lon="7.739424">
        <ele>308.157333</ele>
        <time>2021-11-20T20:50:13.793Z</time>
      </trkpt>
      <trkpt lat="47.527103" lon="7.738847">
        <ele>308.431403</ele>
        <time>2021-11-20T20:50:20.697Z</time>
      </trkpt>
      <trkpt lat="47.527349" lon="7.738840">
        <ele>308.602121</ele>
        <time>2021-11-20T20:50:25.309Z</time>
      </trkpt>
      <trkpt lat="47.527567" lon="7.738827">
        <ele>308.753502</ele>
        <time>2021-11-20T20:50:29.387Z</time>
      </trkpt>
      <trkpt lat="47.527841" lon="7.738820">
        <ele>308.943645</ele>
        <time>2021-11-20T20:50:34.046Z</time>
      </trkpt>
      <trkpt lat="47.528292" lon="7.738774">
        <ele>309.257312</ele>
        <time>2021-11-20T20:50:44.924Z</time>
      </trkpt>
      <trkpt lat="47.528341" lon="7.738762">
        <ele>309.290759</ele>
        <time>2021-11-20T20:50:45.906Z</time>
      </trkpt>
      <trkpt lat="47.528601" lon="7.738620">
        <ele>309.360148</ele>
        <time>2021-11-20T20:50:51.203Z</time>
      </trkpt>
      <trkpt lat="47.528842" lon="7.738378">
        <ele>309.433057</ele>
        <time>2021-11-20T20:50:56.553Z</time>
      </trkpt>
      <trkpt lat="47.528896" lon="7.738303">
        <ele>309.451594</ele>
        <time>2021-11-20T20:50:58.195Z</time>
      </trkpt>
      <trkpt lat="47.528997" lon="7.738134">
        <ele>309.489751</ele>
        <time>2021-11-20T20:51:00.542Z</time>
      </trkpt>
      <trkpt lat="47.529534" lon="7.737005">
        <ele>309.723238</ele>
        <time>2021-11-20T20:51:14.210Z</time>
      </trkpt>
      <trkpt lat="47.529603" lon="7.736896">
        <ele>309.757339</ele>
        <time>2021-11-20T20:51:15.360Z</time>
      </trkpt>
      <trkpt lat="47.529741" lon="7.736731">
        <ele>309.851204</ele>
        <time>2021-11-20T20:51:17.563Z</time>
      </trkpt>
      <trkpt lat="47.530193" lon="7.736351">
        <ele>310.126274</ele>
        <time>2021-11-20T20:51:24.629Z</time>
      </trkpt>
      <trkpt lat="47.530882" lon="7.735983">
        <ele>310.513906</ele>
        <time>2021-11-20T20:51:37.449Z</time>
      </trkpt>
      <trkpt lat="47.531325" lon="7.735684">
        <ele>311.072290</ele>
        <time>2021-11-20T20:51:47.562Z</time>
      </trkpt>
      <trkpt lat="47.531389" lon="7.735745">
        <ele>311.265739</ele>
        <time>2021-11-20T20:51:50.308Z</time>
      </trkpt>
      <trkpt lat="47.531710" lon="7.735855">
        <ele>312.103206</ele>
        <time>2021-11-20T20:51:58.094Z</time>
      </trkpt>
      <trkpt lat="47.531874" lon="7.736048">
        <ele>312.635627</ele>
        <time>2021-11-20T20:52:03.431Z</time>
      </trkpt>
      <trkpt lat="47.533153" lon="7.739664">
        <ele>319.580693</ele>
        <time>2021-11-20T20:53:15.890Z</time>
      </trkpt>
      <trkpt lat="47.533191" lon="7.739816">
        <ele>319.770472</ele>
        <time>2021-11-20T20:53:18.073Z</time>
      </trkpt>
      <trkpt lat="47.533352" lon="7.740430">
        <ele>319.738534</ele>
        <time>2021-11-20T20:53:25.268Z</time>
      </trkpt>
      <trkpt lat="47.533707" lon="7.742025">
        <ele>319.657103</ele>
        <time>2021-11-20T20:53:40.268Z</time>
      </trkpt>
      <trkpt lat="47.533870" lon="7.743466">
        <ele>319.195831</ele>
        <time>2021-11-20T20:53:52.346Z</time>
      </trkpt>
      <trkpt lat="47.534043" lon="7.744207">
        <ele>318.899212</ele>
        <time>2021-11-20T20:53:59.429Z</time>
      </trkpt>
      <trkpt lat="47.534097" lon="7.744343">
        <ele>318.839523</ele>
        <time>2021-11-20T20:54:00.877Z</time>
      </trkpt>
      <trkpt lat="47.534179" lon="7.744495">
        <ele>318.765917</ele>
        <time>2021-11-20T20:54:02.756Z</time>
      </trkpt>
      <trkpt lat="47.534370" lon="7.744709">
        <ele>318.635669</ele>
        <time>2021-11-20T20:54:06.050Z</time>
      </trkpt>
      <trkpt lat="47.534429" lon="7.744856">
        <ele>318.633547</ele>
        <time>2021-11-20T20:54:07.812Z</time>
      </trkpt>
      <trkpt lat="47.534874" lon="7.746551">
        <ele>318.610983</ele>
        <time>2021-11-20T20:54:25.362Z</time>
      </trkpt>
      <trkpt lat="47.535912" lon="7.749669">
        <ele>319.260113</ele>
        <time>2021-11-20T20:55:03.702Z</time>
      </trkpt>
      <trkpt lat="47.537134" lon="7.752309">
        <ele>320.198703</ele>
        <time>2021-11-20T20:55:37.855Z</time>
      </trkpt>
      <trkpt lat="47.537371" lon="7.752851">
        <ele>320.675286</ele>
        <time>2021-11-20T20:55:44.504Z</time>
      </trkpt>
      <trkpt lat="47.537564" lon="7.753073">
        <ele>320.942416</ele>
        <time>2021-11-20T20:55:48.319Z</time>
      </trkpt>
      <trkpt lat="47.537715" lon="7.753194">
        <ele>321.130094</ele>
        <time>2021-11-20T20:55:52.164Z</time>
      </trkpt>
      <trkpt lat="47.538052" lon="7.753460">
        <ele>321.547538</ele>
        <time>2021-11-20T20:56:01.248Z</time>
      </trkpt>
      <trkpt lat="47.538359" lon="7.753900">
        <ele>323.192920</ele>
        <time>2021-11-20T20:56:12.480Z</time>
      </trkpt>
      <trkpt lat="47.538494" lon="7.754103">
        <ele>324.100425</ele>
        <time>2021-11-20T20:56:18.285Z</time>
      </trkpt>
      <trkpt lat="47.538723" lon="7.754445">
        <ele>325.634502</ele>
        <time>2021-11-20T20:56:28.478Z</time>
      </trkpt>
      <trkpt lat="47.538792" lon="7.754549">
        <ele>326.098891</ele>
        <time>2021-11-20T20:56:32.339Z</time>
      </trkpt>
      <trkpt lat="47.539079" lon="7.754976">
        <ele>328.017845</ele>
        <time>2021-11-20T20:56:48.038Z</time>
      </trkpt>
      <trkpt lat="47.539230" lon="7.755294">
        <ele>329.256019</ele>
        <time>2021-11-20T20:56:58.698Z</time>
      </trkpt>
      <trkpt lat="47.539346" lon="7.755736">
        <ele>330.696354</ele>
        <time>2021-11-20T20:57:11.989Z</time>
      </trkpt>
      <trkpt lat="47.539595" lon="7.757548">
        <ele>335.923331</ele>
        <time>2021-11-20T20:57:55.911Z</time>
      </trkpt>
      <trkpt lat="47.539722" lon="7.758107">
        <ele>337.590519</ele>
        <time>2021-11-20T20:58:04.918Z</time>
      </trkpt>
      <trkpt lat="47.539949" lon="7.758688">
        <ele>336.735799</ele>
        <time>2021-11-20T20:58:12.131Z</time>
      </trkpt>
      <trkpt lat="47.540447" lon="7.759585">
        <ele>335.034103</ele>
        <time>2021-11-20T20:58:20.655Z</time>
      </trkpt>
      <trkpt lat="47.540567" lon="7.759901">
        <ele>334.502862</ele>
        <time>2021-11-20T20:58:23.041Z</time>
      </trkpt>
      <trkpt lat="47.540921" lon="7.761599">
        <ele>327.188216</ele>
        <time>2021-11-20T20:58:34.163Z</time>
      </trkpt>
      <trkpt lat="47.541004" lon="7.762306">
        <ele>323.491560</ele>
        <time>2021-11-20T20:58:38.384Z</time>
      </trkpt>
      <trkpt lat="47.541023" lon="7.762922">
        <ele>320.315031</ele>
        <time>2021-11-20T20:58:41.967Z</time>
      </trkpt>
      <trkpt lat="47.541219" lon="7.763853">
        <ele>314.574143</ele>
        <time>2021-11-20T20:58:47.591Z</time>
      </trkpt>
      <trkpt lat="47.541334" lon="7.764020">
        <ele>313.159898</ele>
        <time>2021-11-20T20:58:49.057Z</time>
      </trkpt>
      <trkpt lat="47.541377" lon="7.764045">
        <ele>312.754234</ele>
        <time>2021-11-20T20:58:49.430Z</time>
      </trkpt>
      <trkpt lat="47.541364" lon="7.764150">
        <ele>312.121381</ele>
        <time>2021-11-20T20:58:50.041Z</time>
      </trkpt>
      <trkpt lat="47.541443" lon="7.764512">
        <ele>309.865987</ele>
        <time>2021-11-20T20:58:52.352Z</time>
      </trkpt>
      <trkpt lat="47.541552" lon="7.764869">
        <ele>307.543185</ele>
        <time>2021-11-20T20:58:54.646Z</time>
      </trkpt>
      <trkpt lat="47.541697" lon="7.765479">
        <ele>304.001686</ele>
        <time>2021-11-20T20:58:58.528Z</time>
      </trkpt>
      <trkpt lat="47.542317" lon="7.768533">
        <ele>296.650411</ele>
        <time>2021-11-20T20:59:20.001Z</time>
      </trkpt>
      <trkpt lat="47.542450" lon="7.769311">
        <ele>296.213973</ele>
        <time>2021-11-20T20:59:27.716Z</time>
      </trkpt>
      <trkpt lat="47.542720" lon="7.770771">
        <ele>295.603704</ele>
        <time>2021-11-20T20:59:44.260Z</time>
      </trkpt>
      <trkpt lat="47.543108" lon="7.773069">
        <ele>296.198666</ele>
        <time>2021-11-20T21:00:11.112Z</time>
      </trkpt>
      <trkpt lat="47.543145" lon="7.773277">
        <ele>296.222311</ele>
        <time>2021-11-20T21:00:13.238Z</time>
      </trkpt>
      <trkpt lat="47.543350" lon="7.774507">
        <ele>296.334965</ele>
        <time>2021-11-20T21:00:25.701Z</time>
      </trkpt>
      <trkpt lat="47.543402" lon="7.775016">
        <ele>296.380740</ele>
        <time>2021-11-20T21:00:30.764Z</time>
      </trkpt>
      <trkpt lat="47.543449" lon="7.775478">
        <ele>296.422284</ele>
        <time>2021-11-20T21:00:35.457Z</time>
      </trkpt>
      <trkpt lat="47.543482" lon="7.776095">
        <ele>296.828383</ele>
        <time>2021-11-20T21:00:42.165Z</time>
      </trkpt>
      <trkpt lat="47.543527" lon="7.776532">
        <ele>297.264997</ele>
        <time>2021-11-20T21:00:47.324Z</time>
      </trkpt>
      <trkpt lat="47.543707" lon="7.777394">
        <ele>298.156191</ele>
        <time>2021-11-20T21:00:59.606Z</time>
      </trkpt>
      <trkpt lat="47.543933" lon="7.778374">
        <ele>299.446039</ele>
        <time>2021-11-20T21:01:16.513Z</time>
      </trkpt>
      <trkpt lat="47.544100" lon="7.779438">
        <ele>303.275675</ele>
        <time>2021-11-20T21:01:37.224Z</time>
      </trkpt>
      <trkpt lat="47.544411" lon="7.781858">
        <ele>310.714655</ele>
        <time>2021-11-20T21:02:48.749Z</time>
      </trkpt>
      <trkpt lat="47.544461" lon="7.782254">
        <ele>311.643347</ele>
        <time>2021-11-20T21:02:57.080Z</time>
      </trkpt>
      <trkpt lat="47.544469" lon="7.782455">
        <ele>312.107497</ele>
        <time>2021-11-20T21:03:01.840Z</time>
      </trkpt>
      <trkpt lat="47.544474" lon="7.782623">
        <ele>312.495146</ele>
        <time>2021-11-20T21:03:04.710Z</time>
      </trkpt>
      <trkpt lat="47.544490" lon="7.783060">
        <ele>313.503999</ele>
        <time>2021-11-20T21:03:09.118Z</time>
      </trkpt>
      <trkpt lat="47.544555" lon="7.783372">
        <ele>314.256696</ele>
        <time>2021-11-20T21:03:11.926Z</time>
      </trkpt>
      <trkpt lat="47.544627" lon="7.783499">
        <ele>314.441766</ele>
        <time>2021-11-20T21:03:13.568Z</time>
      </trkpt>
      <trkpt lat="47.544950" lon="7.784008">
        <ele>312.128670</ele>
        <time>2021-11-20T21:03:21.070Z</time>
      </trkpt>
      <trkpt lat="47.545054" lon="7.784227">
        <ele>311.242095</ele>
        <time>2021-11-20T21:03:23.790Z</time>
      </trkpt>
      <trkpt lat="47.545240" lon="7.784746">
        <ele>309.296512</ele>
        <time>2021-11-20T21:03:28.945Z</time>
      </trkpt>
      <trkpt lat="47.545250" lon="7.784778">
        <ele>309.179757</ele>
        <time>2021-11-20T21:03:29.218Z</time>
      </trkpt>
      <trkpt lat="47.545624" lon="7.785548">
        <ele>306.038881</ele>
        <time>2021-11-20T21:03:37.382Z</time>
      </trkpt>
      <trkpt lat="47.545672" lon="7.785654">
        <ele>305.652677</ele>
        <time>2021-11-20T21:03:38.390Z</time>
      </trkpt>
      <trkpt lat="47.545856" lon="7.785973">
        <ele>304.687614</ele>
        <time>2021-11-20T21:03:42.231Z</time>
      </trkpt>
      <trkpt lat="47.546102" lon="7.786217">
        <ele>303.678902</ele>
        <time>2021-11-20T21:03:46.216Z</time>
      </trkpt>
      <trkpt lat="47.546417" lon="7.786331">
        <ele>302.574040</ele>
        <time>2021-11-20T21:03:50.790Z</time>
      </trkpt>
      <trkpt lat="47.546464" lon="7.786335">
        <ele>302.413632</ele>
        <time>2021-11-20T21:03:51.552Z</time>
      </trkpt>
      <trkpt lat="47.546526" lon="7.786353">
        <ele>302.198361</ele>
        <time>2021-11-20T21:03:52.550Z</time>
      </trkpt>
      <trkpt lat="47.546913" lon="7.786470">
        <ele>300.852557</ele>
        <time>2021-11-20T21:03:58.707Z</time>
      </trkpt>
      <trkpt lat="47.546952" lon="7.786540">
        <ele>300.643807</ele>
        <time>2021-11-20T21:03:59.645Z</time>
      </trkpt>
      <trkpt lat="47.546959" lon="7.786598">
        <ele>300.508298</ele>
        <time>2021-11-20T21:04:00.347Z</time>
      </trkpt>
      <trkpt lat="47.546897" lon="7.787133">
        <ele>299.649964</ele>
        <time>2021-11-20T21:04:07.725Z</time>
      </trkpt>
      <trkpt lat="47.546695" lon="7.788763">
        <ele>300.121808</ele>
        <time>2021-11-20T21:04:32.401Z</time>
      </trkpt>
      <trkpt lat="47.546673" lon="7.788921">
        <ele>300.167740</ele>
        <time>2021-11-20T21:04:35.045Z</time>
      </trkpt>
      <trkpt lat="47.546594" lon="7.789499">
        <ele>300.335646</ele>
        <time>2021-11-20T21:04:44.164Z</time>
      </trkpt>
      <trkpt lat="47.546253" lon="7.791998">
        <ele>301.969261</ele>
        <time>2021-11-20T21:05:27.055Z</time>
      </trkpt>
      <trkpt lat="47.546027" lon="7.793254">
        <ele>301.977854</ele>
        <time>2021-11-20T21:05:46.014Z</time>
      </trkpt>
      <trkpt lat="47.545969" lon="7.793663">
        <ele>301.925135</ele>
        <time>2021-11-20T21:05:51.113Z</time>
      </trkpt>
      <trkpt lat="47.545967" lon="7.793697">
        <ele>301.920829</ele>
        <time>2021-11-20T21:05:51.526Z</time>
      </trkpt>
      <trkpt lat="47.545921" lon="7.794468">
        <ele>301.823193</ele>
        <time>2021-11-20T21:06:00.917Z</time>
      </trkpt>
      <trkpt lat="47.545947" lon="7.794710">
        <ele>301.792281</ele>
        <time>2021-11-20T21:06:03.754Z</time>
      </trkpt>
      <trkpt lat="47.546019" lon="7.795020">
        <ele>301.748392</ele>
        <time>2021-11-20T21:06:07.776Z</time>
      </trkpt>
      <trkpt lat="47.546165" lon="7.795511">
        <ele>301.674343</ele>
        <time>2021-11-20T21:06:14.689Z</time>
      </trkpt>
      <trkpt lat="47.546170" lon="7.795612">
        <ele>301.660366</ele>
        <time>2021-11-20T21:06:15.738Z</time>
      </trkpt>
      <trkpt lat="47.546154" lon="7.795747">
        <ele>301.641449</ele>
        <time>2021-11-20T21:06:17.556Z</time>
      </trkpt>
      <trkpt lat="47.546105" lon="7.795928">
        <ele>301.614534</ele>
        <time>2021-11-20T21:06:20.707Z</time>
      </trkpt>
      <trkpt lat="47.546038" lon="7.796107">
        <ele>301.586286</ele>
        <time>2021-11-20T21:06:23.028Z</time>
      </trkpt>
      <trkpt lat="47.545889" lon="7.796500">
        <ele>301.524076</ele>
        <time>2021-11-20T21:06:29.920Z</time>
      </trkpt>
      <trkpt lat="47.545788" lon="7.796748">
        <ele>301.484101</ele>
        <time>2021-11-20T21:06:33.575Z</time>
      </trkpt>
      <trkpt lat="47.545757" lon="7.796853">
        <ele>301.468283</ele>
        <time>2021-11-20T21:06:35.630Z</time>
      </trkpt>
      <trkpt lat="47.545728" lon="7.796950">
        <ele>301.453642</ele>
        <time>2021-11-20T21:06:36.934Z</time>
      </trkpt>
      <trkpt lat="47.545689" lon="7.797076">
        <ele>301.434511</ele>
        <time>2021-11-20T21:06:38.392Z</time>
      </trkpt>
      <trkpt lat="47.545670" lon="7.797142">
        <ele>301.424608</ele>
        <time>2021-11-20T21:06:39.453Z</time>
      </trkpt>
      <trkpt lat="47.545645" lon="7.797258">
        <ele>301.409956</ele>
        <time>2021-11-20T21:06:41.216Z</time>
      </trkpt>
      <trkpt lat="47.545637" lon="7.797310">
        <ele>301.409489</ele>
        <time>2021-11-20T21:06:42.562Z</time>
      </trkpt>
      <trkpt lat="47.545558" lon="7.798144">
        <ele>301.402107</ele>
        <time>2021-11-20T21:06:53.841Z</time>
      </trkpt>
      <trkpt lat="47.545511" lon="7.798680">
        <ele>301.397370</ele>
        <time>2021-11-20T21:07:01.911Z</time>
      </trkpt>
      <trkpt lat="47.545581" lon="7.798713">
        <ele>301.396416</ele>
        <time>2021-11-20T21:07:03.422Z</time>
      </trkpt>
      <trkpt lat="47.545731" lon="7.798810">
        <ele>301.394291</ele>
        <time>2021-11-20T21:07:07.427Z</time>
      </trkpt>
      <trkpt lat="47.545807" lon="7.798846">
        <ele>301.393255</ele>
        <time>2021-11-20T21:07:08.765Z</time>
      </trkpt>
      <trkpt lat="47.546418" lon="7.798980">
        <ele>301.320082</ele>
        <time>2021-11-20T21:07:20.820Z</time>
      </trkpt>
      <trkpt lat="47.547540" lon="7.799538">
        <ele>300.642781</ele>
        <time>2021-11-20T21:07:41.461Z</time>
      </trkpt>
      <trkpt lat="47.547912" lon="7.799646">
        <ele>300.425847</ele>
        <time>2021-11-20T21:07:48.842Z</time>
      </trkpt>
      <trkpt lat="47.548459" lon="7.799691">
        <ele>300.317656</ele>
        <time>2021-11-20T21:07:59.780Z</time>
      </trkpt>
      <trkpt lat="47.548535" lon="7.799720">
        <ele>300.310368</ele>
        <time>2021-11-20T21:08:01.300Z</time>
      </trkpt>
      <trkpt lat="47.548514" lon="7.799795">
        <ele>300.305278</ele>
        <time>2021-11-20T21:08:02.364Z</time>
      </trkpt>
      <trkpt lat="47.548519" lon="7.799896">
        <ele>300.298929</ele>
        <time>2021-11-20T21:08:03.718Z</time>
      </trkpt>
      <trkpt lat="47.548545" lon="7.800404">
        <ele>300.266992</ele>
        <time>2021-11-20T21:08:10.509Z</time>
      </trkpt>
      <trkpt lat="47.548560" lon="7.800672">
        <ele>300.250134</ele>
        <time>2021-11-20T21:08:14.201Z</time>
      </trkpt>
      <trkpt lat="47.548569" lon="7.800838">
        <ele>300.239695</ele>
        <time>2021-11-20T21:08:16.445Z</time>
      </trkpt>
      <trkpt lat="47.548576" lon="7.800968">
        <ele>300.231519</ele>
        <time>2021-11-20T21:08:18.221Z</time>
      </trkpt>
      <trkpt lat="47.548596" lon="7.801213">
        <ele>300.216049</ele>
        <time>2021-11-20T21:08:21.600Z</time>
      </trkpt>
      <trkpt lat="47.548607" lon="7.801690">
        <ele>300.180227</ele>
        <time>2021-11-20T21:08:28.100Z</time>
      </trkpt>
      <trkpt lat="47.548626" lon="7.802129">
        <ele>300.114399</ele>
        <time>2021-11-20T21:08:34.019Z</time>
      </trkpt>
      <trkpt lat="47.548626" lon="7.802129">
        <ele>300.114399</ele>
        <time>2021-11-20T21:08:34.024Z</time>
      </trkpt>
      <trkpt lat="47.548626" lon="7.802129">
        <ele>300.114399</ele>
        <time>2021-11-20T21:08:34.031Z</time>
      </trkpt>
      <trkpt lat="47.548877" lon="7.802168">
        <ele>300.058447</ele>
        <time>2021-11-20T21:08:39.023Z</time>
      </trkpt>
      <trkpt lat="47.549410" lon="7.802226">
        <ele>299.939961</ele>
        <time>2021-11-20T21:08:49.439Z</time>
      </trkpt>
      <trkpt lat="47.549481" lon="7.802234">
        <ele>299.924175</ele>
        <time>2021-11-20T21:08:50.779Z</time>
      </trkpt>
      <trkpt lat="47.549879" lon="7.802247">
        <ele>299.835916</ele>
        <time>2021-11-20T21:08:58.260Z</time>
      </trkpt>
      <trkpt lat="47.550146" lon="7.802262">
        <ele>299.770955</ele>
        <time>2021-11-20T21:09:03.329Z</time>
      </trkpt>
      <trkpt lat="47.550134" lon="7.803051">
        <ele>299.607630</ele>
        <time>2021-11-20T21:09:13.559Z</time>
      </trkpt>
      <trkpt lat="47.550196" lon="7.803120">
        <ele>299.583854</ele>
        <time>2021-11-20T21:09:15.013Z</time>
      </trkpt>
      <trkpt lat="47.550811" lon="7.803130">
        <ele>299.395272</ele>
        <time>2021-11-20T21:09:26.422Z</time>
      </trkpt>
      <trkpt lat="47.550981" lon="7.803132">
        <ele>299.343145</ele>
        <time>2021-11-20T21:09:29.661Z</time>
      </trkpt>
      <trkpt lat="47.551163" lon="7.803129">
        <ele>299.287337</ele>
        <time>2021-11-20T21:09:33.073Z</time>
      </trkpt>
      <trkpt lat="47.551598" lon="7.803160">
        <ele>299.412537</ele>
        <time>2021-11-20T21:09:41.661Z</time>
      </trkpt>
      <trkpt lat="47.551666" lon="7.803144">
        <ele>299.454704</ele>
        <time>2021-11-20T21:09:46.405Z</time>
      </trkpt>
      <trkpt lat="47.551732" lon="7.803125">
        <ele>299.495880</ele>
        <time>2021-11-20T21:09:51.072Z</time>
      </trkpt>
      <trkpt lat="47.551744" lon="7.803277">
        <ele>299.559137</ele>
        <time>2021-11-20T21:09:52.773Z</time>
      </trkpt>
      <trkpt lat="47.551751" lon="7.803369">
        <ele>299.597405</ele>
        <time>2021-11-20T21:09:53.850Z</time>
      </trkpt>
      <trkpt lat="47.551692" lon="7.803510">
        <ele>299.665979</ele>
        <time>2021-11-20T21:09:56.434Z</time>
      </trkpt>
      <trkpt lat="47.551741" lon="7.804294">
        <ele>299.991427</ele>
        <time>2021-11-20T21:10:09.433Z</time>
      </trkpt>
      <trkpt lat="47.551744" lon="7.804473">
        <ele>300.065438</ele>
        <time>2021-11-20T21:10:11.952Z</time>
      </trkpt>
      <trkpt lat="47.551731" lon="7.804667">
        <ele>300.146021</ele>
        <time>2021-11-20T21:10:15.933Z</time>
      </trkpt>
      <trkpt lat="47.551709" lon="7.805000">
        <ele>300.284322</ele>
        <time>2021-11-20T21:10:20.424Z</time>
      </trkpt>
      <trkpt lat="47.551681" lon="7.805477">
        <ele>300.425786</ele>
        <time>2021-11-20T21:10:28.161Z</time>
      </trkpt>
      <trkpt lat="47.551671" lon="7.806117">
        <ele>300.584141</ele>
        <time>2021-11-20T21:10:38.250Z</time>
      </trkpt>
      <trkpt lat="47.551651" lon="7.806246">
        <ele>300.616882</ele>
        <time>2021-11-20T21:10:41.153Z</time>
      </trkpt>
      <trkpt lat="47.551895" lon="7.806278">
        <ele>300.706659</ele>
        <time>2021-11-20T21:10:44.678Z</time>
      </trkpt>
      <trkpt lat="47.552015" lon="7.806307">
        <ele>300.751221</ele>
        <time>2021-11-20T21:10:47.548Z</time>
      </trkpt>
      <trkpt lat="47.552068" lon="7.806445">
        <ele>300.790497</ele>
        <time>2021-11-20T21:10:49.005Z</time>
      </trkpt>
      <trkpt lat="47.552398" lon="7.808880">
        <ele>300.368304</ele>
        <time>2021-11-20T21:11:11.148Z</time>
      </trkpt>
      <trkpt lat="47.552566" lon="7.810386">
        <ele>299.757050</ele>
        <time>2021-11-20T21:11:24.159Z</time>
      </trkpt>
      <trkpt lat="47.552711" lon="7.812955">
        <ele>298.764234</ele>
        <time>2021-11-20T21:11:46.768Z</time>
      </trkpt>
      <trkpt lat="47.552844" lon="7.816432">
        <ele>299.143699</ele>
        <time>2021-11-20T21:12:20.506Z</time>
      </trkpt>
      <trkpt lat="47.552368" lon="7.816478">
        <ele>299.568210</ele>
        <time>2021-11-20T21:12:32.890Z</time>
      </trkpt>
      <trkpt lat="47.551537" lon="7.816539">
        <ele>300.425713</ele>
        <time>2021-11-20T21:12:56.699Z</time>
      </trkpt>
      <trkpt lat="47.550839" lon="7.816590">
        <ele>301.290237</ele>
        <time>2021-11-20T21:13:15.382Z</time>
      </trkpt>
      <trkpt lat="47.550457" lon="7.816559">
        <ele>301.763507</ele>
        <time>2021-11-20T21:13:24.767Z</time>
      </trkpt>
      <trkpt lat="47.550240" lon="7.817600">
        <ele>302.083230</ele>
        <time>2021-11-20T21:13:40.183Z</time>
      </trkpt>
      <trkpt lat="47.550078" lon="7.818610">
        <ele>301.786724</ele>
        <time>2021-11-20T21:13:53.173Z</time>
      </trkpt>
      <trkpt lat="47.549870" lon="7.819908">
        <ele>301.466474</ele>
        <time>2021-11-20T21:14:08.916Z</time>
      </trkpt>
      <trkpt lat="47.549781" lon="7.820506">
        <ele>301.450759</ele>
        <time>2021-11-20T21:14:16.762Z</time>
      </trkpt>
      <trkpt lat="47.549636" lon="7.821487">
        <ele>301.424988</ele>
        <time>2021-11-20T21:14:30.207Z</time>
      </trkpt>
      <trkpt lat="47.549580" lon="7.821865">
        <ele>301.415056</ele>
        <time>2021-11-20T21:14:35.767Z</time>
      </trkpt>
      <trkpt lat="47.549309" lon="7.823603">
        <ele>302.734062</ele>
        <time>2021-11-20T21:15:04.192Z</time>
      </trkpt>
      <trkpt lat="47.548993" lon="7.825343">
        <ele>304.761970</ele>
        <time>2021-11-20T21:15:39.161Z</time>
      </trkpt>
      <trkpt lat="47.548679" lon="7.826710">
        <ele>306.941917</ele>
        <time>2021-11-20T21:16:08.335Z</time>
      </trkpt>
      <trkpt lat="47.548237" lon="7.826410">
        <ele>308.029331</ele>
        <time>2021-11-20T21:16:22.103Z</time>
      </trkpt>
      <trkpt lat="47.547666" lon="7.826091">
        <ele>309.219510</ele>
        <time>2021-11-20T21:16:39.487Z</time>
      </trkpt>
      <trkpt lat="47.547233" lon="7.825872">
        <ele>310.110817</ele>
        <time>2021-11-20T21:16:52.255Z</time>
      </trkpt>
      <trkpt lat="47.547114" lon="7.825816">
        <ele>310.354049</ele>
        <time>2021-11-20T21:16:55.613Z</time>
      </trkpt>
      <trkpt lat="47.546879" lon="7.825705">
        <ele>310.834546</ele>
        <time>2021-11-20T21:17:02.373Z</time>
      </trkpt>
      <trkpt lat="47.546693" lon="7.825618">
        <ele>311.214514</ele>
        <time>2021-11-20T21:17:07.641Z</time>
      </trkpt>
      <trkpt lat="47.546589" lon="7.825597">
        <ele>311.418985</ele>
        <time>2021-11-20T21:17:10.564Z</time>
      </trkpt>
      <trkpt lat="47.546574" lon="7.826239">
        <ele>312.343351</ele>
        <time>2021-11-20T21:17:22.852Z</time>
      </trkpt>
      <trkpt lat="47.546592" lon="7.826850">
        <ele>313.236560</ele>
        <time>2021-11-20T21:17:34.657Z</time>
      </trkpt>
      <trkpt lat="47.546721" lon="7.828140">
        <ele>315.141154</ele>
        <time>2021-11-20T21:18:00.946Z</time>
      </trkpt>
      <trkpt lat="47.546823" lon="7.829336">
        <ele>316.828526</ele>
        <time>2021-11-20T21:18:24.246Z</time>
      </trkpt>
      <trkpt lat="47.546946" lon="7.830852">
        <ele>318.947129</ele>
        <time>2021-11-20T21:18:53.490Z</time>
      </trkpt>
      <trkpt lat="47.547020" lon="7.831965">
        <ele>320.339297</ele>
        <time>2021-11-20T21:19:14.327Z</time>
      </trkpt>
      <trkpt lat="47.547190" lon="7.835066">
        <ele>324.134466</ele>
        <time>2021-11-20T21:20:11.418Z</time>
      </trkpt>
      <trkpt lat="47.547240" lon="7.836221">
        <ele>325.538732</ele>
        <time>2021-11-20T21:20:32.893Z</time>
      </trkpt>
      <trkpt lat="47.547276" lon="7.837287">
        <ele>326.865517</ele>
        <time>2021-11-20T21:20:53.003Z</time>
      </trkpt>
      <trkpt lat="47.547300" lon="7.838688">
        <ele>328.610853</ele>
        <time>2021-11-20T21:21:19.750Z</time>
      </trkpt>
      <trkpt lat="47.547332" lon="7.840572">
        <ele>330.074928</ele>
        <time>2021-11-20T21:21:52.378Z</time>
      </trkpt>
      <trkpt lat="47.547339" lon="7.841072">
        <ele>330.423862</ele>
        <time>2021-11-20T21:22:00.155Z</time>
      </trkpt>
      <trkpt lat="47.547362" lon="7.841665">
        <ele>330.814699</ele>
        <time>2021-11-20T21:22:08.925Z</time>
      </trkpt>
      <trkpt lat="47.547448" lon="7.842262">
        <ele>330.894373</ele>
        <time>2021-11-20T21:22:17.321Z</time>
      </trkpt>
      <trkpt lat="47.547354" lon="7.842839">
        <ele>330.971844</ele>
        <time>2021-11-20T21:22:25.203Z</time>
      </trkpt>
      <trkpt lat="47.547313" lon="7.843735">
        <ele>331.089057</ele>
        <time>2021-11-20T21:22:37.526Z</time>
      </trkpt>
      <trkpt lat="47.547295" lon="7.844722">
        <ele>331.595747</ele>
        <time>2021-11-20T21:22:52.273Z</time>
      </trkpt>
      <trkpt lat="47.547274" lon="7.845536">
        <ele>332.362111</ele>
        <time>2021-11-20T21:23:05.725Z</time>
      </trkpt>
      <trkpt lat="47.547124" lon="7.848795">
        <ele>336.225294</ele>
        <time>2021-11-20T21:24:07.879Z</time>
      </trkpt>
      <trkpt lat="47.547143" lon="7.849985">
        <ele>337.671724</ele>
        <time>2021-11-20T21:24:30.731Z</time>
      </trkpt>
      <trkpt lat="47.547141" lon="7.850355">
        <ele>338.018409</ele>
        <time>2021-11-20T21:24:37.830Z</time>
      </trkpt>
      <trkpt lat="47.546945" lon="7.851719">
        <ele>339.325058</ele>
        <time>2021-11-20T21:25:02.363Z</time>
      </trkpt>
      <trkpt lat="47.546582" lon="7.856413">
        <ele>340.666621</ele>
        <time>2021-11-20T21:26:10.675Z</time>
      </trkpt>
      <trkpt lat="47.546537" lon="7.857497">
        <ele>340.850375</ele>
        <time>2021-11-20T21:26:25.983Z</time>
      </trkpt>
      <trkpt lat="47.546487" lon="7.859119">
        <ele>341.212628</ele>
        <time>2021-11-20T21:26:49.431Z</time>
      </trkpt>
      <trkpt lat="47.546526" lon="7.861665">
        <ele>341.242783</ele>
        <time>2021-11-20T21:27:26.605Z</time>
      </trkpt>
      <trkpt lat="47.546592" lon="7.863006">
        <ele>340.874916</ele>
        <time>2021-11-20T21:27:43.072Z</time>
      </trkpt>
      <trkpt lat="47.546877" lon="7.864345">
        <ele>339.209398</ele>
        <time>2021-11-20T21:27:58.241Z</time>
      </trkpt>
      <trkpt lat="47.546885" lon="7.864500">
        <ele>339.024990</ele>
        <time>2021-11-20T21:27:59.920Z</time>
      </trkpt>
      <trkpt lat="47.546894" lon="7.864837">
        <ele>338.624905</ele>
        <time>2021-11-20T21:28:03.400Z</time>
      </trkpt>
      <trkpt lat="47.546889" lon="7.865225">
        <ele>338.164549</ele>
        <time>2021-11-20T21:28:07.521Z</time>
      </trkpt>
      <trkpt lat="47.546819" lon="7.865489">
        <ele>337.836849</ele>
        <time>2021-11-20T21:28:10.598Z</time>
      </trkpt>
      <trkpt lat="47.546510" lon="7.865766">
        <ele>337.261682</ele>
        <time>2021-11-20T21:28:16.293Z</time>
      </trkpt>
      <trkpt lat="47.546327" lon="7.865959">
        <ele>336.903946</ele>
        <time>2021-11-20T21:28:19.624Z</time>
      </trkpt>
      <trkpt lat="47.546096" lon="7.866147">
        <ele>336.484216</ele>
        <time>2021-11-20T21:28:23.690Z</time>
      </trkpt>
      <trkpt lat="47.545240" lon="7.866887">
        <ele>335.133568</ele>
        <time>2021-11-20T21:28:40.364Z</time>
      </trkpt>
      <trkpt lat="47.545160" lon="7.866985">
        <ele>335.217104</ele>
        <time>2021-11-20T21:28:42.320Z</time>
      </trkpt>
      <trkpt lat="47.545003" lon="7.867278">
        <ele>335.420309</ele>
        <time>2021-11-20T21:28:47.988Z</time>
      </trkpt>
      <trkpt lat="47.544568" lon="7.867693">
        <ele>335.836666</ele>
        <time>2021-11-20T21:29:00.779Z</time>
      </trkpt>
      <trkpt lat="47.544469" lon="7.867776">
        <ele>335.928206</ele>
        <time>2021-11-20T21:29:03.641Z</time>
      </trkpt>
      <trkpt lat="47.544410" lon="7.867825">
        <ele>335.982636</ele>
        <time>2021-11-20T21:29:05.729Z</time>
      </trkpt>
      <trkpt lat="47.544246" lon="7.867967">
        <ele>336.135498</ele>
        <time>2021-11-20T21:29:10.413Z</time>
      </trkpt>
      <trkpt lat="47.544214" lon="7.867988">
        <ele>336.163663</ele>
        <time>2021-11-20T21:29:11.261Z</time>
      </trkpt>
      <trkpt lat="47.543801" lon="7.868269">
        <ele>336.546285</ele>
        <time>2021-11-20T21:29:22.864Z</time>
      </trkpt>
      <trkpt lat="47.543657" lon="7.868359">
        <ele>336.757587</ele>
        <time>2021-11-20T21:29:27.213Z</time>
      </trkpt>
      <trkpt lat="47.543201" lon="7.868657">
        <ele>337.431409</ele>
        <time>2021-11-20T21:29:37.414Z</time>
      </trkpt>
      <trkpt lat="47.543105" lon="7.868711">
        <ele>337.570240</ele>
        <time>2021-11-20T21:29:39.998Z</time>
      </trkpt>
      <trkpt lat="47.543049" lon="7.868759">
        <ele>337.657710</ele>
        <time>2021-11-20T21:29:41.375Z</time>
      </trkpt>
      <trkpt lat="47.542722" lon="7.869201">
        <ele>338.256181</ele>
        <time>2021-11-20T21:29:51.207Z</time>
      </trkpt>
      <trkpt lat="47.542696" lon="7.869257">
        <ele>338.318210</ele>
        <time>2021-11-20T21:29:52.037Z</time>
      </trkpt>
      <trkpt lat="47.542657" lon="7.869354">
        <ele>338.421249</ele>
        <time>2021-11-20T21:29:53.472Z</time>
      </trkpt>
      <trkpt lat="47.542372" lon="7.869746">
        <ele>338.936259</ele>
        <time>2021-11-20T21:30:00.720Z</time>
      </trkpt>
      <trkpt lat="47.542329" lon="7.869820">
        <ele>338.936259</ele>
        <time>2021-11-20T21:30:01.902Z</time>
      </trkpt>
      <trkpt lat="47.542348" lon="7.869983">
        <ele>338.936259</ele>
        <time>2021-11-20T21:30:03.462Z</time>
      </trkpt>
      <trkpt lat="47.542317" lon="7.870012">
        <ele>338.936259</ele>
        <time>2021-11-20T21:30:04.166Z</time>
      </trkpt>
      <trkpt lat="47.542181" lon="7.870131">
        <ele>338.936259</ele>
        <time>2021-11-20T21:30:06.819Z</time>
      </trkpt>
      <trkpt lat="47.542118" lon="7.870135">
        <ele>338.936259</ele>
        <time>2021-11-20T21:30:07.823Z</time>
      </trkpt>
      <trkpt lat="47.542014" lon="7.870126">
        <ele>338.936259</ele>
        <time>2021-11-20T21:30:09.195Z</time>
      </trkpt>
      <trkpt lat="47.541910" lon="7.870106">
        <ele>338.936259</ele>
        <time>2021-11-20T21:30:10.859Z</time>
      </trkpt>
      <trkpt lat="47.541606" lon="7.870424">
        <ele>338.936259</ele>
        <time>2021-11-20T21:30:16.232Z</time>
      </trkpt>
      <trkpt lat="47.541521" lon="7.870517">
        <ele>338.936259</ele>
        <time>2021-11-20T21:30:17.744Z</time>
      </trkpt>
      <trkpt lat="47.541550" lon="7.870601">
        <ele>338.936259</ele>
        <time>2021-11-20T21:30:18.604Z</time>
      </trkpt>
      <trkpt lat="47.541576" lon="7.870664">
        <ele>338.936259</ele>
        <time>2021-11-20T21:30:19.276Z</time>
      </trkpt>
      <trkpt lat="47.541410" lon="7.870791">
        <ele>338.936259</ele>
        <time>2021-11-20T21:30:22.473Z</time>
      </trkpt>
      <trkpt lat="47.541409" lon="7.870792">
        <ele>338.936259</ele>
        <time>2021-11-20T21:30:22.540Z</time>
      </trkpt>
      <trkpt lat="47.541289" lon="7.870891">
        <ele>338.936259</ele>
        <time>2021-11-20T21:30:24.410Z</time>
      </trkpt>
    </trkseg>
  </trk>
</gpx>